<?xml version="1.0" encoding="UTF-8" standalone="no" ?>
<gpx xmlns="http://www.topografix.com/GPX/1/1" xmlns:xsi="http://www.w3.org/2001/XMLSchema-instance" xsi:schemaLocation="http://www.topografix.com/GPX/1/1 http://www.topografix.com/GPX/1/1/gpx.xsd" version="1.1" creator="VisuGPX - https://www.visugpx.com">
  <metadata>
    <name>Valberg-col de la couillole-Saint Étienne de tinee </name>
    <desc><![CDATA[File with points/tracks from Locus Map/3.39.4]]></desc>
  </metadata>
  <trk>
    <name><![CDATA[2019-09-27 09:49:17]]></name>
    <desc><![CDATA[Saint Étienne de tinee]]></desc>
    <trkseg>
      <trkpt lat="44.09496" lon="6.93157">
        <ele>1676.83</ele>
        <time>2019-09-27T07:49:32.000Z</time>
      </trkpt>
      <trkpt lat="44.09487" lon="6.93156">
        <ele>1675.46</ele>
        <time>2019-09-27T07:49:40.000Z</time>
      </trkpt>
      <trkpt lat="44.09488" lon="6.9318">
        <ele>1680.84</ele>
        <time>2019-09-27T07:51:11.000Z</time>
      </trkpt>
      <trkpt lat="44.0948" lon="6.93188">
        <ele>1680.24</ele>
        <time>2019-09-27T07:51:37.000Z</time>
      </trkpt>
      <trkpt lat="44.09471" lon="6.93209">
        <ele>1679.17</ele>
        <time>2019-09-27T07:51:42.000Z</time>
      </trkpt>
      <trkpt lat="44.09455" lon="6.93237">
        <ele>1679.39</ele>
        <time>2019-09-27T07:51:47.000Z</time>
      </trkpt>
      <trkpt lat="44.09418" lon="6.93255">
        <ele>1678.04</ele>
        <time>2019-09-27T07:51:52.000Z</time>
      </trkpt>
      <trkpt lat="44.09406" lon="6.93287">
        <ele>1678.51</ele>
        <time>2019-09-27T07:51:57.000Z</time>
      </trkpt>
      <trkpt lat="44.09392" lon="6.93314">
        <ele>1675.56</ele>
        <time>2019-09-27T07:52:02.000Z</time>
      </trkpt>
      <trkpt lat="44.09372" lon="6.93348">
        <ele>1674</ele>
        <time>2019-09-27T07:52:07.000Z</time>
      </trkpt>
      <trkpt lat="44.09348" lon="6.93381">
        <ele>1673.81</ele>
        <time>2019-09-27T07:52:12.000Z</time>
      </trkpt>
      <trkpt lat="44.09327" lon="6.93419">
        <ele>1672.96</ele>
        <time>2019-09-27T07:52:17.000Z</time>
      </trkpt>
      <trkpt lat="44.09302" lon="6.93463">
        <ele>1675.57</ele>
        <time>2019-09-27T07:52:22.000Z</time>
      </trkpt>
      <trkpt lat="44.09263" lon="6.93503">
        <ele>1671.14</ele>
        <time>2019-09-27T07:52:27.000Z</time>
      </trkpt>
      <trkpt lat="44.0922" lon="6.93527">
        <ele>1664.95</ele>
        <time>2019-09-27T07:52:32.000Z</time>
      </trkpt>
      <trkpt lat="44.09177" lon="6.93552">
        <ele>1663.35</ele>
        <time>2019-09-27T07:52:37.000Z</time>
      </trkpt>
      <trkpt lat="44.09153" lon="6.93577">
        <ele>1657.5</ele>
        <time>2019-09-27T07:52:42.000Z</time>
      </trkpt>
      <trkpt lat="44.09137" lon="6.93597">
        <ele>1654.55</ele>
        <time>2019-09-27T07:52:47.000Z</time>
      </trkpt>
      <trkpt lat="44.09111" lon="6.93635">
        <ele>1653.86</ele>
        <time>2019-09-27T07:52:52.000Z</time>
      </trkpt>
      <trkpt lat="44.09087" lon="6.93675">
        <ele>1654.11</ele>
        <time>2019-09-27T07:52:57.000Z</time>
      </trkpt>
      <trkpt lat="44.09051" lon="6.9372">
        <ele>1652.46</ele>
        <time>2019-09-27T07:53:02.000Z</time>
      </trkpt>
      <trkpt lat="44.09018" lon="6.93773">
        <ele>1648.04</ele>
        <time>2019-09-27T07:53:07.000Z</time>
      </trkpt>
      <trkpt lat="44.08989" lon="6.93828">
        <ele>1644.49</ele>
        <time>2019-09-27T07:53:12.000Z</time>
      </trkpt>
      <trkpt lat="44.08972" lon="6.93868">
        <ele>1642.11</ele>
        <time>2019-09-27T07:53:17.000Z</time>
      </trkpt>
      <trkpt lat="44.08953" lon="6.93914">
        <ele>1642.68</ele>
        <time>2019-09-27T07:53:22.000Z</time>
      </trkpt>
      <trkpt lat="44.08935" lon="6.93964">
        <ele>1638.23</ele>
        <time>2019-09-27T07:53:27.000Z</time>
      </trkpt>
      <trkpt lat="44.08903" lon="6.94002">
        <ele>1633.74</ele>
        <time>2019-09-27T07:53:32.000Z</time>
      </trkpt>
      <trkpt lat="44.08873" lon="6.94034">
        <ele>1627.35</ele>
        <time>2019-09-27T07:53:37.000Z</time>
      </trkpt>
      <trkpt lat="44.08859" lon="6.94072">
        <ele>1624.18</ele>
        <time>2019-09-27T07:53:42.000Z</time>
      </trkpt>
      <trkpt lat="44.08827" lon="6.94105">
        <ele>1623.8</ele>
        <time>2019-09-27T07:53:47.000Z</time>
      </trkpt>
      <trkpt lat="44.08796" lon="6.94131">
        <ele>1620.13</ele>
        <time>2019-09-27T07:53:52.000Z</time>
      </trkpt>
      <trkpt lat="44.08769" lon="6.94159">
        <ele>1621.82</ele>
        <time>2019-09-27T07:53:57.000Z</time>
      </trkpt>
      <trkpt lat="44.08758" lon="6.94168">
        <ele>1622.86</ele>
        <time>2019-09-27T07:54:02.000Z</time>
      </trkpt>
      <trkpt lat="44.08755" lon="6.94182">
        <ele>1617.66</ele>
        <time>2019-09-27T07:54:33.000Z</time>
      </trkpt>
      <trkpt lat="44.08733" lon="6.94211">
        <ele>1613.94</ele>
        <time>2019-09-27T07:54:38.000Z</time>
      </trkpt>
      <trkpt lat="44.08709" lon="6.94243">
        <ele>1611.45</ele>
        <time>2019-09-27T07:54:43.000Z</time>
      </trkpt>
      <trkpt lat="44.08689" lon="6.9429">
        <ele>1607.81</ele>
        <time>2019-09-27T07:54:48.000Z</time>
      </trkpt>
      <trkpt lat="44.08681" lon="6.94347">
        <ele>1608.84</ele>
        <time>2019-09-27T07:54:53.000Z</time>
      </trkpt>
      <trkpt lat="44.08686" lon="6.94408">
        <ele>1605.57</ele>
        <time>2019-09-27T07:54:58.000Z</time>
      </trkpt>
      <trkpt lat="44.08706" lon="6.94462">
        <ele>1602.26</ele>
        <time>2019-09-27T07:55:03.000Z</time>
      </trkpt>
      <trkpt lat="44.08725" lon="6.94522">
        <ele>1597.4</ele>
        <time>2019-09-27T07:55:08.000Z</time>
      </trkpt>
      <trkpt lat="44.08753" lon="6.94573">
        <ele>1595.2</ele>
        <time>2019-09-27T07:55:13.000Z</time>
      </trkpt>
      <trkpt lat="44.08787" lon="6.94634">
        <ele>1594.62</ele>
        <time>2019-09-27T07:55:18.000Z</time>
      </trkpt>
      <trkpt lat="44.08819" lon="6.94688">
        <ele>1590.15</ele>
        <time>2019-09-27T07:55:23.000Z</time>
      </trkpt>
      <trkpt lat="44.08842" lon="6.94757">
        <ele>1585.3</ele>
        <time>2019-09-27T07:55:28.000Z</time>
      </trkpt>
      <trkpt lat="44.08863" lon="6.94812">
        <ele>1581.76</ele>
        <time>2019-09-27T07:55:33.000Z</time>
      </trkpt>
      <trkpt lat="44.08902" lon="6.94817">
        <ele>1579.71</ele>
        <time>2019-09-27T07:55:38.000Z</time>
      </trkpt>
      <trkpt lat="44.08949" lon="6.94805">
        <ele>1574.24</ele>
        <time>2019-09-27T07:55:43.000Z</time>
      </trkpt>
      <trkpt lat="44.08991" lon="6.94821">
        <ele>1570.65</ele>
        <time>2019-09-27T07:55:48.000Z</time>
      </trkpt>
      <trkpt lat="44.08972" lon="6.94853">
        <ele>1569.71</ele>
        <time>2019-09-27T07:55:53.000Z</time>
      </trkpt>
      <trkpt lat="44.08935" lon="6.94887">
        <ele>1569.67</ele>
        <time>2019-09-27T07:55:58.000Z</time>
      </trkpt>
      <trkpt lat="44.08897" lon="6.94927">
        <ele>1567.3</ele>
        <time>2019-09-27T07:56:03.000Z</time>
      </trkpt>
      <trkpt lat="44.08864" lon="6.94984">
        <ele>1565.21</ele>
        <time>2019-09-27T07:56:08.000Z</time>
      </trkpt>
      <trkpt lat="44.08855" lon="6.95062">
        <ele>1555.87</ele>
        <time>2019-09-27T07:56:13.000Z</time>
      </trkpt>
      <trkpt lat="44.08855" lon="6.95133">
        <ele>1546.42</ele>
        <time>2019-09-27T07:56:18.000Z</time>
      </trkpt>
      <trkpt lat="44.08874" lon="6.95171">
        <ele>1542.86</ele>
        <time>2019-09-27T07:56:23.000Z</time>
      </trkpt>
      <trkpt lat="44.08925" lon="6.95171">
        <ele>1538.93</ele>
        <time>2019-09-27T07:56:28.000Z</time>
      </trkpt>
      <trkpt lat="44.08968" lon="6.95208">
        <ele>1529.74</ele>
        <time>2019-09-27T07:56:33.000Z</time>
      </trkpt>
      <trkpt lat="44.08962" lon="6.95239">
        <ele>1531.36</ele>
        <time>2019-09-27T07:56:38.000Z</time>
      </trkpt>
      <trkpt lat="44.0892" lon="6.95241">
        <ele>1531.55</ele>
        <time>2019-09-27T07:56:43.000Z</time>
      </trkpt>
      <trkpt lat="44.08878" lon="6.95246">
        <ele>1527.26</ele>
        <time>2019-09-27T07:56:48.000Z</time>
      </trkpt>
      <trkpt lat="44.08848" lon="6.95282">
        <ele>1529.95</ele>
        <time>2019-09-27T07:56:53.000Z</time>
      </trkpt>
      <trkpt lat="44.08823" lon="6.95328">
        <ele>1527.35</ele>
        <time>2019-09-27T07:56:58.000Z</time>
      </trkpt>
      <trkpt lat="44.08795" lon="6.95367">
        <ele>1527.02</ele>
        <time>2019-09-27T07:57:03.000Z</time>
      </trkpt>
      <trkpt lat="44.08769" lon="6.95408">
        <ele>1525.82</ele>
        <time>2019-09-27T07:57:08.000Z</time>
      </trkpt>
      <trkpt lat="44.08742" lon="6.95442">
        <ele>1524.89</ele>
        <time>2019-09-27T07:57:13.000Z</time>
      </trkpt>
      <trkpt lat="44.08714" lon="6.95468">
        <ele>1523.83</ele>
        <time>2019-09-27T07:57:18.000Z</time>
      </trkpt>
      <trkpt lat="44.08693" lon="6.95502">
        <ele>1522.67</ele>
        <time>2019-09-27T07:57:23.000Z</time>
      </trkpt>
      <trkpt lat="44.08669" lon="6.95531">
        <ele>1523.91</ele>
        <time>2019-09-27T07:57:28.000Z</time>
      </trkpt>
      <trkpt lat="44.08643" lon="6.95555">
        <ele>1525.48</ele>
        <time>2019-09-27T07:57:33.000Z</time>
      </trkpt>
      <trkpt lat="44.08619" lon="6.95584">
        <ele>1521.88</ele>
        <time>2019-09-27T07:57:38.000Z</time>
      </trkpt>
      <trkpt lat="44.08601" lon="6.95619">
        <ele>1518.71</ele>
        <time>2019-09-27T07:57:43.000Z</time>
      </trkpt>
      <trkpt lat="44.08588" lon="6.95657">
        <ele>1517.81</ele>
        <time>2019-09-27T07:57:48.000Z</time>
      </trkpt>
      <trkpt lat="44.08585" lon="6.95691">
        <ele>1515.9</ele>
        <time>2019-09-27T07:57:53.000Z</time>
      </trkpt>
      <trkpt lat="44.08589" lon="6.95729">
        <ele>1520.48</ele>
        <time>2019-09-27T07:57:58.000Z</time>
      </trkpt>
      <trkpt lat="44.08593" lon="6.95767">
        <ele>1523.75</ele>
        <time>2019-09-27T07:58:03.000Z</time>
      </trkpt>
      <trkpt lat="44.08594" lon="6.95809">
        <ele>1525.28</ele>
        <time>2019-09-27T07:58:08.000Z</time>
      </trkpt>
      <trkpt lat="44.08591" lon="6.95847">
        <ele>1528.42</ele>
        <time>2019-09-27T07:58:13.000Z</time>
      </trkpt>
      <trkpt lat="44.08587" lon="6.95887">
        <ele>1530.96</ele>
        <time>2019-09-27T07:58:18.000Z</time>
      </trkpt>
      <trkpt lat="44.08589" lon="6.95928">
        <ele>1528.82</ele>
        <time>2019-09-27T07:58:23.000Z</time>
      </trkpt>
      <trkpt lat="44.08595" lon="6.95968">
        <ele>1527.87</ele>
        <time>2019-09-27T07:58:28.000Z</time>
      </trkpt>
      <trkpt lat="44.08602" lon="6.9601">
        <ele>1525.65</ele>
        <time>2019-09-27T07:58:33.000Z</time>
      </trkpt>
      <trkpt lat="44.0861" lon="6.96046">
        <ele>1527.57</ele>
        <time>2019-09-27T07:58:38.000Z</time>
      </trkpt>
      <trkpt lat="44.08615" lon="6.96077">
        <ele>1530.22</ele>
        <time>2019-09-27T07:58:43.000Z</time>
      </trkpt>
      <trkpt lat="44.08623" lon="6.9611">
        <ele>1532.94</ele>
        <time>2019-09-27T07:58:48.000Z</time>
      </trkpt>
      <trkpt lat="44.0863" lon="6.96148">
        <ele>1533.35</ele>
        <time>2019-09-27T07:58:53.000Z</time>
      </trkpt>
      <trkpt lat="44.08633" lon="6.96185">
        <ele>1531.72</ele>
        <time>2019-09-27T07:58:58.000Z</time>
      </trkpt>
      <trkpt lat="44.08628" lon="6.96221">
        <ele>1536.46</ele>
        <time>2019-09-27T07:59:03.000Z</time>
      </trkpt>
      <trkpt lat="44.08627" lon="6.96258">
        <ele>1536.61</ele>
        <time>2019-09-27T07:59:08.000Z</time>
      </trkpt>
      <trkpt lat="44.0864" lon="6.96288">
        <ele>1536.69</ele>
        <time>2019-09-27T07:59:13.000Z</time>
      </trkpt>
      <trkpt lat="44.08659" lon="6.96317">
        <ele>1537.8</ele>
        <time>2019-09-27T07:59:18.000Z</time>
      </trkpt>
      <trkpt lat="44.08675" lon="6.96344">
        <ele>1538.96</ele>
        <time>2019-09-27T07:59:23.000Z</time>
      </trkpt>
      <trkpt lat="44.08701" lon="6.9636">
        <ele>1536.54</ele>
        <time>2019-09-27T07:59:28.000Z</time>
      </trkpt>
      <trkpt lat="44.08728" lon="6.96351">
        <ele>1538.15</ele>
        <time>2019-09-27T07:59:33.000Z</time>
      </trkpt>
      <trkpt lat="44.08754" lon="6.96335">
        <ele>1540.48</ele>
        <time>2019-09-27T07:59:38.000Z</time>
      </trkpt>
      <trkpt lat="44.08779" lon="6.96346">
        <ele>1540.7</ele>
        <time>2019-09-27T07:59:43.000Z</time>
      </trkpt>
      <trkpt lat="44.08803" lon="6.96365">
        <ele>1539.81</ele>
        <time>2019-09-27T07:59:48.000Z</time>
      </trkpt>
      <trkpt lat="44.08828" lon="6.96389">
        <ele>1540.59</ele>
        <time>2019-09-27T07:59:53.000Z</time>
      </trkpt>
      <trkpt lat="44.08849" lon="6.96411">
        <ele>1539.85</ele>
        <time>2019-09-27T07:59:58.000Z</time>
      </trkpt>
      <trkpt lat="44.08868" lon="6.96416">
        <ele>1540.56</ele>
        <time>2019-09-27T08:00:03.000Z</time>
      </trkpt>
      <trkpt lat="44.08892" lon="6.96421">
        <ele>1542.75</ele>
        <time>2019-09-27T08:00:08.000Z</time>
      </trkpt>
      <trkpt lat="44.08929" lon="6.96427">
        <ele>1542.02</ele>
        <time>2019-09-27T08:00:13.000Z</time>
      </trkpt>
      <trkpt lat="44.08956" lon="6.96435">
        <ele>1543.43</ele>
        <time>2019-09-27T08:00:18.000Z</time>
      </trkpt>
      <trkpt lat="44.08969" lon="6.96466">
        <ele>1542.74</ele>
        <time>2019-09-27T08:00:23.000Z</time>
      </trkpt>
      <trkpt lat="44.08981" lon="6.96496">
        <ele>1549.69</ele>
        <time>2019-09-27T08:00:28.000Z</time>
      </trkpt>
      <trkpt lat="44.08993" lon="6.96529">
        <ele>1554.12</ele>
        <time>2019-09-27T08:00:33.000Z</time>
      </trkpt>
      <trkpt lat="44.09004" lon="6.96562">
        <ele>1549.97</ele>
        <time>2019-09-27T08:00:38.000Z</time>
      </trkpt>
      <trkpt lat="44.09018" lon="6.96595">
        <ele>1551.27</ele>
        <time>2019-09-27T08:00:43.000Z</time>
      </trkpt>
      <trkpt lat="44.09031" lon="6.96624">
        <ele>1549.8</ele>
        <time>2019-09-27T08:00:48.000Z</time>
      </trkpt>
      <trkpt lat="44.09046" lon="6.9666">
        <ele>1551.07</ele>
        <time>2019-09-27T08:00:53.000Z</time>
      </trkpt>
      <trkpt lat="44.09061" lon="6.96695">
        <ele>1552.45</ele>
        <time>2019-09-27T08:00:58.000Z</time>
      </trkpt>
      <trkpt lat="44.09074" lon="6.96734">
        <ele>1553.93</ele>
        <time>2019-09-27T08:01:03.000Z</time>
      </trkpt>
      <trkpt lat="44.09085" lon="6.96779">
        <ele>1552.02</ele>
        <time>2019-09-27T08:01:08.000Z</time>
      </trkpt>
      <trkpt lat="44.09094" lon="6.96817">
        <ele>1550.37</ele>
        <time>2019-09-27T08:01:13.000Z</time>
      </trkpt>
      <trkpt lat="44.091" lon="6.96857">
        <ele>1550.01</ele>
        <time>2019-09-27T08:01:18.000Z</time>
      </trkpt>
      <trkpt lat="44.09102" lon="6.96902">
        <ele>1550.55</ele>
        <time>2019-09-27T08:01:23.000Z</time>
      </trkpt>
      <trkpt lat="44.09096" lon="6.96939">
        <ele>1552.86</ele>
        <time>2019-09-27T08:01:28.000Z</time>
      </trkpt>
      <trkpt lat="44.09083" lon="6.96974">
        <ele>1554.09</ele>
        <time>2019-09-27T08:01:33.000Z</time>
      </trkpt>
      <trkpt lat="44.09077" lon="6.97011">
        <ele>1555.61</ele>
        <time>2019-09-27T08:01:38.000Z</time>
      </trkpt>
      <trkpt lat="44.09085" lon="6.97044">
        <ele>1553.37</ele>
        <time>2019-09-27T08:01:43.000Z</time>
      </trkpt>
      <trkpt lat="44.09093" lon="6.9708">
        <ele>1553.3</ele>
        <time>2019-09-27T08:01:48.000Z</time>
      </trkpt>
      <trkpt lat="44.09106" lon="6.9712">
        <ele>1550.48</ele>
        <time>2019-09-27T08:01:53.000Z</time>
      </trkpt>
      <trkpt lat="44.09127" lon="6.97158">
        <ele>1545.77</ele>
        <time>2019-09-27T08:01:58.000Z</time>
      </trkpt>
      <trkpt lat="44.09156" lon="6.97198">
        <ele>1543.26</ele>
        <time>2019-09-27T08:02:03.000Z</time>
      </trkpt>
      <trkpt lat="44.09189" lon="6.97236">
        <ele>1539.38</ele>
        <time>2019-09-27T08:02:08.000Z</time>
      </trkpt>
      <trkpt lat="44.09232" lon="6.97271">
        <ele>1538.01</ele>
        <time>2019-09-27T08:02:13.000Z</time>
      </trkpt>
      <trkpt lat="44.09277" lon="6.97291">
        <ele>1536.12</ele>
        <time>2019-09-27T08:02:18.000Z</time>
      </trkpt>
      <trkpt lat="44.09315" lon="6.97337">
        <ele>1531.4</ele>
        <time>2019-09-27T08:02:23.000Z</time>
      </trkpt>
      <trkpt lat="44.09348" lon="6.97382">
        <ele>1526</ele>
        <time>2019-09-27T08:02:28.000Z</time>
      </trkpt>
      <trkpt lat="44.09387" lon="6.97402">
        <ele>1525.79</ele>
        <time>2019-09-27T08:02:33.000Z</time>
      </trkpt>
      <trkpt lat="44.09429" lon="6.97377">
        <ele>1519.49</ele>
        <time>2019-09-27T08:02:38.000Z</time>
      </trkpt>
      <trkpt lat="44.09456" lon="6.97416">
        <ele>1515.29</ele>
        <time>2019-09-27T08:02:43.000Z</time>
      </trkpt>
      <trkpt lat="44.09457" lon="6.9748">
        <ele>1506.4</ele>
        <time>2019-09-27T08:02:48.000Z</time>
      </trkpt>
      <trkpt lat="44.09466" lon="6.97546">
        <ele>1504.25</ele>
        <time>2019-09-27T08:02:53.000Z</time>
      </trkpt>
      <trkpt lat="44.09493" lon="6.9761">
        <ele>1501.1</ele>
        <time>2019-09-27T08:02:58.000Z</time>
      </trkpt>
      <trkpt lat="44.09514" lon="6.9768">
        <ele>1498.1</ele>
        <time>2019-09-27T08:03:03.000Z</time>
      </trkpt>
      <trkpt lat="44.09537" lon="6.97752">
        <ele>1493.73</ele>
        <time>2019-09-27T08:03:08.000Z</time>
      </trkpt>
      <trkpt lat="44.09567" lon="6.97813">
        <ele>1490.23</ele>
        <time>2019-09-27T08:03:13.000Z</time>
      </trkpt>
      <trkpt lat="44.09599" lon="6.97876">
        <ele>1486.6</ele>
        <time>2019-09-27T08:03:18.000Z</time>
      </trkpt>
      <trkpt lat="44.09614" lon="6.97941">
        <ele>1483.78</ele>
        <time>2019-09-27T08:03:23.000Z</time>
      </trkpt>
      <trkpt lat="44.09611" lon="6.98011">
        <ele>1481.83</ele>
        <time>2019-09-27T08:03:28.000Z</time>
      </trkpt>
      <trkpt lat="44.09618" lon="6.98089">
        <ele>1478.21</ele>
        <time>2019-09-27T08:03:33.000Z</time>
      </trkpt>
      <trkpt lat="44.09643" lon="6.9815">
        <ele>1472.93</ele>
        <time>2019-09-27T08:03:38.000Z</time>
      </trkpt>
      <trkpt lat="44.09679" lon="6.9819">
        <ele>1470.57</ele>
        <time>2019-09-27T08:03:43.000Z</time>
      </trkpt>
      <trkpt lat="44.09684" lon="6.98238">
        <ele>1463.79</ele>
        <time>2019-09-27T08:03:48.000Z</time>
      </trkpt>
      <trkpt lat="44.09683" lon="6.98295">
        <ele>1459.61</ele>
        <time>2019-09-27T08:03:53.000Z</time>
      </trkpt>
      <trkpt lat="44.09673" lon="6.98356">
        <ele>1457.99</ele>
        <time>2019-09-27T08:03:58.000Z</time>
      </trkpt>
      <trkpt lat="44.09663" lon="6.9841">
        <ele>1452.02</ele>
        <time>2019-09-27T08:04:03.000Z</time>
      </trkpt>
      <trkpt lat="44.09664" lon="6.98471">
        <ele>1446.11</ele>
        <time>2019-09-27T08:04:08.000Z</time>
      </trkpt>
      <trkpt lat="44.09672" lon="6.98528">
        <ele>1442.24</ele>
        <time>2019-09-27T08:04:13.000Z</time>
      </trkpt>
      <trkpt lat="44.09667" lon="6.98576">
        <ele>1440.02</ele>
        <time>2019-09-27T08:04:18.000Z</time>
      </trkpt>
      <trkpt lat="44.09638" lon="6.98604">
        <ele>1439.13</ele>
        <time>2019-09-27T08:04:23.000Z</time>
      </trkpt>
      <trkpt lat="44.09616" lon="6.98629">
        <ele>1437.53</ele>
        <time>2019-09-27T08:04:28.000Z</time>
      </trkpt>
      <trkpt lat="44.09629" lon="6.9865">
        <ele>1435.74</ele>
        <time>2019-09-27T08:04:33.000Z</time>
      </trkpt>
      <trkpt lat="44.09655" lon="6.98664">
        <ele>1434.46</ele>
        <time>2019-09-27T08:04:38.000Z</time>
      </trkpt>
      <trkpt lat="44.09687" lon="6.98683">
        <ele>1428.56</ele>
        <time>2019-09-27T08:04:43.000Z</time>
      </trkpt>
      <trkpt lat="44.09719" lon="6.98693">
        <ele>1428.89</ele>
        <time>2019-09-27T08:04:48.000Z</time>
      </trkpt>
      <trkpt lat="44.09758" lon="6.98697">
        <ele>1429.27</ele>
        <time>2019-09-27T08:04:53.000Z</time>
      </trkpt>
      <trkpt lat="44.09797" lon="6.9871">
        <ele>1427.13</ele>
        <time>2019-09-27T08:04:58.000Z</time>
      </trkpt>
      <trkpt lat="44.09835" lon="6.98716">
        <ele>1428.91</ele>
        <time>2019-09-27T08:05:03.000Z</time>
      </trkpt>
      <trkpt lat="44.09879" lon="6.98715">
        <ele>1425.37</ele>
        <time>2019-09-27T08:05:08.000Z</time>
      </trkpt>
      <trkpt lat="44.09922" lon="6.98714">
        <ele>1422.39</ele>
        <time>2019-09-27T08:05:13.000Z</time>
      </trkpt>
      <trkpt lat="44.09965" lon="6.98721">
        <ele>1419.08</ele>
        <time>2019-09-27T08:05:18.000Z</time>
      </trkpt>
      <trkpt lat="44.10006" lon="6.98731">
        <ele>1419.75</ele>
        <time>2019-09-27T08:05:23.000Z</time>
      </trkpt>
      <trkpt lat="44.10048" lon="6.9873">
        <ele>1417.35</ele>
        <time>2019-09-27T08:05:28.000Z</time>
      </trkpt>
      <trkpt lat="44.10088" lon="6.98717">
        <ele>1416.76</ele>
        <time>2019-09-27T08:05:33.000Z</time>
      </trkpt>
      <trkpt lat="44.10119" lon="6.98695">
        <ele>1413.31</ele>
        <time>2019-09-27T08:05:38.000Z</time>
      </trkpt>
      <trkpt lat="44.10145" lon="6.98681">
        <ele>1408.12</ele>
        <time>2019-09-27T08:05:43.000Z</time>
      </trkpt>
      <trkpt lat="44.10172" lon="6.98671">
        <ele>1408.52</ele>
        <time>2019-09-27T08:05:48.000Z</time>
      </trkpt>
      <trkpt lat="44.10195" lon="6.98665">
        <ele>1407.36</ele>
        <time>2019-09-27T08:05:53.000Z</time>
      </trkpt>
      <trkpt lat="44.10222" lon="6.98654">
        <ele>1406.65</ele>
        <time>2019-09-27T08:05:58.000Z</time>
      </trkpt>
      <trkpt lat="44.10244" lon="6.98652">
        <ele>1409.7</ele>
        <time>2019-09-27T08:06:03.000Z</time>
      </trkpt>
      <trkpt lat="44.10267" lon="6.98646">
        <ele>1408.51</ele>
        <time>2019-09-27T08:06:08.000Z</time>
      </trkpt>
      <trkpt lat="44.10288" lon="6.98644">
        <ele>1410.35</ele>
        <time>2019-09-27T08:06:13.000Z</time>
      </trkpt>
      <trkpt lat="44.1031" lon="6.98646">
        <ele>1413.36</ele>
        <time>2019-09-27T08:06:18.000Z</time>
      </trkpt>
      <trkpt lat="44.1033" lon="6.98642">
        <ele>1413.25</ele>
        <time>2019-09-27T08:06:23.000Z</time>
      </trkpt>
      <trkpt lat="44.10349" lon="6.98643">
        <ele>1417.31</ele>
        <time>2019-09-27T08:06:28.000Z</time>
      </trkpt>
      <trkpt lat="44.10366" lon="6.98642">
        <ele>1418.94</ele>
        <time>2019-09-27T08:06:33.000Z</time>
      </trkpt>
      <trkpt lat="44.10386" lon="6.98645">
        <ele>1418.44</ele>
        <time>2019-09-27T08:06:38.000Z</time>
      </trkpt>
      <trkpt lat="44.10409" lon="6.98652">
        <ele>1415.52</ele>
        <time>2019-09-27T08:06:43.000Z</time>
      </trkpt>
      <trkpt lat="44.10425" lon="6.98652">
        <ele>1417.66</ele>
        <time>2019-09-27T08:06:48.000Z</time>
      </trkpt>
      <trkpt lat="44.10445" lon="6.98661">
        <ele>1418.55</ele>
        <time>2019-09-27T08:06:53.000Z</time>
      </trkpt>
      <trkpt lat="44.10463" lon="6.98666">
        <ele>1420.08</ele>
        <time>2019-09-27T08:06:58.000Z</time>
      </trkpt>
      <trkpt lat="44.1048" lon="6.98674">
        <ele>1420.46</ele>
        <time>2019-09-27T08:07:03.000Z</time>
      </trkpt>
      <trkpt lat="44.10498" lon="6.98686">
        <ele>1421.48</ele>
        <time>2019-09-27T08:07:08.000Z</time>
      </trkpt>
      <trkpt lat="44.10506" lon="6.9871">
        <ele>1423.36</ele>
        <time>2019-09-27T08:07:13.000Z</time>
      </trkpt>
      <trkpt lat="44.10502" lon="6.98741">
        <ele>1425.93</ele>
        <time>2019-09-27T08:07:18.000Z</time>
      </trkpt>
      <trkpt lat="44.10485" lon="6.98765">
        <ele>1429.08</ele>
        <time>2019-09-27T08:07:23.000Z</time>
      </trkpt>
      <trkpt lat="44.10461" lon="6.98774">
        <ele>1434.66</ele>
        <time>2019-09-27T08:07:28.000Z</time>
      </trkpt>
      <trkpt lat="44.10438" lon="6.98779">
        <ele>1431.86</ele>
        <time>2019-09-27T08:07:33.000Z</time>
      </trkpt>
      <trkpt lat="44.10418" lon="6.98781">
        <ele>1432.66</ele>
        <time>2019-09-27T08:07:38.000Z</time>
      </trkpt>
      <trkpt lat="44.10399" lon="6.98789">
        <ele>1437.25</ele>
        <time>2019-09-27T08:07:43.000Z</time>
      </trkpt>
      <trkpt lat="44.10382" lon="6.988">
        <ele>1437.46</ele>
        <time>2019-09-27T08:07:48.000Z</time>
      </trkpt>
      <trkpt lat="44.10369" lon="6.98813">
        <ele>1439.66</ele>
        <time>2019-09-27T08:07:53.000Z</time>
      </trkpt>
      <trkpt lat="44.10359" lon="6.98831">
        <ele>1438.05</ele>
        <time>2019-09-27T08:07:58.000Z</time>
      </trkpt>
      <trkpt lat="44.10351" lon="6.9884">
        <ele>1451.91</ele>
        <time>2019-09-27T08:11:39.000Z</time>
      </trkpt>
      <trkpt lat="44.10343" lon="6.98855">
        <ele>1451.36</ele>
        <time>2019-09-27T08:11:44.000Z</time>
      </trkpt>
      <trkpt lat="44.10337" lon="6.98874">
        <ele>1450.69</ele>
        <time>2019-09-27T08:11:49.000Z</time>
      </trkpt>
      <trkpt lat="44.1033" lon="6.98891">
        <ele>1452.02</ele>
        <time>2019-09-27T08:11:54.000Z</time>
      </trkpt>
      <trkpt lat="44.10325" lon="6.98907">
        <ele>1450.68</ele>
        <time>2019-09-27T08:11:59.000Z</time>
      </trkpt>
      <trkpt lat="44.10316" lon="6.98926">
        <ele>1452.93</ele>
        <time>2019-09-27T08:12:04.000Z</time>
      </trkpt>
      <trkpt lat="44.10308" lon="6.98946">
        <ele>1453.5</ele>
        <time>2019-09-27T08:12:09.000Z</time>
      </trkpt>
      <trkpt lat="44.103" lon="6.98963">
        <ele>1453.52</ele>
        <time>2019-09-27T08:12:14.000Z</time>
      </trkpt>
      <trkpt lat="44.10292" lon="6.98979">
        <ele>1454.36</ele>
        <time>2019-09-27T08:12:19.000Z</time>
      </trkpt>
      <trkpt lat="44.10284" lon="6.98996">
        <ele>1455.93</ele>
        <time>2019-09-27T08:12:24.000Z</time>
      </trkpt>
      <trkpt lat="44.10276" lon="6.99012">
        <ele>1454.71</ele>
        <time>2019-09-27T08:12:29.000Z</time>
      </trkpt>
      <trkpt lat="44.10268" lon="6.99029">
        <ele>1453.23</ele>
        <time>2019-09-27T08:12:34.000Z</time>
      </trkpt>
      <trkpt lat="44.10258" lon="6.99046">
        <ele>1450.01</ele>
        <time>2019-09-27T08:12:39.000Z</time>
      </trkpt>
      <trkpt lat="44.10247" lon="6.99061">
        <ele>1449.3</ele>
        <time>2019-09-27T08:12:44.000Z</time>
      </trkpt>
      <trkpt lat="44.10239" lon="6.99079">
        <ele>1451.44</ele>
        <time>2019-09-27T08:12:49.000Z</time>
      </trkpt>
      <trkpt lat="44.1023" lon="6.99095">
        <ele>1455.12</ele>
        <time>2019-09-27T08:12:54.000Z</time>
      </trkpt>
      <trkpt lat="44.1022" lon="6.99114">
        <ele>1459.39</ele>
        <time>2019-09-27T08:12:59.000Z</time>
      </trkpt>
      <trkpt lat="44.1021" lon="6.99133">
        <ele>1459.69</ele>
        <time>2019-09-27T08:13:04.000Z</time>
      </trkpt>
      <trkpt lat="44.102" lon="6.9915">
        <ele>1462.06</ele>
        <time>2019-09-27T08:13:09.000Z</time>
      </trkpt>
      <trkpt lat="44.10193" lon="6.99163">
        <ele>1465.55</ele>
        <time>2019-09-27T08:13:14.000Z</time>
      </trkpt>
      <trkpt lat="44.10181" lon="6.99177">
        <ele>1465.68</ele>
        <time>2019-09-27T08:13:19.000Z</time>
      </trkpt>
      <trkpt lat="44.1017" lon="6.99192">
        <ele>1465.9</ele>
        <time>2019-09-27T08:13:24.000Z</time>
      </trkpt>
      <trkpt lat="44.10156" lon="6.99207">
        <ele>1468.9</ele>
        <time>2019-09-27T08:13:29.000Z</time>
      </trkpt>
      <trkpt lat="44.10141" lon="6.99217">
        <ele>1470.39</ele>
        <time>2019-09-27T08:13:34.000Z</time>
      </trkpt>
      <trkpt lat="44.10128" lon="6.99227">
        <ele>1471.01</ele>
        <time>2019-09-27T08:13:39.000Z</time>
      </trkpt>
      <trkpt lat="44.10115" lon="6.99236">
        <ele>1471.06</ele>
        <time>2019-09-27T08:13:44.000Z</time>
      </trkpt>
      <trkpt lat="44.10101" lon="6.99245">
        <ele>1474.19</ele>
        <time>2019-09-27T08:13:49.000Z</time>
      </trkpt>
      <trkpt lat="44.10088" lon="6.99259">
        <ele>1477.26</ele>
        <time>2019-09-27T08:13:54.000Z</time>
      </trkpt>
      <trkpt lat="44.10081" lon="6.99282">
        <ele>1478.85</ele>
        <time>2019-09-27T08:13:59.000Z</time>
      </trkpt>
      <trkpt lat="44.10082" lon="6.9931">
        <ele>1478.14</ele>
        <time>2019-09-27T08:14:04.000Z</time>
      </trkpt>
      <trkpt lat="44.10093" lon="6.99334">
        <ele>1479.84</ele>
        <time>2019-09-27T08:14:09.000Z</time>
      </trkpt>
      <trkpt lat="44.10114" lon="6.99342">
        <ele>1477.95</ele>
        <time>2019-09-27T08:14:14.000Z</time>
      </trkpt>
      <trkpt lat="44.10133" lon="6.99331">
        <ele>1479.58</ele>
        <time>2019-09-27T08:14:19.000Z</time>
      </trkpt>
      <trkpt lat="44.1015" lon="6.99314">
        <ele>1480.51</ele>
        <time>2019-09-27T08:14:24.000Z</time>
      </trkpt>
      <trkpt lat="44.10171" lon="6.99314">
        <ele>1480.99</ele>
        <time>2019-09-27T08:14:29.000Z</time>
      </trkpt>
      <trkpt lat="44.10189" lon="6.99335">
        <ele>1481.95</ele>
        <time>2019-09-27T08:14:34.000Z</time>
      </trkpt>
      <trkpt lat="44.10198" lon="6.99362">
        <ele>1481.55</ele>
        <time>2019-09-27T08:14:39.000Z</time>
      </trkpt>
      <trkpt lat="44.102" lon="6.99388">
        <ele>1483.41</ele>
        <time>2019-09-27T08:14:44.000Z</time>
      </trkpt>
      <trkpt lat="44.10201" lon="6.9941">
        <ele>1484.44</ele>
        <time>2019-09-27T08:14:49.000Z</time>
      </trkpt>
      <trkpt lat="44.10199" lon="6.99429">
        <ele>1483.92</ele>
        <time>2019-09-27T08:14:54.000Z</time>
      </trkpt>
      <trkpt lat="44.10198" lon="6.9945">
        <ele>1485.64</ele>
        <time>2019-09-27T08:14:59.000Z</time>
      </trkpt>
      <trkpt lat="44.10199" lon="6.99471">
        <ele>1486.47</ele>
        <time>2019-09-27T08:15:04.000Z</time>
      </trkpt>
      <trkpt lat="44.10207" lon="6.99488">
        <ele>1489.25</ele>
        <time>2019-09-27T08:15:09.000Z</time>
      </trkpt>
      <trkpt lat="44.10217" lon="6.99504">
        <ele>1490.41</ele>
        <time>2019-09-27T08:15:14.000Z</time>
      </trkpt>
      <trkpt lat="44.10225" lon="6.9952">
        <ele>1492.35</ele>
        <time>2019-09-27T08:15:19.000Z</time>
      </trkpt>
      <trkpt lat="44.10233" lon="6.99535">
        <ele>1494.48</ele>
        <time>2019-09-27T08:15:24.000Z</time>
      </trkpt>
      <trkpt lat="44.10242" lon="6.99552">
        <ele>1493.43</ele>
        <time>2019-09-27T08:15:29.000Z</time>
      </trkpt>
      <trkpt lat="44.10251" lon="6.99565">
        <ele>1493.75</ele>
        <time>2019-09-27T08:15:34.000Z</time>
      </trkpt>
      <trkpt lat="44.10257" lon="6.99584">
        <ele>1494.14</ele>
        <time>2019-09-27T08:15:39.000Z</time>
      </trkpt>
      <trkpt lat="44.1026" lon="6.99605">
        <ele>1495.61</ele>
        <time>2019-09-27T08:15:44.000Z</time>
      </trkpt>
      <trkpt lat="44.10248" lon="6.99622">
        <ele>1498.43</ele>
        <time>2019-09-27T08:15:49.000Z</time>
      </trkpt>
      <trkpt lat="44.10232" lon="6.99628">
        <ele>1501.79</ele>
        <time>2019-09-27T08:15:54.000Z</time>
      </trkpt>
      <trkpt lat="44.10222" lon="6.99634">
        <ele>1500.59</ele>
        <time>2019-09-27T08:15:59.000Z</time>
      </trkpt>
      <trkpt lat="44.10206" lon="6.99639">
        <ele>1501.95</ele>
        <time>2019-09-27T08:16:04.000Z</time>
      </trkpt>
      <trkpt lat="44.1019" lon="6.99637">
        <ele>1503.82</ele>
        <time>2019-09-27T08:16:09.000Z</time>
      </trkpt>
      <trkpt lat="44.10171" lon="6.99635">
        <ele>1503.19</ele>
        <time>2019-09-27T08:16:14.000Z</time>
      </trkpt>
      <trkpt lat="44.10154" lon="6.99635">
        <ele>1503.05</ele>
        <time>2019-09-27T08:16:19.000Z</time>
      </trkpt>
      <trkpt lat="44.10139" lon="6.99635">
        <ele>1503.15</ele>
        <time>2019-09-27T08:16:24.000Z</time>
      </trkpt>
      <trkpt lat="44.10123" lon="6.99633">
        <ele>1506.63</ele>
        <time>2019-09-27T08:16:29.000Z</time>
      </trkpt>
      <trkpt lat="44.10111" lon="6.99628">
        <ele>1505.89</ele>
        <time>2019-09-27T08:16:34.000Z</time>
      </trkpt>
      <trkpt lat="44.10097" lon="6.99621">
        <ele>1505.53</ele>
        <time>2019-09-27T08:16:39.000Z</time>
      </trkpt>
      <trkpt lat="44.10081" lon="6.9961">
        <ele>1503.31</ele>
        <time>2019-09-27T08:16:44.000Z</time>
      </trkpt>
      <trkpt lat="44.10067" lon="6.99601">
        <ele>1506.11</ele>
        <time>2019-09-27T08:16:49.000Z</time>
      </trkpt>
      <trkpt lat="44.1005" lon="6.99588">
        <ele>1506.7</ele>
        <time>2019-09-27T08:16:54.000Z</time>
      </trkpt>
      <trkpt lat="44.10034" lon="6.99578">
        <ele>1505.93</ele>
        <time>2019-09-27T08:16:59.000Z</time>
      </trkpt>
      <trkpt lat="44.10015" lon="6.9957">
        <ele>1508.74</ele>
        <time>2019-09-27T08:17:04.000Z</time>
      </trkpt>
      <trkpt lat="44.09997" lon="6.99568">
        <ele>1512.74</ele>
        <time>2019-09-27T08:17:09.000Z</time>
      </trkpt>
      <trkpt lat="44.09983" lon="6.99565">
        <ele>1514.55</ele>
        <time>2019-09-27T08:17:14.000Z</time>
      </trkpt>
      <trkpt lat="44.09966" lon="6.99557">
        <ele>1519.98</ele>
        <time>2019-09-27T08:17:19.000Z</time>
      </trkpt>
      <trkpt lat="44.09952" lon="6.9955">
        <ele>1521.42</ele>
        <time>2019-09-27T08:17:24.000Z</time>
      </trkpt>
      <trkpt lat="44.0994" lon="6.99543">
        <ele>1526.09</ele>
        <time>2019-09-27T08:17:29.000Z</time>
      </trkpt>
      <trkpt lat="44.09927" lon="6.99538">
        <ele>1525.47</ele>
        <time>2019-09-27T08:17:34.000Z</time>
      </trkpt>
      <trkpt lat="44.09909" lon="6.99535">
        <ele>1527.29</ele>
        <time>2019-09-27T08:17:39.000Z</time>
      </trkpt>
      <trkpt lat="44.09896" lon="6.99532">
        <ele>1528.62</ele>
        <time>2019-09-27T08:17:44.000Z</time>
      </trkpt>
      <trkpt lat="44.09883" lon="6.99536">
        <ele>1528.44</ele>
        <time>2019-09-27T08:17:49.000Z</time>
      </trkpt>
      <trkpt lat="44.09867" lon="6.99545">
        <ele>1531.51</ele>
        <time>2019-09-27T08:17:54.000Z</time>
      </trkpt>
      <trkpt lat="44.09856" lon="6.9956">
        <ele>1532.9</ele>
        <time>2019-09-27T08:17:59.000Z</time>
      </trkpt>
      <trkpt lat="44.09848" lon="6.99578">
        <ele>1532.85</ele>
        <time>2019-09-27T08:18:04.000Z</time>
      </trkpt>
      <trkpt lat="44.09842" lon="6.99593">
        <ele>1533.46</ele>
        <time>2019-09-27T08:18:09.000Z</time>
      </trkpt>
      <trkpt lat="44.09828" lon="6.99604">
        <ele>1533.72</ele>
        <time>2019-09-27T08:18:14.000Z</time>
      </trkpt>
      <trkpt lat="44.09813" lon="6.99608">
        <ele>1535.62</ele>
        <time>2019-09-27T08:18:19.000Z</time>
      </trkpt>
      <trkpt lat="44.09799" lon="6.99616">
        <ele>1536.57</ele>
        <time>2019-09-27T08:18:24.000Z</time>
      </trkpt>
      <trkpt lat="44.09786" lon="6.99625">
        <ele>1539</ele>
        <time>2019-09-27T08:18:29.000Z</time>
      </trkpt>
      <trkpt lat="44.09772" lon="6.99637">
        <ele>1541.04</ele>
        <time>2019-09-27T08:18:34.000Z</time>
      </trkpt>
      <trkpt lat="44.09764" lon="6.99652">
        <ele>1542.71</ele>
        <time>2019-09-27T08:18:39.000Z</time>
      </trkpt>
      <trkpt lat="44.09757" lon="6.99671">
        <ele>1547.64</ele>
        <time>2019-09-27T08:18:44.000Z</time>
      </trkpt>
      <trkpt lat="44.09755" lon="6.9969">
        <ele>1551.88</ele>
        <time>2019-09-27T08:18:49.000Z</time>
      </trkpt>
      <trkpt lat="44.09763" lon="6.99708">
        <ele>1556.56</ele>
        <time>2019-09-27T08:18:54.000Z</time>
      </trkpt>
      <trkpt lat="44.09771" lon="6.99725">
        <ele>1557.74</ele>
        <time>2019-09-27T08:18:59.000Z</time>
      </trkpt>
      <trkpt lat="44.09781" lon="6.99739">
        <ele>1558.61</ele>
        <time>2019-09-27T08:19:04.000Z</time>
      </trkpt>
      <trkpt lat="44.09795" lon="6.99747">
        <ele>1557.07</ele>
        <time>2019-09-27T08:19:09.000Z</time>
      </trkpt>
      <trkpt lat="44.09809" lon="6.99755">
        <ele>1559.28</ele>
        <time>2019-09-27T08:19:14.000Z</time>
      </trkpt>
      <trkpt lat="44.09823" lon="6.99764">
        <ele>1558.87</ele>
        <time>2019-09-27T08:19:19.000Z</time>
      </trkpt>
      <trkpt lat="44.09836" lon="6.99776">
        <ele>1558.64</ele>
        <time>2019-09-27T08:19:24.000Z</time>
      </trkpt>
      <trkpt lat="44.09846" lon="6.99789">
        <ele>1558.44</ele>
        <time>2019-09-27T08:19:29.000Z</time>
      </trkpt>
      <trkpt lat="44.09858" lon="6.99799">
        <ele>1557.96</ele>
        <time>2019-09-27T08:19:34.000Z</time>
      </trkpt>
      <trkpt lat="44.09872" lon="6.99811">
        <ele>1557.61</ele>
        <time>2019-09-27T08:19:39.000Z</time>
      </trkpt>
      <trkpt lat="44.09884" lon="6.99825">
        <ele>1558.38</ele>
        <time>2019-09-27T08:19:44.000Z</time>
      </trkpt>
      <trkpt lat="44.09896" lon="6.99841">
        <ele>1560.33</ele>
        <time>2019-09-27T08:19:49.000Z</time>
      </trkpt>
      <trkpt lat="44.09905" lon="6.99858">
        <ele>1561.7</ele>
        <time>2019-09-27T08:19:54.000Z</time>
      </trkpt>
      <trkpt lat="44.09912" lon="6.99877">
        <ele>1560.97</ele>
        <time>2019-09-27T08:19:59.000Z</time>
      </trkpt>
      <trkpt lat="44.09919" lon="6.99894">
        <ele>1560.39</ele>
        <time>2019-09-27T08:20:04.000Z</time>
      </trkpt>
      <trkpt lat="44.09926" lon="6.99912">
        <ele>1564.12</ele>
        <time>2019-09-27T08:20:09.000Z</time>
      </trkpt>
      <trkpt lat="44.09932" lon="6.9993">
        <ele>1564.56</ele>
        <time>2019-09-27T08:20:14.000Z</time>
      </trkpt>
      <trkpt lat="44.09938" lon="6.99948">
        <ele>1564.59</ele>
        <time>2019-09-27T08:20:19.000Z</time>
      </trkpt>
      <trkpt lat="44.09946" lon="6.99964">
        <ele>1565.15</ele>
        <time>2019-09-27T08:20:24.000Z</time>
      </trkpt>
      <trkpt lat="44.09951" lon="6.99977">
        <ele>1566.2</ele>
        <time>2019-09-27T08:22:19.000Z</time>
      </trkpt>
      <trkpt lat="44.09963" lon="6.99991">
        <ele>1566.58</ele>
        <time>2019-09-27T08:22:24.000Z</time>
      </trkpt>
      <trkpt lat="44.09978" lon="7.00009">
        <ele>1563.42</ele>
        <time>2019-09-27T08:22:29.000Z</time>
      </trkpt>
      <trkpt lat="44.09994" lon="7.00031">
        <ele>1564.25</ele>
        <time>2019-09-27T08:22:34.000Z</time>
      </trkpt>
      <trkpt lat="44.1001" lon="7.00065">
        <ele>1567.24</ele>
        <time>2019-09-27T08:22:39.000Z</time>
      </trkpt>
      <trkpt lat="44.10024" lon="7.00097">
        <ele>1562.69</ele>
        <time>2019-09-27T08:22:44.000Z</time>
      </trkpt>
      <trkpt lat="44.10032" lon="7.00136">
        <ele>1559.79</ele>
        <time>2019-09-27T08:22:49.000Z</time>
      </trkpt>
      <trkpt lat="44.1004" lon="7.00174">
        <ele>1558.59</ele>
        <time>2019-09-27T08:22:54.000Z</time>
      </trkpt>
      <trkpt lat="44.10055" lon="7.00217">
        <ele>1557.6</ele>
        <time>2019-09-27T08:22:59.000Z</time>
      </trkpt>
      <trkpt lat="44.10067" lon="7.00268">
        <ele>1557.51</ele>
        <time>2019-09-27T08:23:04.000Z</time>
      </trkpt>
      <trkpt lat="44.1008" lon="7.00317">
        <ele>1557.12</ele>
        <time>2019-09-27T08:23:09.000Z</time>
      </trkpt>
      <trkpt lat="44.10091" lon="7.00365">
        <ele>1551.46</ele>
        <time>2019-09-27T08:23:14.000Z</time>
      </trkpt>
      <trkpt lat="44.10111" lon="7.00416">
        <ele>1550.83</ele>
        <time>2019-09-27T08:23:19.000Z</time>
      </trkpt>
      <trkpt lat="44.10129" lon="7.00465">
        <ele>1543.78</ele>
        <time>2019-09-27T08:23:24.000Z</time>
      </trkpt>
      <trkpt lat="44.10154" lon="7.00496">
        <ele>1546.16</ele>
        <time>2019-09-27T08:23:29.000Z</time>
      </trkpt>
      <trkpt lat="44.10183" lon="7.00523">
        <ele>1550.3</ele>
        <time>2019-09-27T08:23:34.000Z</time>
      </trkpt>
      <trkpt lat="44.10206" lon="7.00561">
        <ele>1552.24</ele>
        <time>2019-09-27T08:23:39.000Z</time>
      </trkpt>
      <trkpt lat="44.10176" lon="7.00572">
        <ele>1551.88</ele>
        <time>2019-09-27T08:23:44.000Z</time>
      </trkpt>
      <trkpt lat="44.10152" lon="7.00559">
        <ele>1554.74</ele>
        <time>2019-09-27T08:23:49.000Z</time>
      </trkpt>
      <trkpt lat="44.10127" lon="7.00551">
        <ele>1553.61</ele>
        <time>2019-09-27T08:23:54.000Z</time>
      </trkpt>
      <trkpt lat="44.10108" lon="7.00537">
        <ele>1551.58</ele>
        <time>2019-09-27T08:23:59.000Z</time>
      </trkpt>
      <trkpt lat="44.10087" lon="7.00521">
        <ele>1554.57</ele>
        <time>2019-09-27T08:24:04.000Z</time>
      </trkpt>
      <trkpt lat="44.10067" lon="7.00506">
        <ele>1557.98</ele>
        <time>2019-09-27T08:24:09.000Z</time>
      </trkpt>
      <trkpt lat="44.10047" lon="7.0049">
        <ele>1557.07</ele>
        <time>2019-09-27T08:24:14.000Z</time>
      </trkpt>
      <trkpt lat="44.10026" lon="7.0047">
        <ele>1559.04</ele>
        <time>2019-09-27T08:24:19.000Z</time>
      </trkpt>
      <trkpt lat="44.10007" lon="7.00451">
        <ele>1558.13</ele>
        <time>2019-09-27T08:24:24.000Z</time>
      </trkpt>
      <trkpt lat="44.09984" lon="7.00432">
        <ele>1558.35</ele>
        <time>2019-09-27T08:24:29.000Z</time>
      </trkpt>
      <trkpt lat="44.09964" lon="7.00413">
        <ele>1561.06</ele>
        <time>2019-09-27T08:24:34.000Z</time>
      </trkpt>
      <trkpt lat="44.09945" lon="7.00392">
        <ele>1560.55</ele>
        <time>2019-09-27T08:24:39.000Z</time>
      </trkpt>
      <trkpt lat="44.09928" lon="7.00369">
        <ele>1561.91</ele>
        <time>2019-09-27T08:24:44.000Z</time>
      </trkpt>
      <trkpt lat="44.09912" lon="7.00348">
        <ele>1561.73</ele>
        <time>2019-09-27T08:24:49.000Z</time>
      </trkpt>
      <trkpt lat="44.09892" lon="7.00329">
        <ele>1560.49</ele>
        <time>2019-09-27T08:24:54.000Z</time>
      </trkpt>
      <trkpt lat="44.09872" lon="7.0031">
        <ele>1563.49</ele>
        <time>2019-09-27T08:24:59.000Z</time>
      </trkpt>
      <trkpt lat="44.09849" lon="7.00291">
        <ele>1562.46</ele>
        <time>2019-09-27T08:25:04.000Z</time>
      </trkpt>
      <trkpt lat="44.09827" lon="7.00271">
        <ele>1564.74</ele>
        <time>2019-09-27T08:25:09.000Z</time>
      </trkpt>
      <trkpt lat="44.09815" lon="7.00255">
        <ele>1563.41</ele>
        <time>2019-09-27T08:25:14.000Z</time>
      </trkpt>
      <trkpt lat="44.09789" lon="7.00237">
        <ele>1563.47</ele>
        <time>2019-09-27T08:25:19.000Z</time>
      </trkpt>
      <trkpt lat="44.09766" lon="7.00221">
        <ele>1563.36</ele>
        <time>2019-09-27T08:25:24.000Z</time>
      </trkpt>
      <trkpt lat="44.09745" lon="7.00203">
        <ele>1566.34</ele>
        <time>2019-09-27T08:25:29.000Z</time>
      </trkpt>
      <trkpt lat="44.09722" lon="7.00183">
        <ele>1563.61</ele>
        <time>2019-09-27T08:25:34.000Z</time>
      </trkpt>
      <trkpt lat="44.09704" lon="7.00167">
        <ele>1563.82</ele>
        <time>2019-09-27T08:25:39.000Z</time>
      </trkpt>
      <trkpt lat="44.09679" lon="7.00161">
        <ele>1565.83</ele>
        <time>2019-09-27T08:25:44.000Z</time>
      </trkpt>
      <trkpt lat="44.09648" lon="7.00157">
        <ele>1567</ele>
        <time>2019-09-27T08:25:49.000Z</time>
      </trkpt>
      <trkpt lat="44.09617" lon="7.00152">
        <ele>1566.6</ele>
        <time>2019-09-27T08:25:54.000Z</time>
      </trkpt>
      <trkpt lat="44.09598" lon="7.00136">
        <ele>1566.15</ele>
        <time>2019-09-27T08:25:59.000Z</time>
      </trkpt>
      <trkpt lat="44.09573" lon="7.00122">
        <ele>1568.79</ele>
        <time>2019-09-27T08:26:04.000Z</time>
      </trkpt>
      <trkpt lat="44.09549" lon="7.0011">
        <ele>1570.56</ele>
        <time>2019-09-27T08:26:09.000Z</time>
      </trkpt>
      <trkpt lat="44.0952" lon="7.00105">
        <ele>1572.09</ele>
        <time>2019-09-27T08:26:14.000Z</time>
      </trkpt>
      <trkpt lat="44.09491" lon="7.00117">
        <ele>1571.68</ele>
        <time>2019-09-27T08:26:19.000Z</time>
      </trkpt>
      <trkpt lat="44.09468" lon="7.0013">
        <ele>1571.57</ele>
        <time>2019-09-27T08:26:24.000Z</time>
      </trkpt>
      <trkpt lat="44.0944" lon="7.00124">
        <ele>1575</ele>
        <time>2019-09-27T08:26:29.000Z</time>
      </trkpt>
      <trkpt lat="44.09415" lon="7.00121">
        <ele>1573.57</ele>
        <time>2019-09-27T08:26:34.000Z</time>
      </trkpt>
      <trkpt lat="44.09386" lon="7.00114">
        <ele>1577.57</ele>
        <time>2019-09-27T08:26:39.000Z</time>
      </trkpt>
      <trkpt lat="44.09365" lon="7.00116">
        <ele>1574.37</ele>
        <time>2019-09-27T08:26:44.000Z</time>
      </trkpt>
      <trkpt lat="44.09343" lon="7.00132">
        <ele>1574.03</ele>
        <time>2019-09-27T08:26:49.000Z</time>
      </trkpt>
      <trkpt lat="44.09318" lon="7.00149">
        <ele>1574.76</ele>
        <time>2019-09-27T08:26:54.000Z</time>
      </trkpt>
      <trkpt lat="44.09294" lon="7.00167">
        <ele>1574.33</ele>
        <time>2019-09-27T08:26:59.000Z</time>
      </trkpt>
      <trkpt lat="44.09275" lon="7.00187">
        <ele>1574.68</ele>
        <time>2019-09-27T08:27:04.000Z</time>
      </trkpt>
      <trkpt lat="44.09256" lon="7.00207">
        <ele>1575.6</ele>
        <time>2019-09-27T08:27:09.000Z</time>
      </trkpt>
      <trkpt lat="44.09242" lon="7.00234">
        <ele>1577.18</ele>
        <time>2019-09-27T08:27:14.000Z</time>
      </trkpt>
      <trkpt lat="44.09237" lon="7.00263">
        <ele>1581</ele>
        <time>2019-09-27T08:27:19.000Z</time>
      </trkpt>
      <trkpt lat="44.09251" lon="7.00289">
        <ele>1584.31</ele>
        <time>2019-09-27T08:27:24.000Z</time>
      </trkpt>
      <trkpt lat="44.09268" lon="7.00317">
        <ele>1586.27</ele>
        <time>2019-09-27T08:27:29.000Z</time>
      </trkpt>
      <trkpt lat="44.09284" lon="7.00345">
        <ele>1587.7</ele>
        <time>2019-09-27T08:27:34.000Z</time>
      </trkpt>
      <trkpt lat="44.09304" lon="7.00371">
        <ele>1588.44</ele>
        <time>2019-09-27T08:27:39.000Z</time>
      </trkpt>
      <trkpt lat="44.09327" lon="7.00395">
        <ele>1586.04</ele>
        <time>2019-09-27T08:27:44.000Z</time>
      </trkpt>
      <trkpt lat="44.09344" lon="7.00431">
        <ele>1581.53</ele>
        <time>2019-09-27T08:27:49.000Z</time>
      </trkpt>
      <trkpt lat="44.09349" lon="7.00468">
        <ele>1581.97</ele>
        <time>2019-09-27T08:27:54.000Z</time>
      </trkpt>
      <trkpt lat="44.09363" lon="7.00502">
        <ele>1582.18</ele>
        <time>2019-09-27T08:27:59.000Z</time>
      </trkpt>
      <trkpt lat="44.09378" lon="7.00538">
        <ele>1581.89</ele>
        <time>2019-09-27T08:28:04.000Z</time>
      </trkpt>
      <trkpt lat="44.09393" lon="7.00575">
        <ele>1586.44</ele>
        <time>2019-09-27T08:28:09.000Z</time>
      </trkpt>
      <trkpt lat="44.09415" lon="7.00607">
        <ele>1583.41</ele>
        <time>2019-09-27T08:28:14.000Z</time>
      </trkpt>
      <trkpt lat="44.09437" lon="7.00641">
        <ele>1584.99</ele>
        <time>2019-09-27T08:28:19.000Z</time>
      </trkpt>
      <trkpt lat="44.09456" lon="7.00673">
        <ele>1591.66</ele>
        <time>2019-09-27T08:28:24.000Z</time>
      </trkpt>
      <trkpt lat="44.09478" lon="7.00707">
        <ele>1594.13</ele>
        <time>2019-09-27T08:28:29.000Z</time>
      </trkpt>
      <trkpt lat="44.09501" lon="7.00738">
        <ele>1591.48</ele>
        <time>2019-09-27T08:28:34.000Z</time>
      </trkpt>
      <trkpt lat="44.09511" lon="7.00772">
        <ele>1593.79</ele>
        <time>2019-09-27T08:28:39.000Z</time>
      </trkpt>
      <trkpt lat="44.09522" lon="7.00808">
        <ele>1594.44</ele>
        <time>2019-09-27T08:28:44.000Z</time>
      </trkpt>
      <trkpt lat="44.09539" lon="7.00841">
        <ele>1593.58</ele>
        <time>2019-09-27T08:28:49.000Z</time>
      </trkpt>
      <trkpt lat="44.09558" lon="7.00875">
        <ele>1592.77</ele>
        <time>2019-09-27T08:28:54.000Z</time>
      </trkpt>
      <trkpt lat="44.09576" lon="7.00908">
        <ele>1594.72</ele>
        <time>2019-09-27T08:28:59.000Z</time>
      </trkpt>
      <trkpt lat="44.09585" lon="7.00947">
        <ele>1600.24</ele>
        <time>2019-09-27T08:29:04.000Z</time>
      </trkpt>
      <trkpt lat="44.09592" lon="7.00987">
        <ele>1602.88</ele>
        <time>2019-09-27T08:29:09.000Z</time>
      </trkpt>
      <trkpt lat="44.09606" lon="7.01024">
        <ele>1603.25</ele>
        <time>2019-09-27T08:29:14.000Z</time>
      </trkpt>
      <trkpt lat="44.09622" lon="7.01064">
        <ele>1605.05</ele>
        <time>2019-09-27T08:29:19.000Z</time>
      </trkpt>
      <trkpt lat="44.09636" lon="7.01101">
        <ele>1603.74</ele>
        <time>2019-09-27T08:29:24.000Z</time>
      </trkpt>
      <trkpt lat="44.09656" lon="7.01142">
        <ele>1603.59</ele>
        <time>2019-09-27T08:29:29.000Z</time>
      </trkpt>
      <trkpt lat="44.09672" lon="7.0118">
        <ele>1604.64</ele>
        <time>2019-09-27T08:29:34.000Z</time>
      </trkpt>
      <trkpt lat="44.09683" lon="7.0122">
        <ele>1603.26</ele>
        <time>2019-09-27T08:29:39.000Z</time>
      </trkpt>
      <trkpt lat="44.09699" lon="7.01258">
        <ele>1603.61</ele>
        <time>2019-09-27T08:29:44.000Z</time>
      </trkpt>
      <trkpt lat="44.09715" lon="7.0129">
        <ele>1599.63</ele>
        <time>2019-09-27T08:29:49.000Z</time>
      </trkpt>
      <trkpt lat="44.09733" lon="7.0133">
        <ele>1592.79</ele>
        <time>2019-09-27T08:29:54.000Z</time>
      </trkpt>
      <trkpt lat="44.09741" lon="7.01372">
        <ele>1596.77</ele>
        <time>2019-09-27T08:29:59.000Z</time>
      </trkpt>
      <trkpt lat="44.09745" lon="7.01418">
        <ele>1596.45</ele>
        <time>2019-09-27T08:30:04.000Z</time>
      </trkpt>
      <trkpt lat="44.09752" lon="7.0146">
        <ele>1597.5</ele>
        <time>2019-09-27T08:30:09.000Z</time>
      </trkpt>
      <trkpt lat="44.09758" lon="7.01504">
        <ele>1601.99</ele>
        <time>2019-09-27T08:30:14.000Z</time>
      </trkpt>
      <trkpt lat="44.09762" lon="7.01544">
        <ele>1603.13</ele>
        <time>2019-09-27T08:30:19.000Z</time>
      </trkpt>
      <trkpt lat="44.09777" lon="7.01588">
        <ele>1603.85</ele>
        <time>2019-09-27T08:30:24.000Z</time>
      </trkpt>
      <trkpt lat="44.09785" lon="7.01625">
        <ele>1600.22</ele>
        <time>2019-09-27T08:30:29.000Z</time>
      </trkpt>
      <trkpt lat="44.09802" lon="7.01662">
        <ele>1602.82</ele>
        <time>2019-09-27T08:30:34.000Z</time>
      </trkpt>
      <trkpt lat="44.09825" lon="7.01691">
        <ele>1607.01</ele>
        <time>2019-09-27T08:30:39.000Z</time>
      </trkpt>
      <trkpt lat="44.09847" lon="7.01725">
        <ele>1608.65</ele>
        <time>2019-09-27T08:30:44.000Z</time>
      </trkpt>
      <trkpt lat="44.09875" lon="7.01755">
        <ele>1611.61</ele>
        <time>2019-09-27T08:30:49.000Z</time>
      </trkpt>
      <trkpt lat="44.099" lon="7.0178">
        <ele>1612.79</ele>
        <time>2019-09-27T08:30:54.000Z</time>
      </trkpt>
      <trkpt lat="44.09926" lon="7.01797">
        <ele>1615.05</ele>
        <time>2019-09-27T08:30:59.000Z</time>
      </trkpt>
      <trkpt lat="44.09959" lon="7.01816">
        <ele>1612.95</ele>
        <time>2019-09-27T08:31:04.000Z</time>
      </trkpt>
      <trkpt lat="44.09984" lon="7.01842">
        <ele>1615.1</ele>
        <time>2019-09-27T08:31:09.000Z</time>
      </trkpt>
      <trkpt lat="44.10011" lon="7.01859">
        <ele>1617.35</ele>
        <time>2019-09-27T08:31:14.000Z</time>
      </trkpt>
      <trkpt lat="44.10033" lon="7.01872">
        <ele>1615.65</ele>
        <time>2019-09-27T08:31:19.000Z</time>
      </trkpt>
      <trkpt lat="44.10047" lon="7.01885">
        <ele>1617.13</ele>
        <time>2019-09-27T08:31:24.000Z</time>
      </trkpt>
      <trkpt lat="44.10061" lon="7.019">
        <ele>1616.72</ele>
        <time>2019-09-27T08:31:29.000Z</time>
      </trkpt>
      <trkpt lat="44.10074" lon="7.01916">
        <ele>1617.27</ele>
        <time>2019-09-27T08:31:34.000Z</time>
      </trkpt>
      <trkpt lat="44.10083" lon="7.01931">
        <ele>1619.74</ele>
        <time>2019-09-27T08:31:39.000Z</time>
      </trkpt>
      <trkpt lat="44.10092" lon="7.01948">
        <ele>1621.61</ele>
        <time>2019-09-27T08:31:44.000Z</time>
      </trkpt>
      <trkpt lat="44.10102" lon="7.01965">
        <ele>1622.36</ele>
        <time>2019-09-27T08:31:49.000Z</time>
      </trkpt>
      <trkpt lat="44.10113" lon="7.01982">
        <ele>1621.99</ele>
        <time>2019-09-27T08:31:54.000Z</time>
      </trkpt>
      <trkpt lat="44.10122" lon="7.02001">
        <ele>1620.93</ele>
        <time>2019-09-27T08:31:59.000Z</time>
      </trkpt>
      <trkpt lat="44.10128" lon="7.02021">
        <ele>1622.69</ele>
        <time>2019-09-27T08:32:04.000Z</time>
      </trkpt>
      <trkpt lat="44.10137" lon="7.02039">
        <ele>1625.87</ele>
        <time>2019-09-27T08:32:09.000Z</time>
      </trkpt>
      <trkpt lat="44.10148" lon="7.02056">
        <ele>1626.87</ele>
        <time>2019-09-27T08:32:14.000Z</time>
      </trkpt>
      <trkpt lat="44.10162" lon="7.0207">
        <ele>1627.83</ele>
        <time>2019-09-27T08:32:19.000Z</time>
      </trkpt>
      <trkpt lat="44.10176" lon="7.02081">
        <ele>1630.02</ele>
        <time>2019-09-27T08:32:24.000Z</time>
      </trkpt>
      <trkpt lat="44.10187" lon="7.02087">
        <ele>1632.47</ele>
        <time>2019-09-27T08:32:29.000Z</time>
      </trkpt>
      <trkpt lat="44.10204" lon="7.02085">
        <ele>1631.18</ele>
        <time>2019-09-27T08:32:34.000Z</time>
      </trkpt>
      <trkpt lat="44.10221" lon="7.02082">
        <ele>1630</ele>
        <time>2019-09-27T08:32:39.000Z</time>
      </trkpt>
      <trkpt lat="44.1024" lon="7.02084">
        <ele>1632.24</ele>
        <time>2019-09-27T08:32:44.000Z</time>
      </trkpt>
      <trkpt lat="44.10257" lon="7.02094">
        <ele>1634.61</ele>
        <time>2019-09-27T08:32:49.000Z</time>
      </trkpt>
      <trkpt lat="44.1027" lon="7.02111">
        <ele>1631.28</ele>
        <time>2019-09-27T08:32:54.000Z</time>
      </trkpt>
      <trkpt lat="44.10271" lon="7.02136">
        <ele>1632.21</ele>
        <time>2019-09-27T08:32:59.000Z</time>
      </trkpt>
      <trkpt lat="44.1026" lon="7.02154">
        <ele>1634.51</ele>
        <time>2019-09-27T08:33:04.000Z</time>
      </trkpt>
      <trkpt lat="44.10246" lon="7.02163">
        <ele>1634.91</ele>
        <time>2019-09-27T08:33:09.000Z</time>
      </trkpt>
      <trkpt lat="44.10232" lon="7.02174">
        <ele>1637.48</ele>
        <time>2019-09-27T08:33:14.000Z</time>
      </trkpt>
      <trkpt lat="44.10217" lon="7.0218">
        <ele>1641.04</ele>
        <time>2019-09-27T08:33:19.000Z</time>
      </trkpt>
      <trkpt lat="44.10203" lon="7.02189">
        <ele>1638.95</ele>
        <time>2019-09-27T08:33:24.000Z</time>
      </trkpt>
      <trkpt lat="44.10187" lon="7.02194">
        <ele>1640.82</ele>
        <time>2019-09-27T08:33:29.000Z</time>
      </trkpt>
      <trkpt lat="44.10174" lon="7.02196">
        <ele>1645.02</ele>
        <time>2019-09-27T08:33:34.000Z</time>
      </trkpt>
      <trkpt lat="44.10161" lon="7.02198">
        <ele>1644.68</ele>
        <time>2019-09-27T08:33:39.000Z</time>
      </trkpt>
      <trkpt lat="44.10148" lon="7.02205">
        <ele>1647.28</ele>
        <time>2019-09-27T08:33:44.000Z</time>
      </trkpt>
      <trkpt lat="44.10137" lon="7.02219">
        <ele>1648.53</ele>
        <time>2019-09-27T08:33:49.000Z</time>
      </trkpt>
      <trkpt lat="44.10129" lon="7.02237">
        <ele>1646.91</ele>
        <time>2019-09-27T08:33:54.000Z</time>
      </trkpt>
      <trkpt lat="44.10118" lon="7.02254">
        <ele>1647.4</ele>
        <time>2019-09-27T08:33:59.000Z</time>
      </trkpt>
      <trkpt lat="44.10103" lon="7.02264">
        <ele>1649.2</ele>
        <time>2019-09-27T08:34:04.000Z</time>
      </trkpt>
      <trkpt lat="44.10089" lon="7.0227">
        <ele>1650.64</ele>
        <time>2019-09-27T08:34:09.000Z</time>
      </trkpt>
      <trkpt lat="44.10074" lon="7.02276">
        <ele>1653.3</ele>
        <time>2019-09-27T08:34:14.000Z</time>
      </trkpt>
      <trkpt lat="44.10058" lon="7.02282">
        <ele>1653.34</ele>
        <time>2019-09-27T08:34:19.000Z</time>
      </trkpt>
      <trkpt lat="44.10044" lon="7.02289">
        <ele>1655.85</ele>
        <time>2019-09-27T08:34:24.000Z</time>
      </trkpt>
      <trkpt lat="44.10032" lon="7.02292">
        <ele>1655.81</ele>
        <time>2019-09-27T08:34:29.000Z</time>
      </trkpt>
      <trkpt lat="44.10022" lon="7.02286">
        <ele>1656.63</ele>
        <time>2019-09-27T08:34:34.000Z</time>
      </trkpt>
      <trkpt lat="44.10009" lon="7.02271">
        <ele>1662.27</ele>
        <time>2019-09-27T08:34:39.000Z</time>
      </trkpt>
      <trkpt lat="44.09996" lon="7.02263">
        <ele>1665.39</ele>
        <time>2019-09-27T08:34:44.000Z</time>
      </trkpt>
      <trkpt lat="44.09979" lon="7.02261">
        <ele>1666.82</ele>
        <time>2019-09-27T08:34:49.000Z</time>
      </trkpt>
      <trkpt lat="44.09968" lon="7.02263">
        <ele>1668.54</ele>
        <time>2019-09-27T08:34:54.000Z</time>
      </trkpt>
      <trkpt lat="44.09977" lon="7.02266">
        <ele>1679.84</ele>
        <time>2019-09-27T08:44:54.000Z</time>
      </trkpt>
      <trkpt lat="44.09994" lon="7.02267">
        <ele>1676.78</ele>
        <time>2019-09-27T08:44:59.000Z</time>
      </trkpt>
      <trkpt lat="44.10014" lon="7.02276">
        <ele>1672.42</ele>
        <time>2019-09-27T08:45:04.000Z</time>
      </trkpt>
      <trkpt lat="44.1002" lon="7.02291">
        <ele>1669.51</ele>
        <time>2019-09-27T08:45:09.000Z</time>
      </trkpt>
      <trkpt lat="44.10011" lon="7.02303">
        <ele>1669.63</ele>
        <time>2019-09-27T08:45:15.000Z</time>
      </trkpt>
      <trkpt lat="44.09994" lon="7.02322">
        <ele>1666.12</ele>
        <time>2019-09-27T08:45:20.000Z</time>
      </trkpt>
      <trkpt lat="44.0996" lon="7.02333">
        <ele>1666.63</ele>
        <time>2019-09-27T08:45:25.000Z</time>
      </trkpt>
      <trkpt lat="44.09927" lon="7.02333">
        <ele>1663.25</ele>
        <time>2019-09-27T08:45:30.000Z</time>
      </trkpt>
      <trkpt lat="44.09894" lon="7.0231">
        <ele>1662.99</ele>
        <time>2019-09-27T08:45:35.000Z</time>
      </trkpt>
      <trkpt lat="44.09855" lon="7.02307">
        <ele>1659.75</ele>
        <time>2019-09-27T08:45:40.000Z</time>
      </trkpt>
      <trkpt lat="44.09828" lon="7.02276">
        <ele>1659.33</ele>
        <time>2019-09-27T08:45:45.000Z</time>
      </trkpt>
      <trkpt lat="44.09791" lon="7.02278">
        <ele>1656.96</ele>
        <time>2019-09-27T08:45:50.000Z</time>
      </trkpt>
      <trkpt lat="44.09751" lon="7.02287">
        <ele>1649.73</ele>
        <time>2019-09-27T08:45:55.000Z</time>
      </trkpt>
      <trkpt lat="44.09717" lon="7.02293">
        <ele>1646.18</ele>
        <time>2019-09-27T08:46:00.000Z</time>
      </trkpt>
      <trkpt lat="44.09702" lon="7.02342">
        <ele>1640.41</ele>
        <time>2019-09-27T08:46:05.000Z</time>
      </trkpt>
      <trkpt lat="44.09667" lon="7.02391">
        <ele>1637.55</ele>
        <time>2019-09-27T08:46:10.000Z</time>
      </trkpt>
      <trkpt lat="44.0963" lon="7.02437">
        <ele>1633.28</ele>
        <time>2019-09-27T08:46:15.000Z</time>
      </trkpt>
      <trkpt lat="44.09593" lon="7.02463">
        <ele>1629.48</ele>
        <time>2019-09-27T08:46:20.000Z</time>
      </trkpt>
      <trkpt lat="44.09556" lon="7.02497">
        <ele>1624.26</ele>
        <time>2019-09-27T08:46:25.000Z</time>
      </trkpt>
      <trkpt lat="44.09522" lon="7.02547">
        <ele>1620.86</ele>
        <time>2019-09-27T08:46:30.000Z</time>
      </trkpt>
      <trkpt lat="44.09485" lon="7.02597">
        <ele>1615.62</ele>
        <time>2019-09-27T08:46:35.000Z</time>
      </trkpt>
      <trkpt lat="44.09442" lon="7.02629">
        <ele>1611.09</ele>
        <time>2019-09-27T08:46:40.000Z</time>
      </trkpt>
      <trkpt lat="44.09394" lon="7.02628">
        <ele>1607.88</ele>
        <time>2019-09-27T08:46:45.000Z</time>
      </trkpt>
      <trkpt lat="44.09351" lon="7.02604">
        <ele>1604.99</ele>
        <time>2019-09-27T08:46:50.000Z</time>
      </trkpt>
      <trkpt lat="44.09319" lon="7.02594">
        <ele>1601.23</ele>
        <time>2019-09-27T08:46:55.000Z</time>
      </trkpt>
      <trkpt lat="44.09313" lon="7.02638">
        <ele>1600.43</ele>
        <time>2019-09-27T08:47:00.000Z</time>
      </trkpt>
      <trkpt lat="44.09315" lon="7.02697">
        <ele>1593.22</ele>
        <time>2019-09-27T08:47:05.000Z</time>
      </trkpt>
      <trkpt lat="44.09309" lon="7.02764">
        <ele>1590.89</ele>
        <time>2019-09-27T08:47:10.000Z</time>
      </trkpt>
      <trkpt lat="44.09295" lon="7.02834">
        <ele>1587.04</ele>
        <time>2019-09-27T08:47:15.000Z</time>
      </trkpt>
      <trkpt lat="44.09296" lon="7.02903">
        <ele>1581.41</ele>
        <time>2019-09-27T08:47:20.000Z</time>
      </trkpt>
      <trkpt lat="44.09305" lon="7.02973">
        <ele>1581.58</ele>
        <time>2019-09-27T08:47:25.000Z</time>
      </trkpt>
      <trkpt lat="44.09289" lon="7.03041">
        <ele>1577.22</ele>
        <time>2019-09-27T08:47:30.000Z</time>
      </trkpt>
      <trkpt lat="44.0927" lon="7.03106">
        <ele>1572.49</ele>
        <time>2019-09-27T08:47:35.000Z</time>
      </trkpt>
      <trkpt lat="44.09247" lon="7.03159">
        <ele>1567.66</ele>
        <time>2019-09-27T08:47:40.000Z</time>
      </trkpt>
      <trkpt lat="44.09208" lon="7.032">
        <ele>1562.39</ele>
        <time>2019-09-27T08:47:45.000Z</time>
      </trkpt>
      <trkpt lat="44.09171" lon="7.03248">
        <ele>1559.19</ele>
        <time>2019-09-27T08:47:50.000Z</time>
      </trkpt>
      <trkpt lat="44.09133" lon="7.033">
        <ele>1556.34</ele>
        <time>2019-09-27T08:47:55.000Z</time>
      </trkpt>
      <trkpt lat="44.09095" lon="7.03341">
        <ele>1550.43</ele>
        <time>2019-09-27T08:48:00.000Z</time>
      </trkpt>
      <trkpt lat="44.09064" lon="7.03359">
        <ele>1545.63</ele>
        <time>2019-09-27T08:48:05.000Z</time>
      </trkpt>
      <trkpt lat="44.09047" lon="7.03377">
        <ele>1545.06</ele>
        <time>2019-09-27T08:48:10.000Z</time>
      </trkpt>
      <trkpt lat="44.09065" lon="7.03393">
        <ele>1543.78</ele>
        <time>2019-09-27T08:48:15.000Z</time>
      </trkpt>
      <trkpt lat="44.09092" lon="7.03396">
        <ele>1540.09</ele>
        <time>2019-09-27T08:48:20.000Z</time>
      </trkpt>
      <trkpt lat="44.09128" lon="7.03408">
        <ele>1537.27</ele>
        <time>2019-09-27T08:48:25.000Z</time>
      </trkpt>
      <trkpt lat="44.09161" lon="7.03429">
        <ele>1534.44</ele>
        <time>2019-09-27T08:48:30.000Z</time>
      </trkpt>
      <trkpt lat="44.09161" lon="7.03472">
        <ele>1529.15</ele>
        <time>2019-09-27T08:48:35.000Z</time>
      </trkpt>
      <trkpt lat="44.09148" lon="7.03517">
        <ele>1526.98</ele>
        <time>2019-09-27T08:48:40.000Z</time>
      </trkpt>
      <trkpt lat="44.0916" lon="7.03548">
        <ele>1527.17</ele>
        <time>2019-09-27T08:48:45.000Z</time>
      </trkpt>
      <trkpt lat="44.09196" lon="7.03551">
        <ele>1522.44</ele>
        <time>2019-09-27T08:48:50.000Z</time>
      </trkpt>
      <trkpt lat="44.09238" lon="7.03542">
        <ele>1519.9</ele>
        <time>2019-09-27T08:48:55.000Z</time>
      </trkpt>
      <trkpt lat="44.0928" lon="7.03529">
        <ele>1513.66</ele>
        <time>2019-09-27T08:49:00.000Z</time>
      </trkpt>
      <trkpt lat="44.09313" lon="7.0351">
        <ele>1509.74</ele>
        <time>2019-09-27T08:49:05.000Z</time>
      </trkpt>
      <trkpt lat="44.09333" lon="7.03476">
        <ele>1509.23</ele>
        <time>2019-09-27T08:49:10.000Z</time>
      </trkpt>
      <trkpt lat="44.09348" lon="7.03488">
        <ele>1508.36</ele>
        <time>2019-09-27T08:49:15.000Z</time>
      </trkpt>
      <trkpt lat="44.09332" lon="7.03522">
        <ele>1507.06</ele>
        <time>2019-09-27T08:49:20.000Z</time>
      </trkpt>
      <trkpt lat="44.09302" lon="7.03546">
        <ele>1501.15</ele>
        <time>2019-09-27T08:49:25.000Z</time>
      </trkpt>
      <trkpt lat="44.09268" lon="7.03572">
        <ele>1498.65</ele>
        <time>2019-09-27T08:49:30.000Z</time>
      </trkpt>
      <trkpt lat="44.09231" lon="7.03597">
        <ele>1494.66</ele>
        <time>2019-09-27T08:49:35.000Z</time>
      </trkpt>
      <trkpt lat="44.092" lon="7.0364">
        <ele>1492.01</ele>
        <time>2019-09-27T08:49:40.000Z</time>
      </trkpt>
      <trkpt lat="44.09156" lon="7.0366">
        <ele>1489.52</ele>
        <time>2019-09-27T08:49:45.000Z</time>
      </trkpt>
      <trkpt lat="44.09116" lon="7.03709">
        <ele>1488.12</ele>
        <time>2019-09-27T08:49:50.000Z</time>
      </trkpt>
      <trkpt lat="44.09081" lon="7.03765">
        <ele>1483.23</ele>
        <time>2019-09-27T08:49:55.000Z</time>
      </trkpt>
      <trkpt lat="44.09048" lon="7.03817">
        <ele>1479.7</ele>
        <time>2019-09-27T08:50:00.000Z</time>
      </trkpt>
      <trkpt lat="44.09012" lon="7.03864">
        <ele>1474.95</ele>
        <time>2019-09-27T08:50:05.000Z</time>
      </trkpt>
      <trkpt lat="44.0899" lon="7.03907">
        <ele>1471.47</ele>
        <time>2019-09-27T08:50:10.000Z</time>
      </trkpt>
      <trkpt lat="44.08958" lon="7.03915">
        <ele>1468.2</ele>
        <time>2019-09-27T08:50:15.000Z</time>
      </trkpt>
      <trkpt lat="44.08923" lon="7.03906">
        <ele>1465.3</ele>
        <time>2019-09-27T08:50:20.000Z</time>
      </trkpt>
      <trkpt lat="44.08908" lon="7.03868">
        <ele>1462.82</ele>
        <time>2019-09-27T08:50:25.000Z</time>
      </trkpt>
      <trkpt lat="44.08899" lon="7.03823">
        <ele>1458.94</ele>
        <time>2019-09-27T08:50:30.000Z</time>
      </trkpt>
      <trkpt lat="44.08879" lon="7.03835">
        <ele>1457.4</ele>
        <time>2019-09-27T08:50:35.000Z</time>
      </trkpt>
      <trkpt lat="44.08872" lon="7.03876">
        <ele>1453.97</ele>
        <time>2019-09-27T08:50:40.000Z</time>
      </trkpt>
      <trkpt lat="44.08874" lon="7.03923">
        <ele>1450.88</ele>
        <time>2019-09-27T08:50:45.000Z</time>
      </trkpt>
      <trkpt lat="44.08872" lon="7.03978">
        <ele>1451.17</ele>
        <time>2019-09-27T08:50:50.000Z</time>
      </trkpt>
      <trkpt lat="44.08854" lon="7.04033">
        <ele>1449.23</ele>
        <time>2019-09-27T08:50:55.000Z</time>
      </trkpt>
      <trkpt lat="44.08837" lon="7.04089">
        <ele>1448.62</ele>
        <time>2019-09-27T08:51:00.000Z</time>
      </trkpt>
      <trkpt lat="44.08829" lon="7.04148">
        <ele>1446.24</ele>
        <time>2019-09-27T08:51:05.000Z</time>
      </trkpt>
      <trkpt lat="44.08814" lon="7.04207">
        <ele>1443.84</ele>
        <time>2019-09-27T08:51:10.000Z</time>
      </trkpt>
      <trkpt lat="44.08802" lon="7.04263">
        <ele>1442.27</ele>
        <time>2019-09-27T08:51:15.000Z</time>
      </trkpt>
      <trkpt lat="44.08797" lon="7.04325">
        <ele>1434.52</ele>
        <time>2019-09-27T08:51:20.000Z</time>
      </trkpt>
      <trkpt lat="44.08781" lon="7.04364">
        <ele>1431.91</ele>
        <time>2019-09-27T08:51:25.000Z</time>
      </trkpt>
      <trkpt lat="44.08781" lon="7.0439">
        <ele>1430.28</ele>
        <time>2019-09-27T08:51:30.000Z</time>
      </trkpt>
      <trkpt lat="44.08795" lon="7.04376">
        <ele>1429.85</ele>
        <time>2019-09-27T08:51:35.000Z</time>
      </trkpt>
      <trkpt lat="44.08798" lon="7.0436">
        <ele>1428.79</ele>
        <time>2019-09-27T08:51:40.000Z</time>
      </trkpt>
      <trkpt lat="44.08793" lon="7.04374">
        <ele>1427.42</ele>
        <time>2019-09-27T08:51:50.000Z</time>
      </trkpt>
      <trkpt lat="44.0879" lon="7.04386">
        <ele>1427.91</ele>
        <time>2019-09-27T08:51:56.000Z</time>
      </trkpt>
      <trkpt lat="44.08782" lon="7.04392">
        <ele>1428.76</ele>
        <time>2019-09-27T08:52:38.000Z</time>
      </trkpt>
      <trkpt lat="44.08773" lon="7.0439">
        <ele>1429.76</ele>
        <time>2019-09-27T08:52:43.000Z</time>
      </trkpt>
      <trkpt lat="44.08783" lon="7.04383">
        <ele>1430.81</ele>
        <time>2019-09-27T08:54:26.000Z</time>
      </trkpt>
      <trkpt lat="44.08791" lon="7.04362">
        <ele>1428.2</ele>
        <time>2019-09-27T08:54:31.000Z</time>
      </trkpt>
      <trkpt lat="44.08803" lon="7.0433">
        <ele>1425.68</ele>
        <time>2019-09-27T08:54:36.000Z</time>
      </trkpt>
      <trkpt lat="44.08813" lon="7.04289">
        <ele>1423.75</ele>
        <time>2019-09-27T08:54:41.000Z</time>
      </trkpt>
      <trkpt lat="44.08825" lon="7.04248">
        <ele>1419.21</ele>
        <time>2019-09-27T08:54:46.000Z</time>
      </trkpt>
      <trkpt lat="44.08843" lon="7.04219">
        <ele>1419.7</ele>
        <time>2019-09-27T08:54:51.000Z</time>
      </trkpt>
      <trkpt lat="44.08865" lon="7.04246">
        <ele>1419.1</ele>
        <time>2019-09-27T08:54:56.000Z</time>
      </trkpt>
      <trkpt lat="44.08889" lon="7.04288">
        <ele>1419.28</ele>
        <time>2019-09-27T08:55:01.000Z</time>
      </trkpt>
      <trkpt lat="44.08922" lon="7.04317">
        <ele>1414.01</ele>
        <time>2019-09-27T08:55:06.000Z</time>
      </trkpt>
      <trkpt lat="44.08955" lon="7.04328">
        <ele>1411.47</ele>
        <time>2019-09-27T08:55:11.000Z</time>
      </trkpt>
      <trkpt lat="44.08987" lon="7.04327">
        <ele>1408.3</ele>
        <time>2019-09-27T08:55:16.000Z</time>
      </trkpt>
      <trkpt lat="44.09014" lon="7.04292">
        <ele>1403.23</ele>
        <time>2019-09-27T08:55:21.000Z</time>
      </trkpt>
      <trkpt lat="44.0905" lon="7.0425">
        <ele>1402.36</ele>
        <time>2019-09-27T08:55:26.000Z</time>
      </trkpt>
      <trkpt lat="44.09079" lon="7.04226">
        <ele>1401.52</ele>
        <time>2019-09-27T08:55:31.000Z</time>
      </trkpt>
      <trkpt lat="44.09109" lon="7.0418">
        <ele>1396.25</ele>
        <time>2019-09-27T08:55:36.000Z</time>
      </trkpt>
      <trkpt lat="44.09135" lon="7.04129">
        <ele>1393.41</ele>
        <time>2019-09-27T08:55:41.000Z</time>
      </trkpt>
      <trkpt lat="44.09153" lon="7.04076">
        <ele>1390.63</ele>
        <time>2019-09-27T08:55:46.000Z</time>
      </trkpt>
      <trkpt lat="44.09159" lon="7.04024">
        <ele>1386.2</ele>
        <time>2019-09-27T08:55:51.000Z</time>
      </trkpt>
      <trkpt lat="44.0918" lon="7.03982">
        <ele>1377.68</ele>
        <time>2019-09-27T08:55:56.000Z</time>
      </trkpt>
      <trkpt lat="44.09199" lon="7.03941">
        <ele>1373.88</ele>
        <time>2019-09-27T08:56:01.000Z</time>
      </trkpt>
      <trkpt lat="44.09217" lon="7.03947">
        <ele>1373.46</ele>
        <time>2019-09-27T08:56:06.000Z</time>
      </trkpt>
      <trkpt lat="44.0922" lon="7.03989">
        <ele>1371.44</ele>
        <time>2019-09-27T08:56:11.000Z</time>
      </trkpt>
      <trkpt lat="44.09208" lon="7.04045">
        <ele>1370.99</ele>
        <time>2019-09-27T08:56:16.000Z</time>
      </trkpt>
      <trkpt lat="44.09204" lon="7.04104">
        <ele>1368.9</ele>
        <time>2019-09-27T08:56:21.000Z</time>
      </trkpt>
      <trkpt lat="44.09201" lon="7.04158">
        <ele>1369.35</ele>
        <time>2019-09-27T08:56:26.000Z</time>
      </trkpt>
      <trkpt lat="44.09196" lon="7.04212">
        <ele>1366.55</ele>
        <time>2019-09-27T08:56:31.000Z</time>
      </trkpt>
      <trkpt lat="44.09194" lon="7.04268">
        <ele>1365.3</ele>
        <time>2019-09-27T08:56:36.000Z</time>
      </trkpt>
      <trkpt lat="44.09184" lon="7.04323">
        <ele>1361.49</ele>
        <time>2019-09-27T08:56:41.000Z</time>
      </trkpt>
      <trkpt lat="44.09174" lon="7.04385">
        <ele>1356.84</ele>
        <time>2019-09-27T08:56:46.000Z</time>
      </trkpt>
      <trkpt lat="44.09162" lon="7.04448">
        <ele>1352.27</ele>
        <time>2019-09-27T08:56:51.000Z</time>
      </trkpt>
      <trkpt lat="44.0916" lon="7.04522">
        <ele>1349.59</ele>
        <time>2019-09-27T08:56:56.000Z</time>
      </trkpt>
      <trkpt lat="44.09157" lon="7.04596">
        <ele>1344.17</ele>
        <time>2019-09-27T08:57:01.000Z</time>
      </trkpt>
      <trkpt lat="44.09155" lon="7.04665">
        <ele>1338.73</ele>
        <time>2019-09-27T08:57:06.000Z</time>
      </trkpt>
      <trkpt lat="44.09155" lon="7.04735">
        <ele>1334.24</ele>
        <time>2019-09-27T08:57:11.000Z</time>
      </trkpt>
      <trkpt lat="44.09163" lon="7.04799">
        <ele>1330.89</ele>
        <time>2019-09-27T08:57:16.000Z</time>
      </trkpt>
      <trkpt lat="44.09171" lon="7.04854">
        <ele>1327.19</ele>
        <time>2019-09-27T08:57:21.000Z</time>
      </trkpt>
      <trkpt lat="44.09178" lon="7.04883">
        <ele>1324.62</ele>
        <time>2019-09-27T08:57:26.000Z</time>
      </trkpt>
      <trkpt lat="44.09186" lon="7.04906">
        <ele>1322.5</ele>
        <time>2019-09-27T08:57:31.000Z</time>
      </trkpt>
      <trkpt lat="44.09186" lon="7.04919">
        <ele>1320.46</ele>
        <time>2019-09-27T08:58:28.000Z</time>
      </trkpt>
      <trkpt lat="44.09191" lon="7.04937">
        <ele>1319.98</ele>
        <time>2019-09-27T08:58:33.000Z</time>
      </trkpt>
      <trkpt lat="44.092" lon="7.04959">
        <ele>1323.35</ele>
        <time>2019-09-27T08:58:38.000Z</time>
      </trkpt>
      <trkpt lat="44.09209" lon="7.04982">
        <ele>1325.97</ele>
        <time>2019-09-27T08:58:43.000Z</time>
      </trkpt>
      <trkpt lat="44.09221" lon="7.05">
        <ele>1327.78</ele>
        <time>2019-09-27T08:58:48.000Z</time>
      </trkpt>
      <trkpt lat="44.09234" lon="7.05016">
        <ele>1328.5</ele>
        <time>2019-09-27T08:58:53.000Z</time>
      </trkpt>
      <trkpt lat="44.09243" lon="7.05028">
        <ele>1326.01</ele>
        <time>2019-09-27T08:58:58.000Z</time>
      </trkpt>
      <trkpt lat="44.09255" lon="7.05037">
        <ele>1326.46</ele>
        <time>2019-09-27T08:59:03.000Z</time>
      </trkpt>
      <trkpt lat="44.09264" lon="7.05043">
        <ele>1327.51</ele>
        <time>2019-09-27T08:59:08.000Z</time>
      </trkpt>
      <trkpt lat="44.09272" lon="7.05051">
        <ele>1328.02</ele>
        <time>2019-09-27T08:59:14.000Z</time>
      </trkpt>
      <trkpt lat="44.09278" lon="7.05061">
        <ele>1334.04</ele>
        <time>2019-09-27T09:02:31.000Z</time>
      </trkpt>
      <trkpt lat="44.09279" lon="7.05074">
        <ele>1342.19</ele>
        <time>2019-09-27T09:05:02.000Z</time>
      </trkpt>
      <trkpt lat="44.09282" lon="7.0509">
        <ele>1342.92</ele>
        <time>2019-09-27T09:05:10.000Z</time>
      </trkpt>
      <trkpt lat="44.09283" lon="7.05109">
        <ele>1343.98</ele>
        <time>2019-09-27T09:05:15.000Z</time>
      </trkpt>
      <trkpt lat="44.0929" lon="7.0512">
        <ele>1339.06</ele>
        <time>2019-09-27T09:05:22.000Z</time>
      </trkpt>
      <trkpt lat="44.09299" lon="7.05129">
        <ele>1334.19</ele>
        <time>2019-09-27T09:05:27.000Z</time>
      </trkpt>
      <trkpt lat="44.09305" lon="7.05138">
        <ele>1335.67</ele>
        <time>2019-09-27T09:05:34.000Z</time>
      </trkpt>
      <trkpt lat="44.09314" lon="7.05142">
        <ele>1334.06</ele>
        <time>2019-09-27T09:05:42.000Z</time>
      </trkpt>
      <trkpt lat="44.09321" lon="7.05133">
        <ele>1329.6</ele>
        <time>2019-09-27T09:06:49.000Z</time>
      </trkpt>
      <trkpt lat="44.09327" lon="7.05123">
        <ele>1338.33</ele>
        <time>2019-09-27T09:10:49.000Z</time>
      </trkpt>
      <trkpt lat="44.09336" lon="7.05127">
        <ele>1337.26</ele>
        <time>2019-09-27T09:11:00.000Z</time>
      </trkpt>
      <trkpt lat="44.09345" lon="7.0513">
        <ele>1338.12</ele>
        <time>2019-09-27T09:11:05.000Z</time>
      </trkpt>
      <trkpt lat="44.09355" lon="7.05126">
        <ele>1338.08</ele>
        <time>2019-09-27T09:11:13.000Z</time>
      </trkpt>
      <trkpt lat="44.09365" lon="7.05115">
        <ele>1336.63</ele>
        <time>2019-09-27T09:11:21.000Z</time>
      </trkpt>
      <trkpt lat="44.09373" lon="7.05106">
        <ele>1335.47</ele>
        <time>2019-09-27T09:11:26.000Z</time>
      </trkpt>
      <trkpt lat="44.09363" lon="7.05106">
        <ele>1333.03</ele>
        <time>2019-09-27T09:12:40.000Z</time>
      </trkpt>
      <trkpt lat="44.09347" lon="7.05115">
        <ele>1339.54</ele>
        <time>2019-09-27T09:12:45.000Z</time>
      </trkpt>
      <trkpt lat="44.09341" lon="7.05126">
        <ele>1345.77</ele>
        <time>2019-09-27T09:12:50.000Z</time>
      </trkpt>
      <trkpt lat="44.09333" lon="7.05133">
        <ele>1343.74</ele>
        <time>2019-09-27T09:13:56.000Z</time>
      </trkpt>
      <trkpt lat="44.09323" lon="7.0513">
        <ele>1333.4</ele>
        <time>2019-09-27T09:14:11.000Z</time>
      </trkpt>
      <trkpt lat="44.09317" lon="7.05121">
        <ele>1333.68</ele>
        <time>2019-09-27T09:14:19.000Z</time>
      </trkpt>
      <trkpt lat="44.09308" lon="7.05117">
        <ele>1336.33</ele>
        <time>2019-09-27T09:14:27.000Z</time>
      </trkpt>
      <trkpt lat="44.093" lon="7.05124">
        <ele>1335.4</ele>
        <time>2019-09-27T09:14:35.000Z</time>
      </trkpt>
      <trkpt lat="44.09291" lon="7.0512">
        <ele>1335.98</ele>
        <time>2019-09-27T09:14:54.000Z</time>
      </trkpt>
      <trkpt lat="44.093" lon="7.05118">
        <ele>1337.24</ele>
        <time>2019-09-27T09:15:00.000Z</time>
      </trkpt>
      <trkpt lat="44.09298" lon="7.05104">
        <ele>1335.8</ele>
        <time>2019-09-27T09:15:09.000Z</time>
      </trkpt>
      <trkpt lat="44.09293" lon="7.05091">
        <ele>1334.82</ele>
        <time>2019-09-27T09:15:14.000Z</time>
      </trkpt>
      <trkpt lat="44.0929" lon="7.05079">
        <ele>1337.48</ele>
        <time>2019-09-27T09:15:20.000Z</time>
      </trkpt>
      <trkpt lat="44.09283" lon="7.0507">
        <ele>1340.56</ele>
        <time>2019-09-27T09:15:28.000Z</time>
      </trkpt>
      <trkpt lat="44.09279" lon="7.05058">
        <ele>1335.11</ele>
        <time>2019-09-27T09:15:44.000Z</time>
      </trkpt>
      <trkpt lat="44.09271" lon="7.0505">
        <ele>1334.33</ele>
        <time>2019-09-27T09:16:00.000Z</time>
      </trkpt>
      <trkpt lat="44.09264" lon="7.05041">
        <ele>1326.69</ele>
        <time>2019-09-27T09:16:16.000Z</time>
      </trkpt>
      <trkpt lat="44.09255" lon="7.05036">
        <ele>1328.4</ele>
        <time>2019-09-27T09:17:16.000Z</time>
      </trkpt>
      <trkpt lat="44.09245" lon="7.05031">
        <ele>1326.59</ele>
        <time>2019-09-27T09:17:22.000Z</time>
      </trkpt>
      <trkpt lat="44.09235" lon="7.05018">
        <ele>1322.93</ele>
        <time>2019-09-27T09:17:27.000Z</time>
      </trkpt>
      <trkpt lat="44.09219" lon="7.04998">
        <ele>1320.83</ele>
        <time>2019-09-27T09:17:32.000Z</time>
      </trkpt>
      <trkpt lat="44.09206" lon="7.04969">
        <ele>1321.17</ele>
        <time>2019-09-27T09:17:37.000Z</time>
      </trkpt>
      <trkpt lat="44.09193" lon="7.04931">
        <ele>1321.67</ele>
        <time>2019-09-27T09:17:42.000Z</time>
      </trkpt>
      <trkpt lat="44.09184" lon="7.0491">
        <ele>1320.94</ele>
        <time>2019-09-27T09:17:47.000Z</time>
      </trkpt>
      <trkpt lat="44.09179" lon="7.0489">
        <ele>1316.03</ele>
        <time>2019-09-27T09:17:52.000Z</time>
      </trkpt>
      <trkpt lat="44.09165" lon="7.0485">
        <ele>1315.34</ele>
        <time>2019-09-27T09:17:57.000Z</time>
      </trkpt>
      <trkpt lat="44.09148" lon="7.04796">
        <ele>1312.18</ele>
        <time>2019-09-27T09:18:02.000Z</time>
      </trkpt>
      <trkpt lat="44.09125" lon="7.04736">
        <ele>1308.86</ele>
        <time>2019-09-27T09:18:07.000Z</time>
      </trkpt>
      <trkpt lat="44.09107" lon="7.04673">
        <ele>1303.05</ele>
        <time>2019-09-27T09:18:12.000Z</time>
      </trkpt>
      <trkpt lat="44.09094" lon="7.04607">
        <ele>1296.65</ele>
        <time>2019-09-27T09:18:17.000Z</time>
      </trkpt>
      <trkpt lat="44.09099" lon="7.04562">
        <ele>1293.39</ele>
        <time>2019-09-27T09:18:22.000Z</time>
      </trkpt>
      <trkpt lat="44.09085" lon="7.04565">
        <ele>1293.39</ele>
        <time>2019-09-27T09:18:27.000Z</time>
      </trkpt>
      <trkpt lat="44.09085" lon="7.04599">
        <ele>1291.8</ele>
        <time>2019-09-27T09:18:32.000Z</time>
      </trkpt>
      <trkpt lat="44.09081" lon="7.04643">
        <ele>1291.45</ele>
        <time>2019-09-27T09:18:37.000Z</time>
      </trkpt>
      <trkpt lat="44.09083" lon="7.04695">
        <ele>1289.09</ele>
        <time>2019-09-27T09:18:42.000Z</time>
      </trkpt>
      <trkpt lat="44.09079" lon="7.04762">
        <ele>1281.71</ele>
        <time>2019-09-27T09:18:47.000Z</time>
      </trkpt>
      <trkpt lat="44.09084" lon="7.04818">
        <ele>1280.13</ele>
        <time>2019-09-27T09:18:52.000Z</time>
      </trkpt>
      <trkpt lat="44.09091" lon="7.04875">
        <ele>1276.63</ele>
        <time>2019-09-27T09:18:57.000Z</time>
      </trkpt>
      <trkpt lat="44.09105" lon="7.04931">
        <ele>1270.23</ele>
        <time>2019-09-27T09:19:02.000Z</time>
      </trkpt>
      <trkpt lat="44.09116" lon="7.0498">
        <ele>1265.5</ele>
        <time>2019-09-27T09:19:07.000Z</time>
      </trkpt>
      <trkpt lat="44.09134" lon="7.05026">
        <ele>1263.23</ele>
        <time>2019-09-27T09:19:12.000Z</time>
      </trkpt>
      <trkpt lat="44.09145" lon="7.05066">
        <ele>1260.65</ele>
        <time>2019-09-27T09:19:17.000Z</time>
      </trkpt>
      <trkpt lat="44.09163" lon="7.0508">
        <ele>1259.27</ele>
        <time>2019-09-27T09:19:22.000Z</time>
      </trkpt>
      <trkpt lat="44.09189" lon="7.05101">
        <ele>1256.58</ele>
        <time>2019-09-27T09:19:27.000Z</time>
      </trkpt>
      <trkpt lat="44.09216" lon="7.05132">
        <ele>1253.37</ele>
        <time>2019-09-27T09:19:32.000Z</time>
      </trkpt>
      <trkpt lat="44.09225" lon="7.05186">
        <ele>1254.53</ele>
        <time>2019-09-27T09:19:37.000Z</time>
      </trkpt>
      <trkpt lat="44.09238" lon="7.05234">
        <ele>1250.95</ele>
        <time>2019-09-27T09:19:42.000Z</time>
      </trkpt>
      <trkpt lat="44.09264" lon="7.05274">
        <ele>1247.07</ele>
        <time>2019-09-27T09:19:47.000Z</time>
      </trkpt>
      <trkpt lat="44.09292" lon="7.05299">
        <ele>1246.41</ele>
        <time>2019-09-27T09:19:52.000Z</time>
      </trkpt>
      <trkpt lat="44.09283" lon="7.05294">
        <ele>1241.66</ele>
        <time>2019-09-27T09:19:57.000Z</time>
      </trkpt>
      <trkpt lat="44.09261" lon="7.05275">
        <ele>1240.74</ele>
        <time>2019-09-27T09:20:02.000Z</time>
      </trkpt>
      <trkpt lat="44.09234" lon="7.05248">
        <ele>1237.38</ele>
        <time>2019-09-27T09:20:07.000Z</time>
      </trkpt>
      <trkpt lat="44.0921" lon="7.05211">
        <ele>1235.39</ele>
        <time>2019-09-27T09:20:12.000Z</time>
      </trkpt>
      <trkpt lat="44.09195" lon="7.05161">
        <ele>1232.06</ele>
        <time>2019-09-27T09:20:17.000Z</time>
      </trkpt>
      <trkpt lat="44.09163" lon="7.05129">
        <ele>1222.99</ele>
        <time>2019-09-27T09:20:22.000Z</time>
      </trkpt>
      <trkpt lat="44.09126" lon="7.051">
        <ele>1219.92</ele>
        <time>2019-09-27T09:20:27.000Z</time>
      </trkpt>
      <trkpt lat="44.09088" lon="7.05063">
        <ele>1218.19</ele>
        <time>2019-09-27T09:20:32.000Z</time>
      </trkpt>
      <trkpt lat="44.09046" lon="7.05055">
        <ele>1212.62</ele>
        <time>2019-09-27T09:20:37.000Z</time>
      </trkpt>
      <trkpt lat="44.09038" lon="7.05084">
        <ele>1211.76</ele>
        <time>2019-09-27T09:20:42.000Z</time>
      </trkpt>
      <trkpt lat="44.09061" lon="7.05125">
        <ele>1214.1</ele>
        <time>2019-09-27T09:20:47.000Z</time>
      </trkpt>
      <trkpt lat="44.09078" lon="7.05167">
        <ele>1215.45</ele>
        <time>2019-09-27T09:20:52.000Z</time>
      </trkpt>
      <trkpt lat="44.09066" lon="7.05222">
        <ele>1211.01</ele>
        <time>2019-09-27T09:20:57.000Z</time>
      </trkpt>
      <trkpt lat="44.09065" lon="7.05281">
        <ele>1210.26</ele>
        <time>2019-09-27T09:21:02.000Z</time>
      </trkpt>
      <trkpt lat="44.09064" lon="7.05344">
        <ele>1210.74</ele>
        <time>2019-09-27T09:21:07.000Z</time>
      </trkpt>
      <trkpt lat="44.09056" lon="7.05412">
        <ele>1209.28</ele>
        <time>2019-09-27T09:21:12.000Z</time>
      </trkpt>
      <trkpt lat="44.09051" lon="7.05484">
        <ele>1208.3</ele>
        <time>2019-09-27T09:21:17.000Z</time>
      </trkpt>
      <trkpt lat="44.09052" lon="7.05551">
        <ele>1207.74</ele>
        <time>2019-09-27T09:21:22.000Z</time>
      </trkpt>
      <trkpt lat="44.0904" lon="7.05629">
        <ele>1200.17</ele>
        <time>2019-09-27T09:21:27.000Z</time>
      </trkpt>
      <trkpt lat="44.09033" lon="7.05689">
        <ele>1189.28</ele>
        <time>2019-09-27T09:21:32.000Z</time>
      </trkpt>
      <trkpt lat="44.09017" lon="7.05729">
        <ele>1179.73</ele>
        <time>2019-09-27T09:21:37.000Z</time>
      </trkpt>
      <trkpt lat="44.08981" lon="7.0575">
        <ele>1175.38</ele>
        <time>2019-09-27T09:21:42.000Z</time>
      </trkpt>
      <trkpt lat="44.08951" lon="7.05783">
        <ele>1173.03</ele>
        <time>2019-09-27T09:21:47.000Z</time>
      </trkpt>
      <trkpt lat="44.08933" lon="7.0583">
        <ele>1169.7</ele>
        <time>2019-09-27T09:21:52.000Z</time>
      </trkpt>
      <trkpt lat="44.08902" lon="7.05859">
        <ele>1168.13</ele>
        <time>2019-09-27T09:21:57.000Z</time>
      </trkpt>
      <trkpt lat="44.08876" lon="7.05836">
        <ele>1167.76</ele>
        <time>2019-09-27T09:22:02.000Z</time>
      </trkpt>
      <trkpt lat="44.08842" lon="7.05818">
        <ele>1164.12</ele>
        <time>2019-09-27T09:22:07.000Z</time>
      </trkpt>
      <trkpt lat="44.08804" lon="7.05806">
        <ele>1156.62</ele>
        <time>2019-09-27T09:22:12.000Z</time>
      </trkpt>
      <trkpt lat="44.0876" lon="7.05809">
        <ele>1153.19</ele>
        <time>2019-09-27T09:22:17.000Z</time>
      </trkpt>
      <trkpt lat="44.08719" lon="7.05821">
        <ele>1147.89</ele>
        <time>2019-09-27T09:22:22.000Z</time>
      </trkpt>
      <trkpt lat="44.08686" lon="7.05795">
        <ele>1148.53</ele>
        <time>2019-09-27T09:22:27.000Z</time>
      </trkpt>
      <trkpt lat="44.08656" lon="7.05761">
        <ele>1144.3</ele>
        <time>2019-09-27T09:22:32.000Z</time>
      </trkpt>
      <trkpt lat="44.08637" lon="7.05727">
        <ele>1141.57</ele>
        <time>2019-09-27T09:22:37.000Z</time>
      </trkpt>
      <trkpt lat="44.08612" lon="7.05707">
        <ele>1134.77</ele>
        <time>2019-09-27T09:22:42.000Z</time>
      </trkpt>
      <trkpt lat="44.08579" lon="7.0567">
        <ele>1132.36</ele>
        <time>2019-09-27T09:22:47.000Z</time>
      </trkpt>
      <trkpt lat="44.08548" lon="7.05694">
        <ele>1126.17</ele>
        <time>2019-09-27T09:22:52.000Z</time>
      </trkpt>
      <trkpt lat="44.08523" lon="7.05698">
        <ele>1125.2</ele>
        <time>2019-09-27T09:22:57.000Z</time>
      </trkpt>
      <trkpt lat="44.0848" lon="7.05683">
        <ele>1119.71</ele>
        <time>2019-09-27T09:23:02.000Z</time>
      </trkpt>
      <trkpt lat="44.08441" lon="7.05691">
        <ele>1116.54</ele>
        <time>2019-09-27T09:23:07.000Z</time>
      </trkpt>
      <trkpt lat="44.08404" lon="7.05692">
        <ele>1109.92</ele>
        <time>2019-09-27T09:23:12.000Z</time>
      </trkpt>
      <trkpt lat="44.08419" lon="7.05712">
        <ele>1109.66</ele>
        <time>2019-09-27T09:23:17.000Z</time>
      </trkpt>
      <trkpt lat="44.08448" lon="7.05712">
        <ele>1111.13</ele>
        <time>2019-09-27T09:23:22.000Z</time>
      </trkpt>
      <trkpt lat="44.08494" lon="7.05719">
        <ele>1111.84</ele>
        <time>2019-09-27T09:23:27.000Z</time>
      </trkpt>
      <trkpt lat="44.08529" lon="7.05745">
        <ele>1109.62</ele>
        <time>2019-09-27T09:23:32.000Z</time>
      </trkpt>
      <trkpt lat="44.08575" lon="7.05762">
        <ele>1112.09</ele>
        <time>2019-09-27T09:23:37.000Z</time>
      </trkpt>
      <trkpt lat="44.0862" lon="7.05798">
        <ele>1110.35</ele>
        <time>2019-09-27T09:23:42.000Z</time>
      </trkpt>
      <trkpt lat="44.08639" lon="7.05858">
        <ele>1108.07</ele>
        <time>2019-09-27T09:23:47.000Z</time>
      </trkpt>
      <trkpt lat="44.0867" lon="7.05903">
        <ele>1108.49</ele>
        <time>2019-09-27T09:23:52.000Z</time>
      </trkpt>
      <trkpt lat="44.08729" lon="7.05937">
        <ele>1102.18</ele>
        <time>2019-09-27T09:23:57.000Z</time>
      </trkpt>
      <trkpt lat="44.08767" lon="7.0597">
        <ele>1095.63</ele>
        <time>2019-09-27T09:24:02.000Z</time>
      </trkpt>
      <trkpt lat="44.08794" lon="7.06023">
        <ele>1090.96</ele>
        <time>2019-09-27T09:24:07.000Z</time>
      </trkpt>
      <trkpt lat="44.08824" lon="7.0609">
        <ele>1084.99</ele>
        <time>2019-09-27T09:24:12.000Z</time>
      </trkpt>
      <trkpt lat="44.08848" lon="7.06142">
        <ele>1082.09</ele>
        <time>2019-09-27T09:24:17.000Z</time>
      </trkpt>
      <trkpt lat="44.08885" lon="7.06135">
        <ele>1074.3</ele>
        <time>2019-09-27T09:24:22.000Z</time>
      </trkpt>
      <trkpt lat="44.08902" lon="7.06088">
        <ele>1068.69</ele>
        <time>2019-09-27T09:24:27.000Z</time>
      </trkpt>
      <trkpt lat="44.08928" lon="7.06048">
        <ele>1065.26</ele>
        <time>2019-09-27T09:24:32.000Z</time>
      </trkpt>
      <trkpt lat="44.08964" lon="7.06016">
        <ele>1058.61</ele>
        <time>2019-09-27T09:24:37.000Z</time>
      </trkpt>
      <trkpt lat="44.08997" lon="7.05989">
        <ele>1055.87</ele>
        <time>2019-09-27T09:24:42.000Z</time>
      </trkpt>
      <trkpt lat="44.0902" lon="7.05959">
        <ele>1056.51</ele>
        <time>2019-09-27T09:24:47.000Z</time>
      </trkpt>
      <trkpt lat="44.09032" lon="7.05914">
        <ele>1058.11</ele>
        <time>2019-09-27T09:24:52.000Z</time>
      </trkpt>
      <trkpt lat="44.09052" lon="7.05908">
        <ele>1056.38</ele>
        <time>2019-09-27T09:24:57.000Z</time>
      </trkpt>
      <trkpt lat="44.09082" lon="7.05915">
        <ele>1050.07</ele>
        <time>2019-09-27T09:25:02.000Z</time>
      </trkpt>
      <trkpt lat="44.09103" lon="7.05886">
        <ele>1042.7</ele>
        <time>2019-09-27T09:25:07.000Z</time>
      </trkpt>
      <trkpt lat="44.09122" lon="7.05836">
        <ele>1039.88</ele>
        <time>2019-09-27T09:25:12.000Z</time>
      </trkpt>
      <trkpt lat="44.09153" lon="7.05791">
        <ele>1038.37</ele>
        <time>2019-09-27T09:25:17.000Z</time>
      </trkpt>
      <trkpt lat="44.09172" lon="7.05752">
        <ele>1035.4</ele>
        <time>2019-09-27T09:25:22.000Z</time>
      </trkpt>
      <trkpt lat="44.09202" lon="7.05765">
        <ele>1033.8</ele>
        <time>2019-09-27T09:25:27.000Z</time>
      </trkpt>
      <trkpt lat="44.09231" lon="7.05748">
        <ele>1029.41</ele>
        <time>2019-09-27T09:25:32.000Z</time>
      </trkpt>
      <trkpt lat="44.09268" lon="7.05719">
        <ele>1026.07</ele>
        <time>2019-09-27T09:25:37.000Z</time>
      </trkpt>
      <trkpt lat="44.09311" lon="7.05719">
        <ele>1018.44</ele>
        <time>2019-09-27T09:25:42.000Z</time>
      </trkpt>
      <trkpt lat="44.09349" lon="7.05695">
        <ele>1014.75</ele>
        <time>2019-09-27T09:25:47.000Z</time>
      </trkpt>
      <trkpt lat="44.09388" lon="7.05656">
        <ele>1011.31</ele>
        <time>2019-09-27T09:25:52.000Z</time>
      </trkpt>
      <trkpt lat="44.0943" lon="7.05615">
        <ele>1006.21</ele>
        <time>2019-09-27T09:25:57.000Z</time>
      </trkpt>
      <trkpt lat="44.09472" lon="7.05582">
        <ele>1006.9</ele>
        <time>2019-09-27T09:26:02.000Z</time>
      </trkpt>
      <trkpt lat="44.09506" lon="7.0557">
        <ele>1007.75</ele>
        <time>2019-09-27T09:26:07.000Z</time>
      </trkpt>
      <trkpt lat="44.09548" lon="7.05553">
        <ele>1003.31</ele>
        <time>2019-09-27T09:26:12.000Z</time>
      </trkpt>
      <trkpt lat="44.09586" lon="7.05555">
        <ele>999.15</ele>
        <time>2019-09-27T09:26:17.000Z</time>
      </trkpt>
      <trkpt lat="44.09622" lon="7.05562">
        <ele>996.17</ele>
        <time>2019-09-27T09:26:22.000Z</time>
      </trkpt>
      <trkpt lat="44.0964" lon="7.05589">
        <ele>992.55</ele>
        <time>2019-09-27T09:26:27.000Z</time>
      </trkpt>
      <trkpt lat="44.09657" lon="7.05596">
        <ele>990.72</ele>
        <time>2019-09-27T09:26:32.000Z</time>
      </trkpt>
      <trkpt lat="44.09663" lon="7.05627">
        <ele>992.02</ele>
        <time>2019-09-27T09:26:37.000Z</time>
      </trkpt>
      <trkpt lat="44.09641" lon="7.05647">
        <ele>991.75</ele>
        <time>2019-09-27T09:26:42.000Z</time>
      </trkpt>
      <trkpt lat="44.0959" lon="7.05633">
        <ele>991.36</ele>
        <time>2019-09-27T09:26:49.000Z</time>
      </trkpt>
      <trkpt lat="44.09559" lon="7.05655">
        <ele>988.22</ele>
        <time>2019-09-27T09:26:54.000Z</time>
      </trkpt>
      <trkpt lat="44.09543" lon="7.05678">
        <ele>988</ele>
        <time>2019-09-27T09:26:59.000Z</time>
      </trkpt>
      <trkpt lat="44.09498" lon="7.05675">
        <ele>985.45</ele>
        <time>2019-09-27T09:27:04.000Z</time>
      </trkpt>
      <trkpt lat="44.0947" lon="7.05706">
        <ele>971.29</ele>
        <time>2019-09-27T09:27:09.000Z</time>
      </trkpt>
      <trkpt lat="44.09449" lon="7.05746">
        <ele>969.41</ele>
        <time>2019-09-27T09:27:14.000Z</time>
      </trkpt>
      <trkpt lat="44.09436" lon="7.05804">
        <ele>964.09</ele>
        <time>2019-09-27T09:27:19.000Z</time>
      </trkpt>
      <trkpt lat="44.09408" lon="7.05833">
        <ele>957.94</ele>
        <time>2019-09-27T09:27:24.000Z</time>
      </trkpt>
      <trkpt lat="44.09384" lon="7.05874">
        <ele>952.07</ele>
        <time>2019-09-27T09:27:29.000Z</time>
      </trkpt>
      <trkpt lat="44.09374" lon="7.05929">
        <ele>950.91</ele>
        <time>2019-09-27T09:27:34.000Z</time>
      </trkpt>
      <trkpt lat="44.09345" lon="7.05976">
        <ele>947.43</ele>
        <time>2019-09-27T09:27:39.000Z</time>
      </trkpt>
      <trkpt lat="44.09316" lon="7.06033">
        <ele>944.11</ele>
        <time>2019-09-27T09:27:44.000Z</time>
      </trkpt>
      <trkpt lat="44.09271" lon="7.06072">
        <ele>939.58</ele>
        <time>2019-09-27T09:27:49.000Z</time>
      </trkpt>
      <trkpt lat="44.09234" lon="7.06113">
        <ele>936.43</ele>
        <time>2019-09-27T09:27:54.000Z</time>
      </trkpt>
      <trkpt lat="44.09196" lon="7.06171">
        <ele>933.93</ele>
        <time>2019-09-27T09:27:59.000Z</time>
      </trkpt>
      <trkpt lat="44.09151" lon="7.06209">
        <ele>929.07</ele>
        <time>2019-09-27T09:28:04.000Z</time>
      </trkpt>
      <trkpt lat="44.09113" lon="7.06253">
        <ele>923.21</ele>
        <time>2019-09-27T09:28:09.000Z</time>
      </trkpt>
      <trkpt lat="44.09092" lon="7.06297">
        <ele>919.76</ele>
        <time>2019-09-27T09:28:14.000Z</time>
      </trkpt>
      <trkpt lat="44.09081" lon="7.06326">
        <ele>914.01</ele>
        <time>2019-09-27T09:28:19.000Z</time>
      </trkpt>
      <trkpt lat="44.09069" lon="7.06429">
        <ele>910.41</ele>
        <time>2019-09-27T09:28:28.000Z</time>
      </trkpt>
      <trkpt lat="44.09048" lon="7.06477">
        <ele>906.76</ele>
        <time>2019-09-27T09:28:33.000Z</time>
      </trkpt>
      <trkpt lat="44.09032" lon="7.06518">
        <ele>900.71</ele>
        <time>2019-09-27T09:28:38.000Z</time>
      </trkpt>
      <trkpt lat="44.09029" lon="7.0656">
        <ele>891.93</ele>
        <time>2019-09-27T09:28:43.000Z</time>
      </trkpt>
      <trkpt lat="44.09039" lon="7.06598">
        <ele>889.37</ele>
        <time>2019-09-27T09:28:48.000Z</time>
      </trkpt>
      <trkpt lat="44.09021" lon="7.06735">
        <ele>885.28</ele>
        <time>2019-09-27T09:29:04.000Z</time>
      </trkpt>
      <trkpt lat="44.09023" lon="7.06781">
        <ele>881.73</ele>
        <time>2019-09-27T09:29:09.000Z</time>
      </trkpt>
      <trkpt lat="44.09031" lon="7.06821">
        <ele>881.95</ele>
        <time>2019-09-27T09:29:14.000Z</time>
      </trkpt>
      <trkpt lat="44.0901" lon="7.06856">
        <ele>884.6</ele>
        <time>2019-09-27T09:29:19.000Z</time>
      </trkpt>
      <trkpt lat="44.08993" lon="7.0688">
        <ele>885.34</ele>
        <time>2019-09-27T09:29:24.000Z</time>
      </trkpt>
      <trkpt lat="44.0898" lon="7.06941">
        <ele>879.48</ele>
        <time>2019-09-27T09:29:29.000Z</time>
      </trkpt>
      <trkpt lat="44.08963" lon="7.06998">
        <ele>875.72</ele>
        <time>2019-09-27T09:29:34.000Z</time>
      </trkpt>
      <trkpt lat="44.08937" lon="7.07053">
        <ele>870.93</ele>
        <time>2019-09-27T09:29:39.000Z</time>
      </trkpt>
      <trkpt lat="44.0892" lon="7.07108">
        <ele>864.07</ele>
        <time>2019-09-27T09:29:44.000Z</time>
      </trkpt>
      <trkpt lat="44.08923" lon="7.07159">
        <ele>860.98</ele>
        <time>2019-09-27T09:29:49.000Z</time>
      </trkpt>
      <trkpt lat="44.08912" lon="7.07213">
        <ele>856.41</ele>
        <time>2019-09-27T09:29:54.000Z</time>
      </trkpt>
      <trkpt lat="44.08906" lon="7.07253">
        <ele>853.36</ele>
        <time>2019-09-27T09:29:59.000Z</time>
      </trkpt>
      <trkpt lat="44.08946" lon="7.0732">
        <ele>850.21</ele>
        <time>2019-09-27T09:30:09.000Z</time>
      </trkpt>
      <trkpt lat="44.08967" lon="7.07365">
        <ele>845.17</ele>
        <time>2019-09-27T09:30:14.000Z</time>
      </trkpt>
      <trkpt lat="44.08996" lon="7.07409">
        <ele>842.15</ele>
        <time>2019-09-27T09:30:19.000Z</time>
      </trkpt>
      <trkpt lat="44.09008" lon="7.07452">
        <ele>839.14</ele>
        <time>2019-09-27T09:30:24.000Z</time>
      </trkpt>
      <trkpt lat="44.08971" lon="7.07483">
        <ele>834.98</ele>
        <time>2019-09-27T09:30:29.000Z</time>
      </trkpt>
      <trkpt lat="44.0897" lon="7.07522">
        <ele>827.37</ele>
        <time>2019-09-27T09:30:34.000Z</time>
      </trkpt>
      <trkpt lat="44.08974" lon="7.07572">
        <ele>821.34</ele>
        <time>2019-09-27T09:30:39.000Z</time>
      </trkpt>
      <trkpt lat="44.08973" lon="7.07635">
        <ele>821.61</ele>
        <time>2019-09-27T09:30:44.000Z</time>
      </trkpt>
      <trkpt lat="44.08944" lon="7.07671">
        <ele>819.48</ele>
        <time>2019-09-27T09:30:49.000Z</time>
      </trkpt>
      <trkpt lat="44.08921" lon="7.07723">
        <ele>812.85</ele>
        <time>2019-09-27T09:30:54.000Z</time>
      </trkpt>
      <trkpt lat="44.08903" lon="7.07773">
        <ele>803.98</ele>
        <time>2019-09-27T09:30:59.000Z</time>
      </trkpt>
      <trkpt lat="44.08878" lon="7.07821">
        <ele>801.67</ele>
        <time>2019-09-27T09:31:04.000Z</time>
      </trkpt>
      <trkpt lat="44.08849" lon="7.07854">
        <ele>795.94</ele>
        <time>2019-09-27T09:31:09.000Z</time>
      </trkpt>
      <trkpt lat="44.08827" lon="7.07898">
        <ele>788.63</ele>
        <time>2019-09-27T09:31:14.000Z</time>
      </trkpt>
      <trkpt lat="44.08813" lon="7.07953">
        <ele>787.46</ele>
        <time>2019-09-27T09:31:19.000Z</time>
      </trkpt>
      <trkpt lat="44.088" lon="7.08001">
        <ele>788.72</ele>
        <time>2019-09-27T09:31:24.000Z</time>
      </trkpt>
      <trkpt lat="44.08795" lon="7.08059">
        <ele>787.93</ele>
        <time>2019-09-27T09:31:29.000Z</time>
      </trkpt>
      <trkpt lat="44.0878" lon="7.08113">
        <ele>786</ele>
        <time>2019-09-27T09:31:34.000Z</time>
      </trkpt>
      <trkpt lat="44.08767" lon="7.08161">
        <ele>781.44</ele>
        <time>2019-09-27T09:31:39.000Z</time>
      </trkpt>
      <trkpt lat="44.08745" lon="7.08207">
        <ele>781.9</ele>
        <time>2019-09-27T09:31:44.000Z</time>
      </trkpt>
      <trkpt lat="44.08714" lon="7.08225">
        <ele>777.52</ele>
        <time>2019-09-27T09:31:49.000Z</time>
      </trkpt>
      <trkpt lat="44.08701" lon="7.08262">
        <ele>773.49</ele>
        <time>2019-09-27T09:31:54.000Z</time>
      </trkpt>
      <trkpt lat="44.08705" lon="7.08274">
        <ele>766.65</ele>
        <time>2019-09-27T09:35:03.000Z</time>
      </trkpt>
      <trkpt lat="44.08701" lon="7.08294">
        <ele>769.3</ele>
        <time>2019-09-27T09:35:08.000Z</time>
      </trkpt>
      <trkpt lat="44.08679" lon="7.08315">
        <ele>767.95</ele>
        <time>2019-09-27T09:35:13.000Z</time>
      </trkpt>
      <trkpt lat="44.08654" lon="7.08345">
        <ele>765.95</ele>
        <time>2019-09-27T09:35:18.000Z</time>
      </trkpt>
      <trkpt lat="44.0863" lon="7.08387">
        <ele>761.66</ele>
        <time>2019-09-27T09:35:23.000Z</time>
      </trkpt>
      <trkpt lat="44.08596" lon="7.08427">
        <ele>760.2</ele>
        <time>2019-09-27T09:35:28.000Z</time>
      </trkpt>
      <trkpt lat="44.0856" lon="7.0845">
        <ele>758.46</ele>
        <time>2019-09-27T09:35:33.000Z</time>
      </trkpt>
      <trkpt lat="44.08526" lon="7.08482">
        <ele>752.13</ele>
        <time>2019-09-27T09:35:38.000Z</time>
      </trkpt>
      <trkpt lat="44.08519" lon="7.08529">
        <ele>747.82</ele>
        <time>2019-09-27T09:35:43.000Z</time>
      </trkpt>
      <trkpt lat="44.08525" lon="7.08588">
        <ele>744.41</ele>
        <time>2019-09-27T09:35:48.000Z</time>
      </trkpt>
      <trkpt lat="44.08531" lon="7.08648">
        <ele>740.69</ele>
        <time>2019-09-27T09:35:53.000Z</time>
      </trkpt>
      <trkpt lat="44.08538" lon="7.08706">
        <ele>739.03</ele>
        <time>2019-09-27T09:35:58.000Z</time>
      </trkpt>
      <trkpt lat="44.08543" lon="7.08767">
        <ele>737.95</ele>
        <time>2019-09-27T09:36:03.000Z</time>
      </trkpt>
      <trkpt lat="44.08534" lon="7.08838">
        <ele>736.03</ele>
        <time>2019-09-27T09:36:08.000Z</time>
      </trkpt>
      <trkpt lat="44.08524" lon="7.08898">
        <ele>732.65</ele>
        <time>2019-09-27T09:36:13.000Z</time>
      </trkpt>
      <trkpt lat="44.08525" lon="7.08933">
        <ele>729.61</ele>
        <time>2019-09-27T09:36:18.000Z</time>
      </trkpt>
      <trkpt lat="44.08546" lon="7.08957">
        <ele>726.73</ele>
        <time>2019-09-27T09:36:23.000Z</time>
      </trkpt>
      <trkpt lat="44.0856" lon="7.08967">
        <ele>727.58</ele>
        <time>2019-09-27T09:36:28.000Z</time>
      </trkpt>
      <trkpt lat="44.08572" lon="7.08968">
        <ele>727.05</ele>
        <time>2019-09-27T09:36:33.000Z</time>
      </trkpt>
      <trkpt lat="44.08632" lon="7.0907">
        <ele>724.56</ele>
        <time>2019-09-27T09:36:47.000Z</time>
      </trkpt>
      <trkpt lat="44.08649" lon="7.09102">
        <ele>720.7</ele>
        <time>2019-09-27T09:36:52.000Z</time>
      </trkpt>
      <trkpt lat="44.08654" lon="7.09148">
        <ele>718.53</ele>
        <time>2019-09-27T09:36:57.000Z</time>
      </trkpt>
      <trkpt lat="44.08652" lon="7.09188">
        <ele>717.07</ele>
        <time>2019-09-27T09:37:02.000Z</time>
      </trkpt>
      <trkpt lat="44.08645" lon="7.09237">
        <ele>709.59</ele>
        <time>2019-09-27T09:37:07.000Z</time>
      </trkpt>
      <trkpt lat="44.08642" lon="7.09275">
        <ele>699.05</ele>
        <time>2019-09-27T09:37:12.000Z</time>
      </trkpt>
      <trkpt lat="44.08655" lon="7.0931">
        <ele>697.69</ele>
        <time>2019-09-27T09:37:17.000Z</time>
      </trkpt>
      <trkpt lat="44.0866" lon="7.0935">
        <ele>696.04</ele>
        <time>2019-09-27T09:37:22.000Z</time>
      </trkpt>
      <trkpt lat="44.08643" lon="7.09393">
        <ele>694.28</ele>
        <time>2019-09-27T09:37:27.000Z</time>
      </trkpt>
      <trkpt lat="44.08629" lon="7.09445">
        <ele>695.06</ele>
        <time>2019-09-27T09:37:32.000Z</time>
      </trkpt>
      <trkpt lat="44.08604" lon="7.09501">
        <ele>692.07</ele>
        <time>2019-09-27T09:37:37.000Z</time>
      </trkpt>
      <trkpt lat="44.08571" lon="7.09554">
        <ele>690.68</ele>
        <time>2019-09-27T09:37:42.000Z</time>
      </trkpt>
      <trkpt lat="44.08529" lon="7.09609">
        <ele>687.78</ele>
        <time>2019-09-27T09:37:47.000Z</time>
      </trkpt>
      <trkpt lat="44.08503" lon="7.09649">
        <ele>683.9</ele>
        <time>2019-09-27T09:37:52.000Z</time>
      </trkpt>
      <trkpt lat="44.08471" lon="7.09663">
        <ele>681.84</ele>
        <time>2019-09-27T09:37:57.000Z</time>
      </trkpt>
      <trkpt lat="44.0845" lon="7.0971">
        <ele>675.61</ele>
        <time>2019-09-27T09:38:02.000Z</time>
      </trkpt>
      <trkpt lat="44.08426" lon="7.0976">
        <ele>671.08</ele>
        <time>2019-09-27T09:38:07.000Z</time>
      </trkpt>
      <trkpt lat="44.08393" lon="7.09792">
        <ele>667.81</ele>
        <time>2019-09-27T09:38:12.000Z</time>
      </trkpt>
      <trkpt lat="44.08374" lon="7.09813">
        <ele>660.34</ele>
        <time>2019-09-27T09:38:17.000Z</time>
      </trkpt>
      <trkpt lat="44.08374" lon="7.09854">
        <ele>658.46</ele>
        <time>2019-09-27T09:38:22.000Z</time>
      </trkpt>
      <trkpt lat="44.08401" lon="7.09864">
        <ele>656.46</ele>
        <time>2019-09-27T09:38:27.000Z</time>
      </trkpt>
      <trkpt lat="44.08437" lon="7.09876">
        <ele>658.61</ele>
        <time>2019-09-27T09:38:32.000Z</time>
      </trkpt>
      <trkpt lat="44.08471" lon="7.09907">
        <ele>652.9</ele>
        <time>2019-09-27T09:38:37.000Z</time>
      </trkpt>
      <trkpt lat="44.08509" lon="7.09928">
        <ele>644.39</ele>
        <time>2019-09-27T09:38:42.000Z</time>
      </trkpt>
      <trkpt lat="44.08539" lon="7.09966">
        <ele>639.25</ele>
        <time>2019-09-27T09:38:47.000Z</time>
      </trkpt>
      <trkpt lat="44.08571" lon="7.09981">
        <ele>633.77</ele>
        <time>2019-09-27T09:38:52.000Z</time>
      </trkpt>
      <trkpt lat="44.08595" lon="7.10027">
        <ele>629.01</ele>
        <time>2019-09-27T09:38:57.000Z</time>
      </trkpt>
      <trkpt lat="44.08624" lon="7.10074">
        <ele>624.35</ele>
        <time>2019-09-27T09:39:02.000Z</time>
      </trkpt>
      <trkpt lat="44.08632" lon="7.10128">
        <ele>624.94</ele>
        <time>2019-09-27T09:39:07.000Z</time>
      </trkpt>
      <trkpt lat="44.08643" lon="7.10182">
        <ele>623.51</ele>
        <time>2019-09-27T09:39:12.000Z</time>
      </trkpt>
      <trkpt lat="44.08659" lon="7.10219">
        <ele>619.87</ele>
        <time>2019-09-27T09:39:17.000Z</time>
      </trkpt>
      <trkpt lat="44.08686" lon="7.10234">
        <ele>615.37</ele>
        <time>2019-09-27T09:39:22.000Z</time>
      </trkpt>
      <trkpt lat="44.08725" lon="7.10233">
        <ele>613.44</ele>
        <time>2019-09-27T09:39:27.000Z</time>
      </trkpt>
      <trkpt lat="44.08767" lon="7.10219">
        <ele>610.52</ele>
        <time>2019-09-27T09:39:32.000Z</time>
      </trkpt>
      <trkpt lat="44.08792" lon="7.10242">
        <ele>606.72</ele>
        <time>2019-09-27T09:39:37.000Z</time>
      </trkpt>
      <trkpt lat="44.08816" lon="7.1027">
        <ele>602.41</ele>
        <time>2019-09-27T09:39:42.000Z</time>
      </trkpt>
      <trkpt lat="44.08847" lon="7.10288">
        <ele>603.94</ele>
        <time>2019-09-27T09:39:47.000Z</time>
      </trkpt>
      <trkpt lat="44.08865" lon="7.10312">
        <ele>603.3</ele>
        <time>2019-09-27T09:39:52.000Z</time>
      </trkpt>
      <trkpt lat="44.08854" lon="7.10318">
        <ele>600.61</ele>
        <time>2019-09-27T09:39:57.000Z</time>
      </trkpt>
      <trkpt lat="44.08826" lon="7.10302">
        <ele>599.56</ele>
        <time>2019-09-27T09:40:02.000Z</time>
      </trkpt>
      <trkpt lat="44.08786" lon="7.10287">
        <ele>596.32</ele>
        <time>2019-09-27T09:40:07.000Z</time>
      </trkpt>
      <trkpt lat="44.08749" lon="7.10279">
        <ele>593.86</ele>
        <time>2019-09-27T09:40:12.000Z</time>
      </trkpt>
      <trkpt lat="44.0871" lon="7.10282">
        <ele>589.12</ele>
        <time>2019-09-27T09:40:17.000Z</time>
      </trkpt>
      <trkpt lat="44.08678" lon="7.10303">
        <ele>588</ele>
        <time>2019-09-27T09:40:22.000Z</time>
      </trkpt>
      <trkpt lat="44.08643" lon="7.10317">
        <ele>583.6</ele>
        <time>2019-09-27T09:40:27.000Z</time>
      </trkpt>
      <trkpt lat="44.08613" lon="7.10292">
        <ele>580.08</ele>
        <time>2019-09-27T09:40:32.000Z</time>
      </trkpt>
      <trkpt lat="44.08598" lon="7.10247">
        <ele>575.97</ele>
        <time>2019-09-27T09:40:37.000Z</time>
      </trkpt>
      <trkpt lat="44.08577" lon="7.10201">
        <ele>575.14</ele>
        <time>2019-09-27T09:40:42.000Z</time>
      </trkpt>
      <trkpt lat="44.08562" lon="7.10153">
        <ele>571.46</ele>
        <time>2019-09-27T09:40:47.000Z</time>
      </trkpt>
      <trkpt lat="44.08541" lon="7.10116">
        <ele>570.55</ele>
        <time>2019-09-27T09:40:52.000Z</time>
      </trkpt>
      <trkpt lat="44.08503" lon="7.10107">
        <ele>568.8</ele>
        <time>2019-09-27T09:40:57.000Z</time>
      </trkpt>
      <trkpt lat="44.08471" lon="7.10112">
        <ele>566.12</ele>
        <time>2019-09-27T09:41:02.000Z</time>
      </trkpt>
      <trkpt lat="44.08473" lon="7.1013">
        <ele>563.4</ele>
        <time>2019-09-27T09:41:07.000Z</time>
      </trkpt>
      <trkpt lat="44.08484" lon="7.10131">
        <ele>560.91</ele>
        <time>2019-09-27T09:41:12.000Z</time>
      </trkpt>
      <trkpt lat="44.08495" lon="7.10132">
        <ele>557.11</ele>
        <time>2019-09-27T09:49:28.000Z</time>
      </trkpt>
      <trkpt lat="44.08515" lon="7.10133">
        <ele>558.16</ele>
        <time>2019-09-27T09:49:33.000Z</time>
      </trkpt>
      <trkpt lat="44.08532" lon="7.10143">
        <ele>558.66</ele>
        <time>2019-09-27T09:49:38.000Z</time>
      </trkpt>
      <trkpt lat="44.0854" lon="7.10157">
        <ele>559.17</ele>
        <time>2019-09-27T09:49:43.000Z</time>
      </trkpt>
      <trkpt lat="44.08543" lon="7.10177">
        <ele>558.29</ele>
        <time>2019-09-27T09:49:48.000Z</time>
      </trkpt>
      <trkpt lat="44.08545" lon="7.10191">
        <ele>553.14</ele>
        <time>2019-09-27T09:50:51.000Z</time>
      </trkpt>
      <trkpt lat="44.08557" lon="7.10215">
        <ele>549.31</ele>
        <time>2019-09-27T09:50:56.000Z</time>
      </trkpt>
      <trkpt lat="44.08564" lon="7.10241">
        <ele>546.68</ele>
        <time>2019-09-27T09:51:01.000Z</time>
      </trkpt>
      <trkpt lat="44.08565" lon="7.10268">
        <ele>546.81</ele>
        <time>2019-09-27T09:51:06.000Z</time>
      </trkpt>
      <trkpt lat="44.08569" lon="7.10309">
        <ele>546.93</ele>
        <time>2019-09-27T09:51:11.000Z</time>
      </trkpt>
      <trkpt lat="44.08586" lon="7.1035">
        <ele>545.51</ele>
        <time>2019-09-27T09:51:16.000Z</time>
      </trkpt>
      <trkpt lat="44.08613" lon="7.1038">
        <ele>542.57</ele>
        <time>2019-09-27T09:51:21.000Z</time>
      </trkpt>
      <trkpt lat="44.0864" lon="7.10384">
        <ele>538.98</ele>
        <time>2019-09-27T09:51:26.000Z</time>
      </trkpt>
      <trkpt lat="44.08668" lon="7.10373">
        <ele>536.74</ele>
        <time>2019-09-27T09:51:31.000Z</time>
      </trkpt>
      <trkpt lat="44.08692" lon="7.10371">
        <ele>537.79</ele>
        <time>2019-09-27T09:51:36.000Z</time>
      </trkpt>
      <trkpt lat="44.0871" lon="7.10389">
        <ele>533.58</ele>
        <time>2019-09-27T09:51:41.000Z</time>
      </trkpt>
      <trkpt lat="44.08735" lon="7.10409">
        <ele>529.47</ele>
        <time>2019-09-27T09:51:46.000Z</time>
      </trkpt>
      <trkpt lat="44.08762" lon="7.10435">
        <ele>527.64</ele>
        <time>2019-09-27T09:51:51.000Z</time>
      </trkpt>
      <trkpt lat="44.08776" lon="7.10473">
        <ele>524.83</ele>
        <time>2019-09-27T09:51:56.000Z</time>
      </trkpt>
      <trkpt lat="44.08786" lon="7.10509">
        <ele>522.84</ele>
        <time>2019-09-27T09:52:01.000Z</time>
      </trkpt>
      <trkpt lat="44.08812" lon="7.10544">
        <ele>521.51</ele>
        <time>2019-09-27T09:52:06.000Z</time>
      </trkpt>
      <trkpt lat="44.08832" lon="7.10589">
        <ele>519.57</ele>
        <time>2019-09-27T09:52:11.000Z</time>
      </trkpt>
      <trkpt lat="44.08859" lon="7.10624">
        <ele>519.93</ele>
        <time>2019-09-27T09:52:16.000Z</time>
      </trkpt>
      <trkpt lat="44.08878" lon="7.10655">
        <ele>518.1</ele>
        <time>2019-09-27T09:52:21.000Z</time>
      </trkpt>
      <trkpt lat="44.08871" lon="7.10695">
        <ele>511.27</ele>
        <time>2019-09-27T09:52:26.000Z</time>
      </trkpt>
      <trkpt lat="44.08854" lon="7.10718">
        <ele>509.28</ele>
        <time>2019-09-27T09:52:31.000Z</time>
      </trkpt>
      <trkpt lat="44.08833" lon="7.10712">
        <ele>508.13</ele>
        <time>2019-09-27T09:52:36.000Z</time>
      </trkpt>
      <trkpt lat="44.08808" lon="7.10704">
        <ele>502.45</ele>
        <time>2019-09-27T09:52:41.000Z</time>
      </trkpt>
      <trkpt lat="44.08783" lon="7.1069">
        <ele>500.27</ele>
        <time>2019-09-27T09:52:46.000Z</time>
      </trkpt>
      <trkpt lat="44.08761" lon="7.10676">
        <ele>503.63</ele>
        <time>2019-09-27T09:52:51.000Z</time>
      </trkpt>
      <trkpt lat="44.08739" lon="7.1066">
        <ele>503.01</ele>
        <time>2019-09-27T09:52:56.000Z</time>
      </trkpt>
      <trkpt lat="44.08725" lon="7.10635">
        <ele>505.23</ele>
        <time>2019-09-27T09:53:01.000Z</time>
      </trkpt>
      <trkpt lat="44.08709" lon="7.10615">
        <ele>505.36</ele>
        <time>2019-09-27T09:53:06.000Z</time>
      </trkpt>
      <trkpt lat="44.08686" lon="7.10606">
        <ele>505.42</ele>
        <time>2019-09-27T09:53:11.000Z</time>
      </trkpt>
      <trkpt lat="44.08662" lon="7.10601">
        <ele>502.85</ele>
        <time>2019-09-27T09:53:16.000Z</time>
      </trkpt>
      <trkpt lat="44.08642" lon="7.10604">
        <ele>501.19</ele>
        <time>2019-09-27T09:53:21.000Z</time>
      </trkpt>
      <trkpt lat="44.08629" lon="7.10608">
        <ele>501.89</ele>
        <time>2019-09-27T09:53:26.000Z</time>
      </trkpt>
      <trkpt lat="44.08616" lon="7.10606">
        <ele>502.93</ele>
        <time>2019-09-27T09:54:05.000Z</time>
      </trkpt>
      <trkpt lat="44.08585" lon="7.10614">
        <ele>503.87</ele>
        <time>2019-09-27T09:54:10.000Z</time>
      </trkpt>
      <trkpt lat="44.0855" lon="7.10623">
        <ele>502.28</ele>
        <time>2019-09-27T09:54:15.000Z</time>
      </trkpt>
      <trkpt lat="44.08507" lon="7.10623">
        <ele>503.59</ele>
        <time>2019-09-27T09:54:20.000Z</time>
      </trkpt>
      <trkpt lat="44.0847" lon="7.10619">
        <ele>507.13</ele>
        <time>2019-09-27T09:54:25.000Z</time>
      </trkpt>
      <trkpt lat="44.0845" lon="7.10601">
        <ele>508.26</ele>
        <time>2019-09-27T09:54:30.000Z</time>
      </trkpt>
      <trkpt lat="44.08437" lon="7.10571">
        <ele>508.65</ele>
        <time>2019-09-27T09:54:35.000Z</time>
      </trkpt>
      <trkpt lat="44.08425" lon="7.10551">
        <ele>508.49</ele>
        <time>2019-09-27T09:54:40.000Z</time>
      </trkpt>
      <trkpt lat="44.08411" lon="7.10528">
        <ele>507.65</ele>
        <time>2019-09-27T09:54:45.000Z</time>
      </trkpt>
      <trkpt lat="44.08399" lon="7.10501">
        <ele>509.15</ele>
        <time>2019-09-27T09:54:50.000Z</time>
      </trkpt>
      <trkpt lat="44.08409" lon="7.10506">
        <ele>502.59</ele>
        <time>2019-09-27T09:54:55.000Z</time>
      </trkpt>
      <trkpt lat="44.0842" lon="7.10528">
        <ele>502.38</ele>
        <time>2019-09-27T09:55:00.000Z</time>
      </trkpt>
      <trkpt lat="44.0843" lon="7.10539">
        <ele>501.74</ele>
        <time>2019-09-27T09:55:05.000Z</time>
      </trkpt>
      <trkpt lat="44.08436" lon="7.10525">
        <ele>502.59</ele>
        <time>2019-09-27T09:55:10.000Z</time>
      </trkpt>
      <trkpt lat="44.08428" lon="7.10513">
        <ele>504.44</ele>
        <time>2019-09-27T09:55:15.000Z</time>
      </trkpt>
      <trkpt lat="44.08419" lon="7.10487">
        <ele>503.62</ele>
        <time>2019-09-27T09:55:20.000Z</time>
      </trkpt>
      <trkpt lat="44.08404" lon="7.10463">
        <ele>504.95</ele>
        <time>2019-09-27T09:55:25.000Z</time>
      </trkpt>
      <trkpt lat="44.08398" lon="7.10452">
        <ele>501.71</ele>
        <time>2019-09-27T09:55:30.000Z</time>
      </trkpt>
      <trkpt lat="44.0839" lon="7.10429">
        <ele>500.24</ele>
        <time>2019-09-27T09:55:35.000Z</time>
      </trkpt>
      <trkpt lat="44.08379" lon="7.104">
        <ele>501.29</ele>
        <time>2019-09-27T09:55:40.000Z</time>
      </trkpt>
      <trkpt lat="44.08376" lon="7.10368">
        <ele>500.09</ele>
        <time>2019-09-27T09:55:45.000Z</time>
      </trkpt>
      <trkpt lat="44.08366" lon="7.10342">
        <ele>499.66</ele>
        <time>2019-09-27T09:55:50.000Z</time>
      </trkpt>
      <trkpt lat="44.08351" lon="7.10329">
        <ele>491.99</ele>
        <time>2019-09-27T09:55:55.000Z</time>
      </trkpt>
      <trkpt lat="44.08336" lon="7.10338">
        <ele>490.45</ele>
        <time>2019-09-27T09:56:00.000Z</time>
      </trkpt>
      <trkpt lat="44.08316" lon="7.10356">
        <ele>488.25</ele>
        <time>2019-09-27T09:56:05.000Z</time>
      </trkpt>
      <trkpt lat="44.08296" lon="7.10371">
        <ele>485.03</ele>
        <time>2019-09-27T09:56:10.000Z</time>
      </trkpt>
      <trkpt lat="44.08276" lon="7.10393">
        <ele>482.18</ele>
        <time>2019-09-27T09:56:15.000Z</time>
      </trkpt>
      <trkpt lat="44.08261" lon="7.10417">
        <ele>480.67</ele>
        <time>2019-09-27T09:56:20.000Z</time>
      </trkpt>
      <trkpt lat="44.08253" lon="7.10441">
        <ele>479.66</ele>
        <time>2019-09-27T09:56:25.000Z</time>
      </trkpt>
      <trkpt lat="44.08243" lon="7.10462">
        <ele>474.53</ele>
        <time>2019-09-27T09:56:30.000Z</time>
      </trkpt>
      <trkpt lat="44.08234" lon="7.10481">
        <ele>475.71</ele>
        <time>2019-09-27T09:56:35.000Z</time>
      </trkpt>
      <trkpt lat="44.08222" lon="7.10506">
        <ele>474.7</ele>
        <time>2019-09-27T09:56:40.000Z</time>
      </trkpt>
      <trkpt lat="44.0821" lon="7.10529">
        <ele>471.96</ele>
        <time>2019-09-27T09:56:45.000Z</time>
      </trkpt>
      <trkpt lat="44.08203" lon="7.10546">
        <ele>474.57</ele>
        <time>2019-09-27T09:56:50.000Z</time>
      </trkpt>
      <trkpt lat="44.08206" lon="7.10563">
        <ele>477.76</ele>
        <time>2019-09-27T09:56:55.000Z</time>
      </trkpt>
      <trkpt lat="44.08214" lon="7.10581">
        <ele>477.11</ele>
        <time>2019-09-27T09:57:00.000Z</time>
      </trkpt>
      <trkpt lat="44.08223" lon="7.10586">
        <ele>479.77</ele>
        <time>2019-09-27T09:57:08.000Z</time>
      </trkpt>
      <trkpt lat="44.08231" lon="7.10581">
        <ele>480.55</ele>
        <time>2019-09-27T09:57:15.000Z</time>
      </trkpt>
      <trkpt lat="44.0824" lon="7.10575">
        <ele>482.5</ele>
        <time>2019-09-27T09:57:23.000Z</time>
      </trkpt>
      <trkpt lat="44.08249" lon="7.1057">
        <ele>486.13</ele>
        <time>2019-09-27T09:57:32.000Z</time>
      </trkpt>
      <trkpt lat="44.08259" lon="7.10579">
        <ele>485.49</ele>
        <time>2019-09-27T09:57:37.000Z</time>
      </trkpt>
      <trkpt lat="44.08268" lon="7.10575">
        <ele>489.33</ele>
        <time>2019-09-27T09:57:45.000Z</time>
      </trkpt>
      <trkpt lat="44.08276" lon="7.10571">
        <ele>494.71</ele>
        <time>2019-09-27T09:59:04.000Z</time>
      </trkpt>
      <trkpt lat="44.08291" lon="7.10564">
        <ele>496.25</ele>
        <time>2019-09-27T09:59:09.000Z</time>
      </trkpt>
      <trkpt lat="44.08305" lon="7.10554">
        <ele>496.14</ele>
        <time>2019-09-27T09:59:14.000Z</time>
      </trkpt>
      <trkpt lat="44.08317" lon="7.10548">
        <ele>500.37</ele>
        <time>2019-09-27T09:59:19.000Z</time>
      </trkpt>
      <trkpt lat="44.0833" lon="7.10536">
        <ele>504.1</ele>
        <time>2019-09-27T09:59:24.000Z</time>
      </trkpt>
      <trkpt lat="44.08342" lon="7.10527">
        <ele>506.9</ele>
        <time>2019-09-27T09:59:29.000Z</time>
      </trkpt>
      <trkpt lat="44.08351" lon="7.10517">
        <ele>504.12</ele>
        <time>2019-09-27T09:59:34.000Z</time>
      </trkpt>
      <trkpt lat="44.08362" lon="7.10511">
        <ele>502.87</ele>
        <time>2019-09-27T09:59:39.000Z</time>
      </trkpt>
      <trkpt lat="44.08373" lon="7.10502">
        <ele>503.25</ele>
        <time>2019-09-27T09:59:44.000Z</time>
      </trkpt>
      <trkpt lat="44.08386" lon="7.10493">
        <ele>503.82</ele>
        <time>2019-09-27T09:59:49.000Z</time>
      </trkpt>
      <trkpt lat="44.08399" lon="7.10486">
        <ele>503.96</ele>
        <time>2019-09-27T09:59:54.000Z</time>
      </trkpt>
      <trkpt lat="44.08411" lon="7.10499">
        <ele>503.39</ele>
        <time>2019-09-27T09:59:59.000Z</time>
      </trkpt>
      <trkpt lat="44.08422" lon="7.1052">
        <ele>502.18</ele>
        <time>2019-09-27T10:00:04.000Z</time>
      </trkpt>
      <trkpt lat="44.08426" lon="7.10538">
        <ele>500.85</ele>
        <time>2019-09-27T10:00:09.000Z</time>
      </trkpt>
      <trkpt lat="44.08419" lon="7.10545">
        <ele>499.85</ele>
        <time>2019-09-27T10:00:55.000Z</time>
      </trkpt>
      <trkpt lat="44.08427" lon="7.10552">
        <ele>506.01</ele>
        <time>2019-09-27T10:04:30.000Z</time>
      </trkpt>
      <trkpt lat="44.08437" lon="7.1058">
        <ele>506.53</ele>
        <time>2019-09-27T10:04:35.000Z</time>
      </trkpt>
      <trkpt lat="44.08446" lon="7.10603">
        <ele>504.72</ele>
        <time>2019-09-27T10:04:40.000Z</time>
      </trkpt>
      <trkpt lat="44.08459" lon="7.1062">
        <ele>504.28</ele>
        <time>2019-09-27T10:04:45.000Z</time>
      </trkpt>
      <trkpt lat="44.08482" lon="7.1063">
        <ele>502.77</ele>
        <time>2019-09-27T10:04:52.000Z</time>
      </trkpt>
      <trkpt lat="44.08789" lon="7.10754">
        <ele>515.54</ele>
        <time>2019-09-27T10:06:20.000Z</time>
      </trkpt>
      <trkpt lat="44.08807" lon="7.10756">
        <ele>519.14</ele>
        <time>2019-09-27T10:06:25.000Z</time>
      </trkpt>
      <trkpt lat="44.08826" lon="7.10761">
        <ele>522.77</ele>
        <time>2019-09-27T10:06:30.000Z</time>
      </trkpt>
      <trkpt lat="44.08843" lon="7.10767">
        <ele>526.88</ele>
        <time>2019-09-27T10:06:35.000Z</time>
      </trkpt>
      <trkpt lat="44.0886" lon="7.1077">
        <ele>529.08</ele>
        <time>2019-09-27T10:06:40.000Z</time>
      </trkpt>
      <trkpt lat="44.08883" lon="7.10775">
        <ele>527.79</ele>
        <time>2019-09-27T10:06:45.000Z</time>
      </trkpt>
      <trkpt lat="44.08908" lon="7.1078">
        <ele>523.53</ele>
        <time>2019-09-27T10:06:50.000Z</time>
      </trkpt>
      <trkpt lat="44.09015" lon="7.10767">
        <ele>523.84</ele>
        <time>2019-09-27T10:07:19.000Z</time>
      </trkpt>
      <trkpt lat="44.0904" lon="7.10764">
        <ele>529.02</ele>
        <time>2019-09-27T10:07:24.000Z</time>
      </trkpt>
      <trkpt lat="44.09057" lon="7.10781">
        <ele>526.21</ele>
        <time>2019-09-27T10:07:29.000Z</time>
      </trkpt>
      <trkpt lat="44.0908" lon="7.10797">
        <ele>522.41</ele>
        <time>2019-09-27T10:07:34.000Z</time>
      </trkpt>
      <trkpt lat="44.09102" lon="7.108">
        <ele>522.27</ele>
        <time>2019-09-27T10:07:39.000Z</time>
      </trkpt>
      <trkpt lat="44.09122" lon="7.10782">
        <ele>524.94</ele>
        <time>2019-09-27T10:07:44.000Z</time>
      </trkpt>
      <trkpt lat="44.09143" lon="7.10773">
        <ele>526.41</ele>
        <time>2019-09-27T10:07:49.000Z</time>
      </trkpt>
      <trkpt lat="44.09169" lon="7.10762">
        <ele>525.76</ele>
        <time>2019-09-27T10:07:54.000Z</time>
      </trkpt>
      <trkpt lat="44.09187" lon="7.10755">
        <ele>526.06</ele>
        <time>2019-09-27T10:07:59.000Z</time>
      </trkpt>
      <trkpt lat="44.09209" lon="7.10745">
        <ele>525.35</ele>
        <time>2019-09-27T10:08:04.000Z</time>
      </trkpt>
      <trkpt lat="44.0923" lon="7.10739">
        <ele>524.09</ele>
        <time>2019-09-27T10:08:09.000Z</time>
      </trkpt>
      <trkpt lat="44.09248" lon="7.1073">
        <ele>524.43</ele>
        <time>2019-09-27T10:08:14.000Z</time>
      </trkpt>
      <trkpt lat="44.09269" lon="7.10714">
        <ele>526.08</ele>
        <time>2019-09-27T10:08:19.000Z</time>
      </trkpt>
      <trkpt lat="44.0929" lon="7.10703">
        <ele>528.18</ele>
        <time>2019-09-27T10:08:24.000Z</time>
      </trkpt>
      <trkpt lat="44.09313" lon="7.10691">
        <ele>528.42</ele>
        <time>2019-09-27T10:08:29.000Z</time>
      </trkpt>
      <trkpt lat="44.09336" lon="7.1068">
        <ele>532.23</ele>
        <time>2019-09-27T10:08:34.000Z</time>
      </trkpt>
      <trkpt lat="44.09357" lon="7.10674">
        <ele>534.72</ele>
        <time>2019-09-27T10:08:39.000Z</time>
      </trkpt>
      <trkpt lat="44.09382" lon="7.10667">
        <ele>535.15</ele>
        <time>2019-09-27T10:08:44.000Z</time>
      </trkpt>
      <trkpt lat="44.09405" lon="7.1066">
        <ele>538.26</ele>
        <time>2019-09-27T10:08:49.000Z</time>
      </trkpt>
      <trkpt lat="44.09429" lon="7.1065">
        <ele>541.57</ele>
        <time>2019-09-27T10:08:54.000Z</time>
      </trkpt>
      <trkpt lat="44.0945" lon="7.10648">
        <ele>544.42</ele>
        <time>2019-09-27T10:08:59.000Z</time>
      </trkpt>
      <trkpt lat="44.09471" lon="7.10644">
        <ele>544.23</ele>
        <time>2019-09-27T10:09:04.000Z</time>
      </trkpt>
      <trkpt lat="44.09492" lon="7.10634">
        <ele>548.95</ele>
        <time>2019-09-27T10:09:09.000Z</time>
      </trkpt>
      <trkpt lat="44.09516" lon="7.10638">
        <ele>549.75</ele>
        <time>2019-09-27T10:09:14.000Z</time>
      </trkpt>
      <trkpt lat="44.09538" lon="7.10635">
        <ele>552.55</ele>
        <time>2019-09-27T10:09:19.000Z</time>
      </trkpt>
      <trkpt lat="44.09558" lon="7.10629">
        <ele>553.07</ele>
        <time>2019-09-27T10:09:24.000Z</time>
      </trkpt>
      <trkpt lat="44.09578" lon="7.10612">
        <ele>556.63</ele>
        <time>2019-09-27T10:09:29.000Z</time>
      </trkpt>
      <trkpt lat="44.096" lon="7.10598">
        <ele>555.79</ele>
        <time>2019-09-27T10:09:34.000Z</time>
      </trkpt>
      <trkpt lat="44.09617" lon="7.10581">
        <ele>556.13</ele>
        <time>2019-09-27T10:09:39.000Z</time>
      </trkpt>
      <trkpt lat="44.09627" lon="7.10554">
        <ele>559.83</ele>
        <time>2019-09-27T10:09:44.000Z</time>
      </trkpt>
      <trkpt lat="44.09639" lon="7.10528">
        <ele>565.23</ele>
        <time>2019-09-27T10:09:49.000Z</time>
      </trkpt>
      <trkpt lat="44.09657" lon="7.10505">
        <ele>569.61</ele>
        <time>2019-09-27T10:09:54.000Z</time>
      </trkpt>
      <trkpt lat="44.09675" lon="7.1049">
        <ele>571.04</ele>
        <time>2019-09-27T10:09:59.000Z</time>
      </trkpt>
      <trkpt lat="44.09695" lon="7.10481">
        <ele>574</ele>
        <time>2019-09-27T10:10:04.000Z</time>
      </trkpt>
      <trkpt lat="44.09721" lon="7.10475">
        <ele>572.45</ele>
        <time>2019-09-27T10:10:09.000Z</time>
      </trkpt>
      <trkpt lat="44.09746" lon="7.10463">
        <ele>574.7</ele>
        <time>2019-09-27T10:10:14.000Z</time>
      </trkpt>
      <trkpt lat="44.09768" lon="7.10451">
        <ele>575.9</ele>
        <time>2019-09-27T10:10:19.000Z</time>
      </trkpt>
      <trkpt lat="44.09788" lon="7.10433">
        <ele>573.74</ele>
        <time>2019-09-27T10:10:24.000Z</time>
      </trkpt>
      <trkpt lat="44.09807" lon="7.10419">
        <ele>572.77</ele>
        <time>2019-09-27T10:10:29.000Z</time>
      </trkpt>
      <trkpt lat="44.09826" lon="7.10397">
        <ele>574.83</ele>
        <time>2019-09-27T10:10:34.000Z</time>
      </trkpt>
      <trkpt lat="44.09843" lon="7.10382">
        <ele>577.66</ele>
        <time>2019-09-27T10:10:39.000Z</time>
      </trkpt>
      <trkpt lat="44.09865" lon="7.10381">
        <ele>581.68</ele>
        <time>2019-09-27T10:10:44.000Z</time>
      </trkpt>
      <trkpt lat="44.09888" lon="7.10376">
        <ele>582.85</ele>
        <time>2019-09-27T10:10:49.000Z</time>
      </trkpt>
      <trkpt lat="44.09907" lon="7.10372">
        <ele>584.11</ele>
        <time>2019-09-27T10:10:54.000Z</time>
      </trkpt>
      <trkpt lat="44.09933" lon="7.10368">
        <ele>582.29</ele>
        <time>2019-09-27T10:10:59.000Z</time>
      </trkpt>
      <trkpt lat="44.09958" lon="7.10365">
        <ele>583.14</ele>
        <time>2019-09-27T10:11:04.000Z</time>
      </trkpt>
      <trkpt lat="44.09984" lon="7.10361">
        <ele>582.05</ele>
        <time>2019-09-27T10:11:09.000Z</time>
      </trkpt>
      <trkpt lat="44.10006" lon="7.10352">
        <ele>583.85</ele>
        <time>2019-09-27T10:11:14.000Z</time>
      </trkpt>
      <trkpt lat="44.10028" lon="7.1035">
        <ele>589.72</ele>
        <time>2019-09-27T10:11:19.000Z</time>
      </trkpt>
      <trkpt lat="44.10048" lon="7.10346">
        <ele>590.88</ele>
        <time>2019-09-27T10:11:24.000Z</time>
      </trkpt>
      <trkpt lat="44.10082" lon="7.10337">
        <ele>591.03</ele>
        <time>2019-09-27T10:11:31.000Z</time>
      </trkpt>
      <trkpt lat="44.10103" lon="7.10327">
        <ele>593.28</ele>
        <time>2019-09-27T10:11:36.000Z</time>
      </trkpt>
      <trkpt lat="44.10126" lon="7.10322">
        <ele>593.05</ele>
        <time>2019-09-27T10:11:41.000Z</time>
      </trkpt>
      <trkpt lat="44.10151" lon="7.10315">
        <ele>592.89</ele>
        <time>2019-09-27T10:11:46.000Z</time>
      </trkpt>
      <trkpt lat="44.10176" lon="7.10313">
        <ele>594.05</ele>
        <time>2019-09-27T10:11:51.000Z</time>
      </trkpt>
      <trkpt lat="44.102" lon="7.10316">
        <ele>594.15</ele>
        <time>2019-09-27T10:11:56.000Z</time>
      </trkpt>
      <trkpt lat="44.10226" lon="7.10311">
        <ele>594.83</ele>
        <time>2019-09-27T10:12:01.000Z</time>
      </trkpt>
      <trkpt lat="44.10252" lon="7.10301">
        <ele>596.17</ele>
        <time>2019-09-27T10:12:06.000Z</time>
      </trkpt>
      <trkpt lat="44.10277" lon="7.10295">
        <ele>596.46</ele>
        <time>2019-09-27T10:12:11.000Z</time>
      </trkpt>
      <trkpt lat="44.10301" lon="7.10286">
        <ele>597.85</ele>
        <time>2019-09-27T10:12:16.000Z</time>
      </trkpt>
      <trkpt lat="44.10327" lon="7.10277">
        <ele>593.37</ele>
        <time>2019-09-27T10:12:21.000Z</time>
      </trkpt>
      <trkpt lat="44.10354" lon="7.10258">
        <ele>596.12</ele>
        <time>2019-09-27T10:12:26.000Z</time>
      </trkpt>
      <trkpt lat="44.10379" lon="7.10253">
        <ele>599.28</ele>
        <time>2019-09-27T10:12:31.000Z</time>
      </trkpt>
      <trkpt lat="44.10403" lon="7.10253">
        <ele>595.76</ele>
        <time>2019-09-27T10:12:36.000Z</time>
      </trkpt>
      <trkpt lat="44.10426" lon="7.10242">
        <ele>595.33</ele>
        <time>2019-09-27T10:12:41.000Z</time>
      </trkpt>
      <trkpt lat="44.10449" lon="7.10228">
        <ele>596.76</ele>
        <time>2019-09-27T10:12:46.000Z</time>
      </trkpt>
      <trkpt lat="44.10475" lon="7.10219">
        <ele>598.43</ele>
        <time>2019-09-27T10:12:51.000Z</time>
      </trkpt>
      <trkpt lat="44.10499" lon="7.10217">
        <ele>603.56</ele>
        <time>2019-09-27T10:12:56.000Z</time>
      </trkpt>
      <trkpt lat="44.10526" lon="7.10205">
        <ele>604.84</ele>
        <time>2019-09-27T10:13:01.000Z</time>
      </trkpt>
      <trkpt lat="44.10556" lon="7.10194">
        <ele>608.31</ele>
        <time>2019-09-27T10:13:06.000Z</time>
      </trkpt>
      <trkpt lat="44.10583" lon="7.10189">
        <ele>606.33</ele>
        <time>2019-09-27T10:13:11.000Z</time>
      </trkpt>
      <trkpt lat="44.10612" lon="7.10185">
        <ele>608.71</ele>
        <time>2019-09-27T10:13:16.000Z</time>
      </trkpt>
      <trkpt lat="44.1064" lon="7.10201">
        <ele>610.64</ele>
        <time>2019-09-27T10:13:21.000Z</time>
      </trkpt>
      <trkpt lat="44.10668" lon="7.1021">
        <ele>608.99</ele>
        <time>2019-09-27T10:13:26.000Z</time>
      </trkpt>
      <trkpt lat="44.10694" lon="7.1021">
        <ele>611.87</ele>
        <time>2019-09-27T10:13:31.000Z</time>
      </trkpt>
      <trkpt lat="44.10722" lon="7.10208">
        <ele>614.95</ele>
        <time>2019-09-27T10:13:36.000Z</time>
      </trkpt>
      <trkpt lat="44.10749" lon="7.10203">
        <ele>617.78</ele>
        <time>2019-09-27T10:13:41.000Z</time>
      </trkpt>
      <trkpt lat="44.10775" lon="7.10199">
        <ele>621.29</ele>
        <time>2019-09-27T10:13:46.000Z</time>
      </trkpt>
      <trkpt lat="44.108" lon="7.10195">
        <ele>620.02</ele>
        <time>2019-09-27T10:13:51.000Z</time>
      </trkpt>
      <trkpt lat="44.10827" lon="7.10188">
        <ele>619.99</ele>
        <time>2019-09-27T10:13:56.000Z</time>
      </trkpt>
      <trkpt lat="44.10855" lon="7.10181">
        <ele>621.3</ele>
        <time>2019-09-27T10:14:01.000Z</time>
      </trkpt>
      <trkpt lat="44.10879" lon="7.10165">
        <ele>621.99</ele>
        <time>2019-09-27T10:14:06.000Z</time>
      </trkpt>
      <trkpt lat="44.10902" lon="7.10143">
        <ele>622.94</ele>
        <time>2019-09-27T10:14:11.000Z</time>
      </trkpt>
      <trkpt lat="44.10921" lon="7.1011">
        <ele>620.62</ele>
        <time>2019-09-27T10:14:16.000Z</time>
      </trkpt>
      <trkpt lat="44.10941" lon="7.10083">
        <ele>619.1</ele>
        <time>2019-09-27T10:14:21.000Z</time>
      </trkpt>
      <trkpt lat="44.10954" lon="7.10047">
        <ele>617.34</ele>
        <time>2019-09-27T10:14:26.000Z</time>
      </trkpt>
      <trkpt lat="44.10969" lon="7.10011">
        <ele>615.75</ele>
        <time>2019-09-27T10:14:31.000Z</time>
      </trkpt>
      <trkpt lat="44.10987" lon="7.09976">
        <ele>617.26</ele>
        <time>2019-09-27T10:14:36.000Z</time>
      </trkpt>
      <trkpt lat="44.11003" lon="7.09943">
        <ele>618.86</ele>
        <time>2019-09-27T10:14:41.000Z</time>
      </trkpt>
      <trkpt lat="44.11021" lon="7.09911">
        <ele>617.42</ele>
        <time>2019-09-27T10:14:46.000Z</time>
      </trkpt>
      <trkpt lat="44.11041" lon="7.09881">
        <ele>618.97</ele>
        <time>2019-09-27T10:14:51.000Z</time>
      </trkpt>
      <trkpt lat="44.11067" lon="7.09859">
        <ele>619.18</ele>
        <time>2019-09-27T10:14:56.000Z</time>
      </trkpt>
      <trkpt lat="44.11088" lon="7.09829">
        <ele>616.44</ele>
        <time>2019-09-27T10:15:01.000Z</time>
      </trkpt>
      <trkpt lat="44.11112" lon="7.098">
        <ele>617.94</ele>
        <time>2019-09-27T10:15:06.000Z</time>
      </trkpt>
      <trkpt lat="44.11141" lon="7.09786">
        <ele>618.46</ele>
        <time>2019-09-27T10:15:11.000Z</time>
      </trkpt>
      <trkpt lat="44.11169" lon="7.09772">
        <ele>620.74</ele>
        <time>2019-09-27T10:15:16.000Z</time>
      </trkpt>
      <trkpt lat="44.11197" lon="7.09765">
        <ele>618.54</ele>
        <time>2019-09-27T10:15:21.000Z</time>
      </trkpt>
      <trkpt lat="44.11228" lon="7.09762">
        <ele>621.25</ele>
        <time>2019-09-27T10:15:26.000Z</time>
      </trkpt>
      <trkpt lat="44.11256" lon="7.09749">
        <ele>624.69</ele>
        <time>2019-09-27T10:15:31.000Z</time>
      </trkpt>
      <trkpt lat="44.11288" lon="7.09727">
        <ele>628.63</ele>
        <time>2019-09-27T10:15:36.000Z</time>
      </trkpt>
      <trkpt lat="44.11314" lon="7.09699">
        <ele>630.58</ele>
        <time>2019-09-27T10:15:41.000Z</time>
      </trkpt>
      <trkpt lat="44.11335" lon="7.09668">
        <ele>631.15</ele>
        <time>2019-09-27T10:15:46.000Z</time>
      </trkpt>
      <trkpt lat="44.11361" lon="7.09649">
        <ele>633.3</ele>
        <time>2019-09-27T10:15:51.000Z</time>
      </trkpt>
      <trkpt lat="44.11389" lon="7.09629">
        <ele>634.14</ele>
        <time>2019-09-27T10:15:56.000Z</time>
      </trkpt>
      <trkpt lat="44.11417" lon="7.09614">
        <ele>634.38</ele>
        <time>2019-09-27T10:16:01.000Z</time>
      </trkpt>
      <trkpt lat="44.11443" lon="7.09597">
        <ele>633.19</ele>
        <time>2019-09-27T10:16:06.000Z</time>
      </trkpt>
      <trkpt lat="44.1147" lon="7.09578">
        <ele>632.63</ele>
        <time>2019-09-27T10:16:11.000Z</time>
      </trkpt>
      <trkpt lat="44.11497" lon="7.09563">
        <ele>631.04</ele>
        <time>2019-09-27T10:16:16.000Z</time>
      </trkpt>
      <trkpt lat="44.11517" lon="7.09524">
        <ele>632.95</ele>
        <time>2019-09-27T10:16:21.000Z</time>
      </trkpt>
      <trkpt lat="44.11532" lon="7.0949">
        <ele>635.21</ele>
        <time>2019-09-27T10:16:26.000Z</time>
      </trkpt>
      <trkpt lat="44.11543" lon="7.09451">
        <ele>638.22</ele>
        <time>2019-09-27T10:16:31.000Z</time>
      </trkpt>
      <trkpt lat="44.11555" lon="7.0941">
        <ele>639.24</ele>
        <time>2019-09-27T10:16:36.000Z</time>
      </trkpt>
      <trkpt lat="44.11577" lon="7.09381">
        <ele>635.76</ele>
        <time>2019-09-27T10:16:41.000Z</time>
      </trkpt>
      <trkpt lat="44.11593" lon="7.09342">
        <ele>633.63</ele>
        <time>2019-09-27T10:16:46.000Z</time>
      </trkpt>
      <trkpt lat="44.11609" lon="7.09304">
        <ele>634.57</ele>
        <time>2019-09-27T10:16:51.000Z</time>
      </trkpt>
      <trkpt lat="44.11632" lon="7.09275">
        <ele>633.92</ele>
        <time>2019-09-27T10:16:56.000Z</time>
      </trkpt>
      <trkpt lat="44.11662" lon="7.09258">
        <ele>634.43</ele>
        <time>2019-09-27T10:17:01.000Z</time>
      </trkpt>
      <trkpt lat="44.11689" lon="7.09249">
        <ele>633.88</ele>
        <time>2019-09-27T10:17:06.000Z</time>
      </trkpt>
      <trkpt lat="44.11719" lon="7.09254">
        <ele>634.72</ele>
        <time>2019-09-27T10:17:11.000Z</time>
      </trkpt>
      <trkpt lat="44.11746" lon="7.09273">
        <ele>634.56</ele>
        <time>2019-09-27T10:17:16.000Z</time>
      </trkpt>
      <trkpt lat="44.11775" lon="7.09285">
        <ele>634.35</ele>
        <time>2019-09-27T10:17:21.000Z</time>
      </trkpt>
      <trkpt lat="44.11805" lon="7.09288">
        <ele>634.58</ele>
        <time>2019-09-27T10:17:26.000Z</time>
      </trkpt>
      <trkpt lat="44.11835" lon="7.09289">
        <ele>631.64</ele>
        <time>2019-09-27T10:17:31.000Z</time>
      </trkpt>
      <trkpt lat="44.11864" lon="7.09279">
        <ele>628.32</ele>
        <time>2019-09-27T10:17:36.000Z</time>
      </trkpt>
      <trkpt lat="44.1189" lon="7.09266">
        <ele>630.02</ele>
        <time>2019-09-27T10:17:41.000Z</time>
      </trkpt>
      <trkpt lat="44.11917" lon="7.09255">
        <ele>630.4</ele>
        <time>2019-09-27T10:17:46.000Z</time>
      </trkpt>
      <trkpt lat="44.11948" lon="7.09247">
        <ele>628.31</ele>
        <time>2019-09-27T10:17:51.000Z</time>
      </trkpt>
      <trkpt lat="44.11979" lon="7.09231">
        <ele>629.8</ele>
        <time>2019-09-27T10:17:56.000Z</time>
      </trkpt>
      <trkpt lat="44.12011" lon="7.09217">
        <ele>630.34</ele>
        <time>2019-09-27T10:18:01.000Z</time>
      </trkpt>
      <trkpt lat="44.12044" lon="7.09215">
        <ele>630.01</ele>
        <time>2019-09-27T10:18:06.000Z</time>
      </trkpt>
      <trkpt lat="44.12076" lon="7.0921">
        <ele>632.95</ele>
        <time>2019-09-27T10:18:11.000Z</time>
      </trkpt>
      <trkpt lat="44.12111" lon="7.09208">
        <ele>630.73</ele>
        <time>2019-09-27T10:18:16.000Z</time>
      </trkpt>
      <trkpt lat="44.12144" lon="7.09207">
        <ele>629.55</ele>
        <time>2019-09-27T10:18:21.000Z</time>
      </trkpt>
      <trkpt lat="44.12177" lon="7.09207">
        <ele>628.44</ele>
        <time>2019-09-27T10:18:26.000Z</time>
      </trkpt>
      <trkpt lat="44.12204" lon="7.09207">
        <ele>629.07</ele>
        <time>2019-09-27T10:18:31.000Z</time>
      </trkpt>
      <trkpt lat="44.12242" lon="7.09204">
        <ele>628.55</ele>
        <time>2019-09-27T10:18:36.000Z</time>
      </trkpt>
      <trkpt lat="44.12271" lon="7.09215">
        <ele>629.77</ele>
        <time>2019-09-27T10:18:41.000Z</time>
      </trkpt>
      <trkpt lat="44.12301" lon="7.09228">
        <ele>632.63</ele>
        <time>2019-09-27T10:18:46.000Z</time>
      </trkpt>
      <trkpt lat="44.12334" lon="7.09238">
        <ele>629.84</ele>
        <time>2019-09-27T10:18:51.000Z</time>
      </trkpt>
      <trkpt lat="44.12369" lon="7.09242">
        <ele>630.36</ele>
        <time>2019-09-27T10:18:56.000Z</time>
      </trkpt>
      <trkpt lat="44.12398" lon="7.0925">
        <ele>633.41</ele>
        <time>2019-09-27T10:19:01.000Z</time>
      </trkpt>
      <trkpt lat="44.12427" lon="7.09263">
        <ele>635.92</ele>
        <time>2019-09-27T10:19:06.000Z</time>
      </trkpt>
      <trkpt lat="44.12451" lon="7.09283">
        <ele>635.52</ele>
        <time>2019-09-27T10:19:11.000Z</time>
      </trkpt>
      <trkpt lat="44.12476" lon="7.09311">
        <ele>633.87</ele>
        <time>2019-09-27T10:19:16.000Z</time>
      </trkpt>
      <trkpt lat="44.12501" lon="7.09332">
        <ele>637.31</ele>
        <time>2019-09-27T10:19:21.000Z</time>
      </trkpt>
      <trkpt lat="44.12527" lon="7.09354">
        <ele>639.04</ele>
        <time>2019-09-27T10:19:26.000Z</time>
      </trkpt>
      <trkpt lat="44.12548" lon="7.09374">
        <ele>639.2</ele>
        <time>2019-09-27T10:19:31.000Z</time>
      </trkpt>
      <trkpt lat="44.12575" lon="7.0939">
        <ele>635.86</ele>
        <time>2019-09-27T10:19:36.000Z</time>
      </trkpt>
      <trkpt lat="44.126" lon="7.09399">
        <ele>641</ele>
        <time>2019-09-27T10:19:41.000Z</time>
      </trkpt>
      <trkpt lat="44.12627" lon="7.09409">
        <ele>644.71</ele>
        <time>2019-09-27T10:19:46.000Z</time>
      </trkpt>
      <trkpt lat="44.12654" lon="7.09419">
        <ele>650.38</ele>
        <time>2019-09-27T10:19:51.000Z</time>
      </trkpt>
      <trkpt lat="44.1268" lon="7.0944">
        <ele>652.37</ele>
        <time>2019-09-27T10:19:56.000Z</time>
      </trkpt>
      <trkpt lat="44.12704" lon="7.09467">
        <ele>650.45</ele>
        <time>2019-09-27T10:20:01.000Z</time>
      </trkpt>
      <trkpt lat="44.12723" lon="7.095">
        <ele>653.91</ele>
        <time>2019-09-27T10:20:06.000Z</time>
      </trkpt>
      <trkpt lat="44.12738" lon="7.09539">
        <ele>655.42</ele>
        <time>2019-09-27T10:20:11.000Z</time>
      </trkpt>
      <trkpt lat="44.12748" lon="7.09579">
        <ele>656.71</ele>
        <time>2019-09-27T10:20:16.000Z</time>
      </trkpt>
      <trkpt lat="44.1276" lon="7.09617">
        <ele>658.32</ele>
        <time>2019-09-27T10:20:21.000Z</time>
      </trkpt>
      <trkpt lat="44.12779" lon="7.0965">
        <ele>660.01</ele>
        <time>2019-09-27T10:20:26.000Z</time>
      </trkpt>
      <trkpt lat="44.12804" lon="7.09679">
        <ele>661.67</ele>
        <time>2019-09-27T10:20:31.000Z</time>
      </trkpt>
      <trkpt lat="44.12828" lon="7.09704">
        <ele>662.42</ele>
        <time>2019-09-27T10:20:36.000Z</time>
      </trkpt>
      <trkpt lat="44.1285" lon="7.09731">
        <ele>662.42</ele>
        <time>2019-09-27T10:20:41.000Z</time>
      </trkpt>
      <trkpt lat="44.1287" lon="7.0976">
        <ele>662.51</ele>
        <time>2019-09-27T10:20:46.000Z</time>
      </trkpt>
      <trkpt lat="44.12895" lon="7.09789">
        <ele>662.39</ele>
        <time>2019-09-27T10:20:51.000Z</time>
      </trkpt>
      <trkpt lat="44.1291" lon="7.0982">
        <ele>661.17</ele>
        <time>2019-09-27T10:20:56.000Z</time>
      </trkpt>
      <trkpt lat="44.12927" lon="7.0985">
        <ele>661.36</ele>
        <time>2019-09-27T10:21:01.000Z</time>
      </trkpt>
      <trkpt lat="44.12943" lon="7.09879">
        <ele>660.99</ele>
        <time>2019-09-27T10:21:06.000Z</time>
      </trkpt>
      <trkpt lat="44.12956" lon="7.09909">
        <ele>663.32</ele>
        <time>2019-09-27T10:21:11.000Z</time>
      </trkpt>
      <trkpt lat="44.1297" lon="7.09939">
        <ele>667.83</ele>
        <time>2019-09-27T10:21:16.000Z</time>
      </trkpt>
      <trkpt lat="44.1299" lon="7.09965">
        <ele>670.37</ele>
        <time>2019-09-27T10:21:21.000Z</time>
      </trkpt>
      <trkpt lat="44.13012" lon="7.09986">
        <ele>671.96</ele>
        <time>2019-09-27T10:21:26.000Z</time>
      </trkpt>
      <trkpt lat="44.13035" lon="7.10006">
        <ele>672.49</ele>
        <time>2019-09-27T10:21:31.000Z</time>
      </trkpt>
      <trkpt lat="44.13059" lon="7.10019">
        <ele>676.56</ele>
        <time>2019-09-27T10:21:36.000Z</time>
      </trkpt>
      <trkpt lat="44.13086" lon="7.10026">
        <ele>675.43</ele>
        <time>2019-09-27T10:21:41.000Z</time>
      </trkpt>
      <trkpt lat="44.13113" lon="7.1003">
        <ele>677.22</ele>
        <time>2019-09-27T10:21:46.000Z</time>
      </trkpt>
      <trkpt lat="44.13137" lon="7.10035">
        <ele>680.72</ele>
        <time>2019-09-27T10:21:51.000Z</time>
      </trkpt>
      <trkpt lat="44.13162" lon="7.10043">
        <ele>683.86</ele>
        <time>2019-09-27T10:21:56.000Z</time>
      </trkpt>
      <trkpt lat="44.13187" lon="7.10054">
        <ele>682.06</ele>
        <time>2019-09-27T10:22:01.000Z</time>
      </trkpt>
      <trkpt lat="44.13208" lon="7.10069">
        <ele>680.08</ele>
        <time>2019-09-27T10:22:06.000Z</time>
      </trkpt>
      <trkpt lat="44.13231" lon="7.10085">
        <ele>681.43</ele>
        <time>2019-09-27T10:22:11.000Z</time>
      </trkpt>
      <trkpt lat="44.13255" lon="7.10096">
        <ele>685.36</ele>
        <time>2019-09-27T10:22:16.000Z</time>
      </trkpt>
      <trkpt lat="44.13279" lon="7.10105">
        <ele>686</ele>
        <time>2019-09-27T10:22:21.000Z</time>
      </trkpt>
      <trkpt lat="44.13304" lon="7.10104">
        <ele>687.76</ele>
        <time>2019-09-27T10:22:26.000Z</time>
      </trkpt>
      <trkpt lat="44.1333" lon="7.10102">
        <ele>686.14</ele>
        <time>2019-09-27T10:22:31.000Z</time>
      </trkpt>
      <trkpt lat="44.13354" lon="7.10097">
        <ele>680.3</ele>
        <time>2019-09-27T10:22:36.000Z</time>
      </trkpt>
      <trkpt lat="44.13381" lon="7.10089">
        <ele>679.33</ele>
        <time>2019-09-27T10:22:41.000Z</time>
      </trkpt>
      <trkpt lat="44.13408" lon="7.10083">
        <ele>681.15</ele>
        <time>2019-09-27T10:22:46.000Z</time>
      </trkpt>
      <trkpt lat="44.13435" lon="7.1008">
        <ele>682.88</ele>
        <time>2019-09-27T10:22:51.000Z</time>
      </trkpt>
      <trkpt lat="44.13462" lon="7.10075">
        <ele>684.59</ele>
        <time>2019-09-27T10:22:56.000Z</time>
      </trkpt>
      <trkpt lat="44.13489" lon="7.10071">
        <ele>682.36</ele>
        <time>2019-09-27T10:23:01.000Z</time>
      </trkpt>
      <trkpt lat="44.13515" lon="7.10056">
        <ele>679.35</ele>
        <time>2019-09-27T10:23:06.000Z</time>
      </trkpt>
      <trkpt lat="44.13543" lon="7.10053">
        <ele>675.79</ele>
        <time>2019-09-27T10:23:11.000Z</time>
      </trkpt>
      <trkpt lat="44.13567" lon="7.10039">
        <ele>677.07</ele>
        <time>2019-09-27T10:23:16.000Z</time>
      </trkpt>
      <trkpt lat="44.13591" lon="7.10023">
        <ele>678.83</ele>
        <time>2019-09-27T10:23:21.000Z</time>
      </trkpt>
      <trkpt lat="44.13619" lon="7.10009">
        <ele>680.89</ele>
        <time>2019-09-27T10:23:26.000Z</time>
      </trkpt>
      <trkpt lat="44.13646" lon="7.1">
        <ele>683.83</ele>
        <time>2019-09-27T10:23:31.000Z</time>
      </trkpt>
      <trkpt lat="44.13671" lon="7.09992">
        <ele>687.08</ele>
        <time>2019-09-27T10:23:36.000Z</time>
      </trkpt>
      <trkpt lat="44.13703" lon="7.09996">
        <ele>688.41</ele>
        <time>2019-09-27T10:23:41.000Z</time>
      </trkpt>
      <trkpt lat="44.13733" lon="7.10011">
        <ele>689.02</ele>
        <time>2019-09-27T10:23:46.000Z</time>
      </trkpt>
      <trkpt lat="44.1376" lon="7.10015">
        <ele>693.08</ele>
        <time>2019-09-27T10:23:51.000Z</time>
      </trkpt>
      <trkpt lat="44.13782" lon="7.10021">
        <ele>692.98</ele>
        <time>2019-09-27T10:23:56.000Z</time>
      </trkpt>
      <trkpt lat="44.13805" lon="7.10023">
        <ele>694.97</ele>
        <time>2019-09-27T10:24:01.000Z</time>
      </trkpt>
      <trkpt lat="44.13827" lon="7.10021">
        <ele>698.82</ele>
        <time>2019-09-27T10:24:06.000Z</time>
      </trkpt>
      <trkpt lat="44.13846" lon="7.10013">
        <ele>703.11</ele>
        <time>2019-09-27T10:24:11.000Z</time>
      </trkpt>
      <trkpt lat="44.13865" lon="7.09995">
        <ele>708.56</ele>
        <time>2019-09-27T10:24:16.000Z</time>
      </trkpt>
      <trkpt lat="44.13886" lon="7.09973">
        <ele>710.18</ele>
        <time>2019-09-27T10:24:21.000Z</time>
      </trkpt>
      <trkpt lat="44.13907" lon="7.09948">
        <ele>708.73</ele>
        <time>2019-09-27T10:24:26.000Z</time>
      </trkpt>
      <trkpt lat="44.13935" lon="7.09932">
        <ele>713.72</ele>
        <time>2019-09-27T10:24:31.000Z</time>
      </trkpt>
      <trkpt lat="44.13962" lon="7.09913">
        <ele>715.72</ele>
        <time>2019-09-27T10:24:36.000Z</time>
      </trkpt>
      <trkpt lat="44.13986" lon="7.09888">
        <ele>717.76</ele>
        <time>2019-09-27T10:24:41.000Z</time>
      </trkpt>
      <trkpt lat="44.14016" lon="7.09864">
        <ele>716.82</ele>
        <time>2019-09-27T10:24:46.000Z</time>
      </trkpt>
      <trkpt lat="44.14049" lon="7.0986">
        <ele>719.74</ele>
        <time>2019-09-27T10:24:51.000Z</time>
      </trkpt>
      <trkpt lat="44.14083" lon="7.09863">
        <ele>721.55</ele>
        <time>2019-09-27T10:24:56.000Z</time>
      </trkpt>
      <trkpt lat="44.14118" lon="7.09862">
        <ele>722.01</ele>
        <time>2019-09-27T10:25:01.000Z</time>
      </trkpt>
      <trkpt lat="44.14153" lon="7.09846">
        <ele>717.83</ele>
        <time>2019-09-27T10:25:06.000Z</time>
      </trkpt>
      <trkpt lat="44.1419" lon="7.09835">
        <ele>716.7</ele>
        <time>2019-09-27T10:25:11.000Z</time>
      </trkpt>
      <trkpt lat="44.14219" lon="7.09822">
        <ele>714.77</ele>
        <time>2019-09-27T10:25:16.000Z</time>
      </trkpt>
      <trkpt lat="44.14246" lon="7.098">
        <ele>709.87</ele>
        <time>2019-09-27T10:25:21.000Z</time>
      </trkpt>
      <trkpt lat="44.14276" lon="7.09783">
        <ele>710.62</ele>
        <time>2019-09-27T10:25:26.000Z</time>
      </trkpt>
      <trkpt lat="44.14307" lon="7.09771">
        <ele>709.65</ele>
        <time>2019-09-27T10:25:31.000Z</time>
      </trkpt>
      <trkpt lat="44.14338" lon="7.0977">
        <ele>710.23</ele>
        <time>2019-09-27T10:25:36.000Z</time>
      </trkpt>
      <trkpt lat="44.14368" lon="7.09774">
        <ele>709.94</ele>
        <time>2019-09-27T10:25:41.000Z</time>
      </trkpt>
      <trkpt lat="44.14399" lon="7.09782">
        <ele>710.91</ele>
        <time>2019-09-27T10:25:46.000Z</time>
      </trkpt>
      <trkpt lat="44.14428" lon="7.09796">
        <ele>710.31</ele>
        <time>2019-09-27T10:25:51.000Z</time>
      </trkpt>
      <trkpt lat="44.1446" lon="7.09808">
        <ele>715.85</ele>
        <time>2019-09-27T10:25:56.000Z</time>
      </trkpt>
      <trkpt lat="44.14501" lon="7.09808">
        <ele>714.12</ele>
        <time>2019-09-27T10:26:01.000Z</time>
      </trkpt>
      <trkpt lat="44.14531" lon="7.09809">
        <ele>715.75</ele>
        <time>2019-09-27T10:26:06.000Z</time>
      </trkpt>
      <trkpt lat="44.14555" lon="7.0979">
        <ele>712.79</ele>
        <time>2019-09-27T10:26:11.000Z</time>
      </trkpt>
      <trkpt lat="44.14581" lon="7.09774">
        <ele>716.14</ele>
        <time>2019-09-27T10:26:16.000Z</time>
      </trkpt>
      <trkpt lat="44.14603" lon="7.09752">
        <ele>717.98</ele>
        <time>2019-09-27T10:26:21.000Z</time>
      </trkpt>
      <trkpt lat="44.14624" lon="7.09721">
        <ele>717.64</ele>
        <time>2019-09-27T10:26:26.000Z</time>
      </trkpt>
      <trkpt lat="44.14649" lon="7.097">
        <ele>716.42</ele>
        <time>2019-09-27T10:26:31.000Z</time>
      </trkpt>
      <trkpt lat="44.14676" lon="7.09673">
        <ele>715.05</ele>
        <time>2019-09-27T10:26:36.000Z</time>
      </trkpt>
      <trkpt lat="44.14707" lon="7.09655">
        <ele>713.67</ele>
        <time>2019-09-27T10:26:41.000Z</time>
      </trkpt>
      <trkpt lat="44.14736" lon="7.09645">
        <ele>717.31</ele>
        <time>2019-09-27T10:26:46.000Z</time>
      </trkpt>
      <trkpt lat="44.14766" lon="7.09632">
        <ele>715.08</ele>
        <time>2019-09-27T10:26:51.000Z</time>
      </trkpt>
      <trkpt lat="44.14796" lon="7.09633">
        <ele>718.04</ele>
        <time>2019-09-27T10:26:56.000Z</time>
      </trkpt>
      <trkpt lat="44.14824" lon="7.09638">
        <ele>720.22</ele>
        <time>2019-09-27T10:27:01.000Z</time>
      </trkpt>
      <trkpt lat="44.1485" lon="7.09641">
        <ele>721.18</ele>
        <time>2019-09-27T10:27:06.000Z</time>
      </trkpt>
      <trkpt lat="44.14875" lon="7.09647">
        <ele>722.97</ele>
        <time>2019-09-27T10:27:11.000Z</time>
      </trkpt>
      <trkpt lat="44.149" lon="7.09657">
        <ele>726.56</ele>
        <time>2019-09-27T10:27:16.000Z</time>
      </trkpt>
      <trkpt lat="44.14924" lon="7.09662">
        <ele>725.89</ele>
        <time>2019-09-27T10:27:21.000Z</time>
      </trkpt>
      <trkpt lat="44.1495" lon="7.09665">
        <ele>729.32</ele>
        <time>2019-09-27T10:27:26.000Z</time>
      </trkpt>
      <trkpt lat="44.14978" lon="7.09662">
        <ele>728.39</ele>
        <time>2019-09-27T10:27:31.000Z</time>
      </trkpt>
      <trkpt lat="44.15005" lon="7.0965">
        <ele>730.49</ele>
        <time>2019-09-27T10:27:36.000Z</time>
      </trkpt>
      <trkpt lat="44.15031" lon="7.09634">
        <ele>733.48</ele>
        <time>2019-09-27T10:27:41.000Z</time>
      </trkpt>
      <trkpt lat="44.15053" lon="7.0961">
        <ele>737.11</ele>
        <time>2019-09-27T10:27:46.000Z</time>
      </trkpt>
      <trkpt lat="44.15071" lon="7.09584">
        <ele>735.94</ele>
        <time>2019-09-27T10:27:51.000Z</time>
      </trkpt>
      <trkpt lat="44.15094" lon="7.09554">
        <ele>734.14</ele>
        <time>2019-09-27T10:27:56.000Z</time>
      </trkpt>
      <trkpt lat="44.1511" lon="7.09522">
        <ele>734.3</ele>
        <time>2019-09-27T10:28:01.000Z</time>
      </trkpt>
      <trkpt lat="44.1513" lon="7.09494">
        <ele>735.71</ele>
        <time>2019-09-27T10:28:06.000Z</time>
      </trkpt>
      <trkpt lat="44.15151" lon="7.09462">
        <ele>737.69</ele>
        <time>2019-09-27T10:28:11.000Z</time>
      </trkpt>
      <trkpt lat="44.15173" lon="7.09433">
        <ele>739.61</ele>
        <time>2019-09-27T10:28:16.000Z</time>
      </trkpt>
      <trkpt lat="44.152" lon="7.09414">
        <ele>741.34</ele>
        <time>2019-09-27T10:28:21.000Z</time>
      </trkpt>
      <trkpt lat="44.15231" lon="7.09401">
        <ele>740.72</ele>
        <time>2019-09-27T10:28:26.000Z</time>
      </trkpt>
      <trkpt lat="44.1526" lon="7.09401">
        <ele>739.56</ele>
        <time>2019-09-27T10:28:31.000Z</time>
      </trkpt>
      <trkpt lat="44.1529" lon="7.09402">
        <ele>739.73</ele>
        <time>2019-09-27T10:28:36.000Z</time>
      </trkpt>
      <trkpt lat="44.15314" lon="7.09399">
        <ele>739.84</ele>
        <time>2019-09-27T10:28:41.000Z</time>
      </trkpt>
      <trkpt lat="44.15343" lon="7.09386">
        <ele>740.9</ele>
        <time>2019-09-27T10:28:46.000Z</time>
      </trkpt>
      <trkpt lat="44.15366" lon="7.09367">
        <ele>741.77</ele>
        <time>2019-09-27T10:28:51.000Z</time>
      </trkpt>
      <trkpt lat="44.15388" lon="7.09337">
        <ele>742.03</ele>
        <time>2019-09-27T10:28:56.000Z</time>
      </trkpt>
      <trkpt lat="44.15405" lon="7.09303">
        <ele>745.55</ele>
        <time>2019-09-27T10:29:01.000Z</time>
      </trkpt>
      <trkpt lat="44.15419" lon="7.09269">
        <ele>749.04</ele>
        <time>2019-09-27T10:29:06.000Z</time>
      </trkpt>
      <trkpt lat="44.15434" lon="7.09234">
        <ele>746.19</ele>
        <time>2019-09-27T10:29:11.000Z</time>
      </trkpt>
      <trkpt lat="44.15448" lon="7.09203">
        <ele>746.49</ele>
        <time>2019-09-27T10:29:16.000Z</time>
      </trkpt>
      <trkpt lat="44.15464" lon="7.09175">
        <ele>748.12</ele>
        <time>2019-09-27T10:29:21.000Z</time>
      </trkpt>
      <trkpt lat="44.15484" lon="7.09148">
        <ele>748.03</ele>
        <time>2019-09-27T10:29:26.000Z</time>
      </trkpt>
      <trkpt lat="44.15506" lon="7.09127">
        <ele>746.06</ele>
        <time>2019-09-27T10:29:31.000Z</time>
      </trkpt>
      <trkpt lat="44.1553" lon="7.09107">
        <ele>749.95</ele>
        <time>2019-09-27T10:29:36.000Z</time>
      </trkpt>
      <trkpt lat="44.15554" lon="7.09088">
        <ele>751.39</ele>
        <time>2019-09-27T10:29:41.000Z</time>
      </trkpt>
      <trkpt lat="44.15578" lon="7.09069">
        <ele>749.97</ele>
        <time>2019-09-27T10:29:46.000Z</time>
      </trkpt>
      <trkpt lat="44.15608" lon="7.09052">
        <ele>748.02</ele>
        <time>2019-09-27T10:29:51.000Z</time>
      </trkpt>
      <trkpt lat="44.15641" lon="7.09039">
        <ele>747.48</ele>
        <time>2019-09-27T10:29:56.000Z</time>
      </trkpt>
      <trkpt lat="44.15671" lon="7.09035">
        <ele>748.41</ele>
        <time>2019-09-27T10:30:01.000Z</time>
      </trkpt>
      <trkpt lat="44.15703" lon="7.09033">
        <ele>749.2</ele>
        <time>2019-09-27T10:30:06.000Z</time>
      </trkpt>
      <trkpt lat="44.1573" lon="7.09046">
        <ele>748.37</ele>
        <time>2019-09-27T10:30:11.000Z</time>
      </trkpt>
      <trkpt lat="44.15758" lon="7.09056">
        <ele>745.12</ele>
        <time>2019-09-27T10:30:16.000Z</time>
      </trkpt>
      <trkpt lat="44.15788" lon="7.09072">
        <ele>749.16</ele>
        <time>2019-09-27T10:30:21.000Z</time>
      </trkpt>
      <trkpt lat="44.1582" lon="7.09084">
        <ele>750.48</ele>
        <time>2019-09-27T10:30:26.000Z</time>
      </trkpt>
      <trkpt lat="44.15848" lon="7.09088">
        <ele>753.38</ele>
        <time>2019-09-27T10:30:31.000Z</time>
      </trkpt>
      <trkpt lat="44.15878" lon="7.09091">
        <ele>754.34</ele>
        <time>2019-09-27T10:30:36.000Z</time>
      </trkpt>
      <trkpt lat="44.15899" lon="7.09085">
        <ele>756.06</ele>
        <time>2019-09-27T10:30:41.000Z</time>
      </trkpt>
      <trkpt lat="44.15923" lon="7.09077">
        <ele>755.5</ele>
        <time>2019-09-27T10:30:46.000Z</time>
      </trkpt>
      <trkpt lat="44.15953" lon="7.09067">
        <ele>753.25</ele>
        <time>2019-09-27T10:30:51.000Z</time>
      </trkpt>
      <trkpt lat="44.15982" lon="7.09065">
        <ele>755.34</ele>
        <time>2019-09-27T10:30:56.000Z</time>
      </trkpt>
      <trkpt lat="44.16005" lon="7.09051">
        <ele>755.75</ele>
        <time>2019-09-27T10:31:01.000Z</time>
      </trkpt>
      <trkpt lat="44.1603" lon="7.09038">
        <ele>757.32</ele>
        <time>2019-09-27T10:31:06.000Z</time>
      </trkpt>
      <trkpt lat="44.16057" lon="7.09027">
        <ele>760.78</ele>
        <time>2019-09-27T10:31:11.000Z</time>
      </trkpt>
      <trkpt lat="44.16085" lon="7.09024">
        <ele>757.37</ele>
        <time>2019-09-27T10:31:16.000Z</time>
      </trkpt>
      <trkpt lat="44.16113" lon="7.09023">
        <ele>759.05</ele>
        <time>2019-09-27T10:31:21.000Z</time>
      </trkpt>
      <trkpt lat="44.16142" lon="7.09021">
        <ele>758.35</ele>
        <time>2019-09-27T10:31:26.000Z</time>
      </trkpt>
      <trkpt lat="44.1617" lon="7.09023">
        <ele>761.45</ele>
        <time>2019-09-27T10:31:31.000Z</time>
      </trkpt>
      <trkpt lat="44.16195" lon="7.09023">
        <ele>764.44</ele>
        <time>2019-09-27T10:31:36.000Z</time>
      </trkpt>
      <trkpt lat="44.16219" lon="7.09023">
        <ele>769.8</ele>
        <time>2019-09-27T10:31:41.000Z</time>
      </trkpt>
      <trkpt lat="44.16244" lon="7.09018">
        <ele>772.16</ele>
        <time>2019-09-27T10:31:46.000Z</time>
      </trkpt>
      <trkpt lat="44.16267" lon="7.09009">
        <ele>775</ele>
        <time>2019-09-27T10:31:51.000Z</time>
      </trkpt>
      <trkpt lat="44.16287" lon="7.08989">
        <ele>770.95</ele>
        <time>2019-09-27T10:31:56.000Z</time>
      </trkpt>
      <trkpt lat="44.16308" lon="7.08972">
        <ele>771.97</ele>
        <time>2019-09-27T10:32:01.000Z</time>
      </trkpt>
      <trkpt lat="44.16329" lon="7.08953">
        <ele>773.96</ele>
        <time>2019-09-27T10:32:06.000Z</time>
      </trkpt>
      <trkpt lat="44.16349" lon="7.08934">
        <ele>773.79</ele>
        <time>2019-09-27T10:32:11.000Z</time>
      </trkpt>
      <trkpt lat="44.16368" lon="7.08916">
        <ele>777.35</ele>
        <time>2019-09-27T10:32:16.000Z</time>
      </trkpt>
      <trkpt lat="44.16386" lon="7.08894">
        <ele>778.79</ele>
        <time>2019-09-27T10:32:21.000Z</time>
      </trkpt>
      <trkpt lat="44.16407" lon="7.0887">
        <ele>779.94</ele>
        <time>2019-09-27T10:32:26.000Z</time>
      </trkpt>
      <trkpt lat="44.16429" lon="7.08851">
        <ele>779.38</ele>
        <time>2019-09-27T10:32:31.000Z</time>
      </trkpt>
      <trkpt lat="44.16453" lon="7.08841">
        <ele>780.36</ele>
        <time>2019-09-27T10:32:36.000Z</time>
      </trkpt>
      <trkpt lat="44.16478" lon="7.08832">
        <ele>782.28</ele>
        <time>2019-09-27T10:32:41.000Z</time>
      </trkpt>
      <trkpt lat="44.16501" lon="7.08823">
        <ele>784.95</ele>
        <time>2019-09-27T10:32:46.000Z</time>
      </trkpt>
      <trkpt lat="44.16523" lon="7.08813">
        <ele>782.35</ele>
        <time>2019-09-27T10:32:51.000Z</time>
      </trkpt>
      <trkpt lat="44.1655" lon="7.0881">
        <ele>781.61</ele>
        <time>2019-09-27T10:32:56.000Z</time>
      </trkpt>
      <trkpt lat="44.16576" lon="7.08809">
        <ele>786.42</ele>
        <time>2019-09-27T10:33:01.000Z</time>
      </trkpt>
      <trkpt lat="44.166" lon="7.08809">
        <ele>787.57</ele>
        <time>2019-09-27T10:33:06.000Z</time>
      </trkpt>
      <trkpt lat="44.16624" lon="7.08811">
        <ele>786.28</ele>
        <time>2019-09-27T10:33:11.000Z</time>
      </trkpt>
      <trkpt lat="44.1665" lon="7.08807">
        <ele>791.74</ele>
        <time>2019-09-27T10:33:16.000Z</time>
      </trkpt>
      <trkpt lat="44.16671" lon="7.08798">
        <ele>792.96</ele>
        <time>2019-09-27T10:33:21.000Z</time>
      </trkpt>
      <trkpt lat="44.167" lon="7.08795">
        <ele>794.55</ele>
        <time>2019-09-27T10:33:26.000Z</time>
      </trkpt>
      <trkpt lat="44.16724" lon="7.08788">
        <ele>794.94</ele>
        <time>2019-09-27T10:33:31.000Z</time>
      </trkpt>
      <trkpt lat="44.16747" lon="7.08785">
        <ele>792.89</ele>
        <time>2019-09-27T10:33:36.000Z</time>
      </trkpt>
      <trkpt lat="44.16771" lon="7.08775">
        <ele>793.35</ele>
        <time>2019-09-27T10:33:41.000Z</time>
      </trkpt>
      <trkpt lat="44.16793" lon="7.08763">
        <ele>795.41</ele>
        <time>2019-09-27T10:33:46.000Z</time>
      </trkpt>
      <trkpt lat="44.16817" lon="7.08748">
        <ele>793.32</ele>
        <time>2019-09-27T10:33:51.000Z</time>
      </trkpt>
      <trkpt lat="44.16841" lon="7.08732">
        <ele>793.43</ele>
        <time>2019-09-27T10:33:56.000Z</time>
      </trkpt>
      <trkpt lat="44.16861" lon="7.08718">
        <ele>796.88</ele>
        <time>2019-09-27T10:34:01.000Z</time>
      </trkpt>
      <trkpt lat="44.16886" lon="7.08701">
        <ele>798.14</ele>
        <time>2019-09-27T10:34:06.000Z</time>
      </trkpt>
      <trkpt lat="44.16907" lon="7.08688">
        <ele>799.94</ele>
        <time>2019-09-27T10:34:11.000Z</time>
      </trkpt>
      <trkpt lat="44.16928" lon="7.0867">
        <ele>801.7</ele>
        <time>2019-09-27T10:34:16.000Z</time>
      </trkpt>
      <trkpt lat="44.16953" lon="7.08654">
        <ele>807.26</ele>
        <time>2019-09-27T10:34:21.000Z</time>
      </trkpt>
      <trkpt lat="44.16979" lon="7.08637">
        <ele>808.02</ele>
        <time>2019-09-27T10:34:26.000Z</time>
      </trkpt>
      <trkpt lat="44.17001" lon="7.08624">
        <ele>806.01</ele>
        <time>2019-09-27T10:34:31.000Z</time>
      </trkpt>
      <trkpt lat="44.17025" lon="7.08606">
        <ele>805.32</ele>
        <time>2019-09-27T10:34:36.000Z</time>
      </trkpt>
      <trkpt lat="44.17047" lon="7.08586">
        <ele>806.49</ele>
        <time>2019-09-27T10:34:41.000Z</time>
      </trkpt>
      <trkpt lat="44.17064" lon="7.08557">
        <ele>806.07</ele>
        <time>2019-09-27T10:34:46.000Z</time>
      </trkpt>
      <trkpt lat="44.17087" lon="7.08529">
        <ele>805.24</ele>
        <time>2019-09-27T10:34:51.000Z</time>
      </trkpt>
      <trkpt lat="44.17107" lon="7.08506">
        <ele>805.33</ele>
        <time>2019-09-27T10:34:56.000Z</time>
      </trkpt>
      <trkpt lat="44.17126" lon="7.08478">
        <ele>804.85</ele>
        <time>2019-09-27T10:35:01.000Z</time>
      </trkpt>
      <trkpt lat="44.17147" lon="7.08453">
        <ele>804.47</ele>
        <time>2019-09-27T10:35:06.000Z</time>
      </trkpt>
      <trkpt lat="44.17166" lon="7.08427">
        <ele>806.6</ele>
        <time>2019-09-27T10:35:11.000Z</time>
      </trkpt>
      <trkpt lat="44.17187" lon="7.084">
        <ele>807.68</ele>
        <time>2019-09-27T10:35:16.000Z</time>
      </trkpt>
      <trkpt lat="44.17206" lon="7.08366">
        <ele>806.81</ele>
        <time>2019-09-27T10:35:21.000Z</time>
      </trkpt>
      <trkpt lat="44.17224" lon="7.08335">
        <ele>809.36</ele>
        <time>2019-09-27T10:35:26.000Z</time>
      </trkpt>
      <trkpt lat="44.17243" lon="7.08301">
        <ele>809.7</ele>
        <time>2019-09-27T10:35:31.000Z</time>
      </trkpt>
      <trkpt lat="44.17265" lon="7.08268">
        <ele>811.9</ele>
        <time>2019-09-27T10:35:36.000Z</time>
      </trkpt>
      <trkpt lat="44.17281" lon="7.08231">
        <ele>811.67</ele>
        <time>2019-09-27T10:35:41.000Z</time>
      </trkpt>
      <trkpt lat="44.17291" lon="7.08191">
        <ele>814.23</ele>
        <time>2019-09-27T10:35:46.000Z</time>
      </trkpt>
      <trkpt lat="44.17289" lon="7.08149">
        <ele>812.44</ele>
        <time>2019-09-27T10:35:51.000Z</time>
      </trkpt>
      <trkpt lat="44.17288" lon="7.0811">
        <ele>816.63</ele>
        <time>2019-09-27T10:35:56.000Z</time>
      </trkpt>
      <trkpt lat="44.17296" lon="7.08066">
        <ele>816.04</ele>
        <time>2019-09-27T10:36:01.000Z</time>
      </trkpt>
      <trkpt lat="44.17317" lon="7.08024">
        <ele>813.35</ele>
        <time>2019-09-27T10:36:06.000Z</time>
      </trkpt>
      <trkpt lat="44.17339" lon="7.08002">
        <ele>816.7</ele>
        <time>2019-09-27T10:36:11.000Z</time>
      </trkpt>
      <trkpt lat="44.17368" lon="7.07984">
        <ele>818.84</ele>
        <time>2019-09-27T10:36:16.000Z</time>
      </trkpt>
      <trkpt lat="44.17392" lon="7.07964">
        <ele>816.38</ele>
        <time>2019-09-27T10:36:21.000Z</time>
      </trkpt>
      <trkpt lat="44.17411" lon="7.07937">
        <ele>818.08</ele>
        <time>2019-09-27T10:36:26.000Z</time>
      </trkpt>
      <trkpt lat="44.17427" lon="7.07908">
        <ele>820.9</ele>
        <time>2019-09-27T10:36:31.000Z</time>
      </trkpt>
      <trkpt lat="44.17442" lon="7.07877">
        <ele>821.81</ele>
        <time>2019-09-27T10:36:36.000Z</time>
      </trkpt>
      <trkpt lat="44.17459" lon="7.07853">
        <ele>822.82</ele>
        <time>2019-09-27T10:36:41.000Z</time>
      </trkpt>
      <trkpt lat="44.17476" lon="7.07827">
        <ele>828.78</ele>
        <time>2019-09-27T10:36:46.000Z</time>
      </trkpt>
      <trkpt lat="44.17493" lon="7.07799">
        <ele>826.8</ele>
        <time>2019-09-27T10:36:51.000Z</time>
      </trkpt>
      <trkpt lat="44.17509" lon="7.07767">
        <ele>827.61</ele>
        <time>2019-09-27T10:36:56.000Z</time>
      </trkpt>
      <trkpt lat="44.17521" lon="7.07733">
        <ele>828.3</ele>
        <time>2019-09-27T10:37:01.000Z</time>
      </trkpt>
      <trkpt lat="44.17534" lon="7.07699">
        <ele>827.96</ele>
        <time>2019-09-27T10:37:06.000Z</time>
      </trkpt>
      <trkpt lat="44.17547" lon="7.07668">
        <ele>829.15</ele>
        <time>2019-09-27T10:37:11.000Z</time>
      </trkpt>
      <trkpt lat="44.17558" lon="7.07633">
        <ele>831.84</ele>
        <time>2019-09-27T10:37:16.000Z</time>
      </trkpt>
      <trkpt lat="44.17568" lon="7.07591">
        <ele>830.76</ele>
        <time>2019-09-27T10:37:21.000Z</time>
      </trkpt>
      <trkpt lat="44.1758" lon="7.07548">
        <ele>833.43</ele>
        <time>2019-09-27T10:37:26.000Z</time>
      </trkpt>
      <trkpt lat="44.17592" lon="7.07509">
        <ele>835.55</ele>
        <time>2019-09-27T10:37:31.000Z</time>
      </trkpt>
      <trkpt lat="44.17606" lon="7.07471">
        <ele>835.74</ele>
        <time>2019-09-27T10:37:36.000Z</time>
      </trkpt>
      <trkpt lat="44.17619" lon="7.07428">
        <ele>837.15</ele>
        <time>2019-09-27T10:37:41.000Z</time>
      </trkpt>
      <trkpt lat="44.17624" lon="7.07381">
        <ele>837.6</ele>
        <time>2019-09-27T10:37:46.000Z</time>
      </trkpt>
      <trkpt lat="44.17625" lon="7.07335">
        <ele>834.14</ele>
        <time>2019-09-27T10:37:51.000Z</time>
      </trkpt>
      <trkpt lat="44.17619" lon="7.07287">
        <ele>833.27</ele>
        <time>2019-09-27T10:37:56.000Z</time>
      </trkpt>
      <trkpt lat="44.17615" lon="7.0724">
        <ele>829.45</ele>
        <time>2019-09-27T10:38:01.000Z</time>
      </trkpt>
      <trkpt lat="44.17619" lon="7.0719">
        <ele>831.24</ele>
        <time>2019-09-27T10:38:06.000Z</time>
      </trkpt>
      <trkpt lat="44.17626" lon="7.07145">
        <ele>828.41</ele>
        <time>2019-09-27T10:38:11.000Z</time>
      </trkpt>
      <trkpt lat="44.17635" lon="7.071">
        <ele>828.46</ele>
        <time>2019-09-27T10:38:16.000Z</time>
      </trkpt>
      <trkpt lat="44.17641" lon="7.07049">
        <ele>826.6</ele>
        <time>2019-09-27T10:38:21.000Z</time>
      </trkpt>
      <trkpt lat="44.1765" lon="7.07002">
        <ele>828.3</ele>
        <time>2019-09-27T10:38:26.000Z</time>
      </trkpt>
      <trkpt lat="44.17658" lon="7.06961">
        <ele>826.23</ele>
        <time>2019-09-27T10:38:31.000Z</time>
      </trkpt>
      <trkpt lat="44.17676" lon="7.06922">
        <ele>823.2</ele>
        <time>2019-09-27T10:38:36.000Z</time>
      </trkpt>
      <trkpt lat="44.17696" lon="7.06884">
        <ele>823.82</ele>
        <time>2019-09-27T10:38:41.000Z</time>
      </trkpt>
      <trkpt lat="44.17715" lon="7.06845">
        <ele>825.09</ele>
        <time>2019-09-27T10:38:46.000Z</time>
      </trkpt>
      <trkpt lat="44.17733" lon="7.06809">
        <ele>826.49</ele>
        <time>2019-09-27T10:38:51.000Z</time>
      </trkpt>
      <trkpt lat="44.17753" lon="7.06776">
        <ele>828.51</ele>
        <time>2019-09-27T10:38:56.000Z</time>
      </trkpt>
      <trkpt lat="44.17776" lon="7.06747">
        <ele>829.5</ele>
        <time>2019-09-27T10:39:01.000Z</time>
      </trkpt>
      <trkpt lat="44.178" lon="7.06718">
        <ele>832.52</ele>
        <time>2019-09-27T10:39:06.000Z</time>
      </trkpt>
      <trkpt lat="44.17822" lon="7.06689">
        <ele>831.7</ele>
        <time>2019-09-27T10:39:11.000Z</time>
      </trkpt>
      <trkpt lat="44.17843" lon="7.06661">
        <ele>832.69</ele>
        <time>2019-09-27T10:39:16.000Z</time>
      </trkpt>
      <trkpt lat="44.17861" lon="7.06631">
        <ele>833.36</ele>
        <time>2019-09-27T10:39:21.000Z</time>
      </trkpt>
      <trkpt lat="44.17879" lon="7.06596">
        <ele>833.86</ele>
        <time>2019-09-27T10:39:26.000Z</time>
      </trkpt>
      <trkpt lat="44.17893" lon="7.06557">
        <ele>834.67</ele>
        <time>2019-09-27T10:39:31.000Z</time>
      </trkpt>
      <trkpt lat="44.17902" lon="7.06519">
        <ele>835.55</ele>
        <time>2019-09-27T10:39:36.000Z</time>
      </trkpt>
      <trkpt lat="44.17912" lon="7.06476">
        <ele>838.06</ele>
        <time>2019-09-27T10:39:41.000Z</time>
      </trkpt>
      <trkpt lat="44.17923" lon="7.06437">
        <ele>839.26</ele>
        <time>2019-09-27T10:39:46.000Z</time>
      </trkpt>
      <trkpt lat="44.17935" lon="7.06393">
        <ele>839.69</ele>
        <time>2019-09-27T10:39:51.000Z</time>
      </trkpt>
      <trkpt lat="44.17949" lon="7.06348">
        <ele>842.56</ele>
        <time>2019-09-27T10:39:56.000Z</time>
      </trkpt>
      <trkpt lat="44.17966" lon="7.06299">
        <ele>841.44</ele>
        <time>2019-09-27T10:40:01.000Z</time>
      </trkpt>
      <trkpt lat="44.17986" lon="7.06261">
        <ele>840.02</ele>
        <time>2019-09-27T10:40:06.000Z</time>
      </trkpt>
      <trkpt lat="44.18004" lon="7.06235">
        <ele>842.73</ele>
        <time>2019-09-27T10:40:11.000Z</time>
      </trkpt>
      <trkpt lat="44.18027" lon="7.06202">
        <ele>842.07</ele>
        <time>2019-09-27T10:40:16.000Z</time>
      </trkpt>
      <trkpt lat="44.18049" lon="7.06166">
        <ele>843.56</ele>
        <time>2019-09-27T10:40:21.000Z</time>
      </trkpt>
      <trkpt lat="44.18069" lon="7.06135">
        <ele>846.02</ele>
        <time>2019-09-27T10:40:26.000Z</time>
      </trkpt>
      <trkpt lat="44.18088" lon="7.06106">
        <ele>846.9</ele>
        <time>2019-09-27T10:40:31.000Z</time>
      </trkpt>
      <trkpt lat="44.18104" lon="7.06075">
        <ele>847.94</ele>
        <time>2019-09-27T10:40:36.000Z</time>
      </trkpt>
      <trkpt lat="44.18121" lon="7.06037">
        <ele>850.55</ele>
        <time>2019-09-27T10:40:41.000Z</time>
      </trkpt>
      <trkpt lat="44.18138" lon="7.06001">
        <ele>849.75</ele>
        <time>2019-09-27T10:40:46.000Z</time>
      </trkpt>
      <trkpt lat="44.18156" lon="7.05966">
        <ele>848.11</ele>
        <time>2019-09-27T10:40:51.000Z</time>
      </trkpt>
      <trkpt lat="44.18175" lon="7.05937">
        <ele>843.96</ele>
        <time>2019-09-27T10:40:56.000Z</time>
      </trkpt>
      <trkpt lat="44.18198" lon="7.05908">
        <ele>842.75</ele>
        <time>2019-09-27T10:41:01.000Z</time>
      </trkpt>
      <trkpt lat="44.18225" lon="7.05887">
        <ele>844.05</ele>
        <time>2019-09-27T10:41:06.000Z</time>
      </trkpt>
      <trkpt lat="44.1825" lon="7.05864">
        <ele>843.99</ele>
        <time>2019-09-27T10:41:11.000Z</time>
      </trkpt>
      <trkpt lat="44.18274" lon="7.0584">
        <ele>844.98</ele>
        <time>2019-09-27T10:41:16.000Z</time>
      </trkpt>
      <trkpt lat="44.18297" lon="7.05813">
        <ele>848.94</ele>
        <time>2019-09-27T10:41:21.000Z</time>
      </trkpt>
      <trkpt lat="44.18318" lon="7.0578">
        <ele>848.45</ele>
        <time>2019-09-27T10:41:26.000Z</time>
      </trkpt>
      <trkpt lat="44.18336" lon="7.05744">
        <ele>848.45</ele>
        <time>2019-09-27T10:41:31.000Z</time>
      </trkpt>
      <trkpt lat="44.18352" lon="7.05709">
        <ele>850.06</ele>
        <time>2019-09-27T10:41:36.000Z</time>
      </trkpt>
      <trkpt lat="44.18367" lon="7.05674">
        <ele>850.73</ele>
        <time>2019-09-27T10:41:41.000Z</time>
      </trkpt>
      <trkpt lat="44.18384" lon="7.0564">
        <ele>853.22</ele>
        <time>2019-09-27T10:41:46.000Z</time>
      </trkpt>
      <trkpt lat="44.18399" lon="7.05608">
        <ele>853.49</ele>
        <time>2019-09-27T10:41:51.000Z</time>
      </trkpt>
      <trkpt lat="44.18412" lon="7.05583">
        <ele>854.31</ele>
        <time>2019-09-27T10:41:56.000Z</time>
      </trkpt>
      <trkpt lat="44.18425" lon="7.05556">
        <ele>855.17</ele>
        <time>2019-09-27T10:42:01.000Z</time>
      </trkpt>
      <trkpt lat="44.18438" lon="7.0553">
        <ele>855.29</ele>
        <time>2019-09-27T10:42:06.000Z</time>
      </trkpt>
      <trkpt lat="44.18455" lon="7.0551">
        <ele>857.65</ele>
        <time>2019-09-27T10:42:11.000Z</time>
      </trkpt>
      <trkpt lat="44.18473" lon="7.05493">
        <ele>860.3</ele>
        <time>2019-09-27T10:42:16.000Z</time>
      </trkpt>
      <trkpt lat="44.18495" lon="7.05485">
        <ele>861.12</ele>
        <time>2019-09-27T10:42:21.000Z</time>
      </trkpt>
      <trkpt lat="44.18515" lon="7.0547">
        <ele>860.8</ele>
        <time>2019-09-27T10:42:26.000Z</time>
      </trkpt>
      <trkpt lat="44.18532" lon="7.05452">
        <ele>863.51</ele>
        <time>2019-09-27T10:42:31.000Z</time>
      </trkpt>
      <trkpt lat="44.1855" lon="7.05435">
        <ele>864.29</ele>
        <time>2019-09-27T10:42:36.000Z</time>
      </trkpt>
      <trkpt lat="44.18569" lon="7.05415">
        <ele>866.48</ele>
        <time>2019-09-27T10:42:41.000Z</time>
      </trkpt>
      <trkpt lat="44.18586" lon="7.05397">
        <ele>864.62</ele>
        <time>2019-09-27T10:42:46.000Z</time>
      </trkpt>
      <trkpt lat="44.18601" lon="7.05374">
        <ele>864.62</ele>
        <time>2019-09-27T10:42:51.000Z</time>
      </trkpt>
      <trkpt lat="44.18607" lon="7.05347">
        <ele>864.48</ele>
        <time>2019-09-27T10:42:56.000Z</time>
      </trkpt>
      <trkpt lat="44.18614" lon="7.05322">
        <ele>863.73</ele>
        <time>2019-09-27T10:43:01.000Z</time>
      </trkpt>
      <trkpt lat="44.18616" lon="7.05302">
        <ele>866.22</ele>
        <time>2019-09-27T10:43:06.000Z</time>
      </trkpt>
      <trkpt lat="44.1862" lon="7.0528">
        <ele>869.76</ele>
        <time>2019-09-27T10:43:11.000Z</time>
      </trkpt>
      <trkpt lat="44.18626" lon="7.05259">
        <ele>873.22</ele>
        <time>2019-09-27T10:43:16.000Z</time>
      </trkpt>
      <trkpt lat="44.18631" lon="7.05243">
        <ele>873.97</ele>
        <time>2019-09-27T10:43:21.000Z</time>
      </trkpt>
      <trkpt lat="44.18635" lon="7.05229">
        <ele>872.51</ele>
        <time>2019-09-27T10:43:26.000Z</time>
      </trkpt>
      <trkpt lat="44.18635" lon="7.05242">
        <ele>879.29</ele>
        <time>2019-09-27T10:43:58.000Z</time>
      </trkpt>
      <trkpt lat="44.18644" lon="7.05248">
        <ele>877.61</ele>
        <time>2019-09-27T10:48:45.000Z</time>
      </trkpt>
      <trkpt lat="44.18636" lon="7.05242">
        <ele>880.07</ele>
        <time>2019-09-27T10:58:11.000Z</time>
      </trkpt>
      <trkpt lat="44.18643" lon="7.0525">
        <ele>894.29</ele>
        <time>2019-09-27T11:00:53.000Z</time>
      </trkpt>
      <trkpt lat="44.18652" lon="7.05251">
        <ele>894.91</ele>
        <time>2019-09-27T11:06:15.000Z</time>
      </trkpt>
      <trkpt lat="44.18642" lon="7.0525">
        <ele>888.96</ele>
        <time>2019-09-27T11:10:02.000Z</time>
      </trkpt>
      <trkpt lat="44.18651" lon="7.05255">
        <ele>887.66</ele>
        <time>2019-09-27T11:19:54.000Z</time>
      </trkpt>
      <trkpt lat="44.18643" lon="7.05248">
        <ele>888.85</ele>
        <time>2019-09-27T11:21:20.000Z</time>
      </trkpt>
      <trkpt lat="44.18641" lon="7.05234">
        <ele>894.64</ele>
        <time>2019-09-27T11:21:52.000Z</time>
      </trkpt>
      <trkpt lat="44.18643" lon="7.05221">
        <ele>891.34</ele>
        <time>2019-09-27T11:21:57.000Z</time>
      </trkpt>
      <trkpt lat="44.18644" lon="7.05205">
        <ele>889.85</ele>
        <time>2019-09-27T11:22:02.000Z</time>
      </trkpt>
      <trkpt lat="44.18645" lon="7.05192">
        <ele>888.33</ele>
        <time>2019-09-27T11:22:07.000Z</time>
      </trkpt>
      <trkpt lat="44.18646" lon="7.05176">
        <ele>884.57</ele>
        <time>2019-09-27T11:22:12.000Z</time>
      </trkpt>
      <trkpt lat="44.18641" lon="7.05159">
        <ele>883.21</ele>
        <time>2019-09-27T11:22:17.000Z</time>
      </trkpt>
      <trkpt lat="44.18631" lon="7.05149">
        <ele>884.67</ele>
        <time>2019-09-27T11:22:22.000Z</time>
      </trkpt>
      <trkpt lat="44.18627" lon="7.05137">
        <ele>885.66</ele>
        <time>2019-09-27T11:22:27.000Z</time>
      </trkpt>
      <trkpt lat="44.18614" lon="7.0512">
        <ele>884.44</ele>
        <time>2019-09-27T11:22:32.000Z</time>
      </trkpt>
      <trkpt lat="44.18607" lon="7.05102">
        <ele>880.76</ele>
        <time>2019-09-27T11:22:37.000Z</time>
      </trkpt>
      <trkpt lat="44.18601" lon="7.05081">
        <ele>879.3</ele>
        <time>2019-09-27T11:22:42.000Z</time>
      </trkpt>
      <trkpt lat="44.18597" lon="7.05063">
        <ele>878.72</ele>
        <time>2019-09-27T11:22:47.000Z</time>
      </trkpt>
      <trkpt lat="44.18602" lon="7.05049">
        <ele>874.91</ele>
        <time>2019-09-27T11:22:52.000Z</time>
      </trkpt>
      <trkpt lat="44.18609" lon="7.05031">
        <ele>880.43</ele>
        <time>2019-09-27T11:22:57.000Z</time>
      </trkpt>
      <trkpt lat="44.1862" lon="7.0502">
        <ele>879.95</ele>
        <time>2019-09-27T11:23:02.000Z</time>
      </trkpt>
      <trkpt lat="44.18628" lon="7.0501">
        <ele>876.56</ele>
        <time>2019-09-27T11:23:07.000Z</time>
      </trkpt>
      <trkpt lat="44.18638" lon="7.05002">
        <ele>876.18</ele>
        <time>2019-09-27T11:23:12.000Z</time>
      </trkpt>
      <trkpt lat="44.18645" lon="7.04993">
        <ele>871.38</ele>
        <time>2019-09-27T11:23:17.000Z</time>
      </trkpt>
      <trkpt lat="44.18657" lon="7.0497">
        <ele>869.64</ele>
        <time>2019-09-27T11:23:22.000Z</time>
      </trkpt>
      <trkpt lat="44.18668" lon="7.04937">
        <ele>864.89</ele>
        <time>2019-09-27T11:23:27.000Z</time>
      </trkpt>
      <trkpt lat="44.18674" lon="7.04904">
        <ele>863.72</ele>
        <time>2019-09-27T11:23:32.000Z</time>
      </trkpt>
      <trkpt lat="44.18674" lon="7.04873">
        <ele>862.23</ele>
        <time>2019-09-27T11:23:37.000Z</time>
      </trkpt>
      <trkpt lat="44.18667" lon="7.0484">
        <ele>864.14</ele>
        <time>2019-09-27T11:23:42.000Z</time>
      </trkpt>
      <trkpt lat="44.18648" lon="7.04831">
        <ele>862.46</ele>
        <time>2019-09-27T11:23:47.000Z</time>
      </trkpt>
      <trkpt lat="44.18637" lon="7.0481">
        <ele>860.74</ele>
        <time>2019-09-27T11:23:52.000Z</time>
      </trkpt>
      <trkpt lat="44.18644" lon="7.04801">
        <ele>855.11</ele>
        <time>2019-09-27T11:24:12.000Z</time>
      </trkpt>
      <trkpt lat="44.18642" lon="7.04788">
        <ele>865.75</ele>
        <time>2019-09-27T11:25:02.000Z</time>
      </trkpt>
      <trkpt lat="44.18635" lon="7.04765">
        <ele>863.81</ele>
        <time>2019-09-27T11:25:07.000Z</time>
      </trkpt>
      <trkpt lat="44.18619" lon="7.04757">
        <ele>863.14</ele>
        <time>2019-09-27T11:25:12.000Z</time>
      </trkpt>
      <trkpt lat="44.18622" lon="7.04732">
        <ele>859.97</ele>
        <time>2019-09-27T11:25:17.000Z</time>
      </trkpt>
      <trkpt lat="44.18631" lon="7.04697">
        <ele>858.62</ele>
        <time>2019-09-27T11:25:22.000Z</time>
      </trkpt>
      <trkpt lat="44.18641" lon="7.0466">
        <ele>860.87</ele>
        <time>2019-09-27T11:25:27.000Z</time>
      </trkpt>
      <trkpt lat="44.18661" lon="7.04636">
        <ele>861.79</ele>
        <time>2019-09-27T11:25:32.000Z</time>
      </trkpt>
      <trkpt lat="44.18685" lon="7.04629">
        <ele>865.84</ele>
        <time>2019-09-27T11:25:37.000Z</time>
      </trkpt>
      <trkpt lat="44.1871" lon="7.04617">
        <ele>867.41</ele>
        <time>2019-09-27T11:25:42.000Z</time>
      </trkpt>
      <trkpt lat="44.18728" lon="7.04596">
        <ele>865.76</ele>
        <time>2019-09-27T11:25:47.000Z</time>
      </trkpt>
      <trkpt lat="44.18737" lon="7.04558">
        <ele>862.29</ele>
        <time>2019-09-27T11:25:52.000Z</time>
      </trkpt>
      <trkpt lat="44.18747" lon="7.04517">
        <ele>862.03</ele>
        <time>2019-09-27T11:25:57.000Z</time>
      </trkpt>
      <trkpt lat="44.18757" lon="7.04481">
        <ele>864.69</ele>
        <time>2019-09-27T11:26:02.000Z</time>
      </trkpt>
      <trkpt lat="44.1877" lon="7.04444">
        <ele>867.5</ele>
        <time>2019-09-27T11:26:07.000Z</time>
      </trkpt>
      <trkpt lat="44.18784" lon="7.04407">
        <ele>871.58</ele>
        <time>2019-09-27T11:26:12.000Z</time>
      </trkpt>
      <trkpt lat="44.18798" lon="7.04374">
        <ele>872.15</ele>
        <time>2019-09-27T11:26:17.000Z</time>
      </trkpt>
      <trkpt lat="44.18816" lon="7.04342">
        <ele>869.4</ele>
        <time>2019-09-27T11:26:22.000Z</time>
      </trkpt>
      <trkpt lat="44.18831" lon="7.04308">
        <ele>870.56</ele>
        <time>2019-09-27T11:26:27.000Z</time>
      </trkpt>
      <trkpt lat="44.18844" lon="7.04273">
        <ele>869.68</ele>
        <time>2019-09-27T11:26:32.000Z</time>
      </trkpt>
      <trkpt lat="44.18855" lon="7.04241">
        <ele>869.33</ele>
        <time>2019-09-27T11:26:37.000Z</time>
      </trkpt>
      <trkpt lat="44.18862" lon="7.04201">
        <ele>870.75</ele>
        <time>2019-09-27T11:26:42.000Z</time>
      </trkpt>
      <trkpt lat="44.18869" lon="7.04162">
        <ele>874.36</ele>
        <time>2019-09-27T11:26:47.000Z</time>
      </trkpt>
      <trkpt lat="44.18881" lon="7.04128">
        <ele>873.56</ele>
        <time>2019-09-27T11:26:52.000Z</time>
      </trkpt>
      <trkpt lat="44.18889" lon="7.04087">
        <ele>874.14</ele>
        <time>2019-09-27T11:26:57.000Z</time>
      </trkpt>
      <trkpt lat="44.18898" lon="7.04046">
        <ele>873.39</ele>
        <time>2019-09-27T11:27:02.000Z</time>
      </trkpt>
      <trkpt lat="44.18898" lon="7.04006">
        <ele>874.6</ele>
        <time>2019-09-27T11:27:07.000Z</time>
      </trkpt>
      <trkpt lat="44.18897" lon="7.0396">
        <ele>876.04</ele>
        <time>2019-09-27T11:27:12.000Z</time>
      </trkpt>
      <trkpt lat="44.189" lon="7.03923">
        <ele>875.46</ele>
        <time>2019-09-27T11:27:17.000Z</time>
      </trkpt>
      <trkpt lat="44.1891" lon="7.03884">
        <ele>876.25</ele>
        <time>2019-09-27T11:27:22.000Z</time>
      </trkpt>
      <trkpt lat="44.18923" lon="7.03841">
        <ele>876.46</ele>
        <time>2019-09-27T11:27:27.000Z</time>
      </trkpt>
      <trkpt lat="44.18933" lon="7.03804">
        <ele>879.5</ele>
        <time>2019-09-27T11:27:32.000Z</time>
      </trkpt>
      <trkpt lat="44.18939" lon="7.03757">
        <ele>881.8</ele>
        <time>2019-09-27T11:27:37.000Z</time>
      </trkpt>
      <trkpt lat="44.18948" lon="7.0372">
        <ele>886.22</ele>
        <time>2019-09-27T11:27:42.000Z</time>
      </trkpt>
      <trkpt lat="44.18959" lon="7.03685">
        <ele>885.93</ele>
        <time>2019-09-27T11:27:47.000Z</time>
      </trkpt>
      <trkpt lat="44.18968" lon="7.0365">
        <ele>882.61</ele>
        <time>2019-09-27T11:27:52.000Z</time>
      </trkpt>
      <trkpt lat="44.18977" lon="7.03613">
        <ele>885.76</ele>
        <time>2019-09-27T11:27:57.000Z</time>
      </trkpt>
      <trkpt lat="44.18981" lon="7.03572">
        <ele>886.47</ele>
        <time>2019-09-27T11:28:02.000Z</time>
      </trkpt>
      <trkpt lat="44.18984" lon="7.03535">
        <ele>884.79</ele>
        <time>2019-09-27T11:28:07.000Z</time>
      </trkpt>
      <trkpt lat="44.18992" lon="7.03509">
        <ele>885.93</ele>
        <time>2019-09-27T11:28:12.000Z</time>
      </trkpt>
      <trkpt lat="44.18995" lon="7.03473">
        <ele>885.39</ele>
        <time>2019-09-27T11:28:17.000Z</time>
      </trkpt>
      <trkpt lat="44.19001" lon="7.03431">
        <ele>886.16</ele>
        <time>2019-09-27T11:28:22.000Z</time>
      </trkpt>
      <trkpt lat="44.19015" lon="7.03403">
        <ele>887.86</ele>
        <time>2019-09-27T11:28:27.000Z</time>
      </trkpt>
      <trkpt lat="44.19027" lon="7.03366">
        <ele>887.21</ele>
        <time>2019-09-27T11:28:32.000Z</time>
      </trkpt>
      <trkpt lat="44.19033" lon="7.03327">
        <ele>885.81</ele>
        <time>2019-09-27T11:28:37.000Z</time>
      </trkpt>
      <trkpt lat="44.19047" lon="7.03287">
        <ele>885.19</ele>
        <time>2019-09-27T11:28:42.000Z</time>
      </trkpt>
      <trkpt lat="44.19055" lon="7.03246">
        <ele>887.85</ele>
        <time>2019-09-27T11:28:47.000Z</time>
      </trkpt>
      <trkpt lat="44.19058" lon="7.03202">
        <ele>894.32</ele>
        <time>2019-09-27T11:28:52.000Z</time>
      </trkpt>
      <trkpt lat="44.1906" lon="7.03159">
        <ele>893.29</ele>
        <time>2019-09-27T11:28:57.000Z</time>
      </trkpt>
      <trkpt lat="44.19064" lon="7.03116">
        <ele>891.63</ele>
        <time>2019-09-27T11:29:02.000Z</time>
      </trkpt>
      <trkpt lat="44.19064" lon="7.03082">
        <ele>890.79</ele>
        <time>2019-09-27T11:29:07.000Z</time>
      </trkpt>
      <trkpt lat="44.19062" lon="7.03046">
        <ele>891.36</ele>
        <time>2019-09-27T11:29:12.000Z</time>
      </trkpt>
      <trkpt lat="44.19057" lon="7.03004">
        <ele>892.94</ele>
        <time>2019-09-27T11:29:17.000Z</time>
      </trkpt>
      <trkpt lat="44.19043" lon="7.0297">
        <ele>893.51</ele>
        <time>2019-09-27T11:29:22.000Z</time>
      </trkpt>
      <trkpt lat="44.19032" lon="7.02939">
        <ele>895.45</ele>
        <time>2019-09-27T11:29:27.000Z</time>
      </trkpt>
      <trkpt lat="44.19019" lon="7.02901">
        <ele>896.34</ele>
        <time>2019-09-27T11:29:32.000Z</time>
      </trkpt>
      <trkpt lat="44.19011" lon="7.02864">
        <ele>897.23</ele>
        <time>2019-09-27T11:29:37.000Z</time>
      </trkpt>
      <trkpt lat="44.18992" lon="7.02834">
        <ele>889.85</ele>
        <time>2019-09-27T11:29:42.000Z</time>
      </trkpt>
      <trkpt lat="44.18976" lon="7.02797">
        <ele>888.69</ele>
        <time>2019-09-27T11:29:47.000Z</time>
      </trkpt>
      <trkpt lat="44.18973" lon="7.02761">
        <ele>888.51</ele>
        <time>2019-09-27T11:29:52.000Z</time>
      </trkpt>
      <trkpt lat="44.18971" lon="7.02719">
        <ele>890.16</ele>
        <time>2019-09-27T11:29:57.000Z</time>
      </trkpt>
      <trkpt lat="44.18946" lon="7.02676">
        <ele>888.42</ele>
        <time>2019-09-27T11:30:02.000Z</time>
      </trkpt>
      <trkpt lat="44.18945" lon="7.02637">
        <ele>884.06</ele>
        <time>2019-09-27T11:30:07.000Z</time>
      </trkpt>
      <trkpt lat="44.18926" lon="7.02609">
        <ele>884.64</ele>
        <time>2019-09-27T11:30:12.000Z</time>
      </trkpt>
      <trkpt lat="44.18922" lon="7.02571">
        <ele>887.65</ele>
        <time>2019-09-27T11:30:17.000Z</time>
      </trkpt>
      <trkpt lat="44.18925" lon="7.02525">
        <ele>885.71</ele>
        <time>2019-09-27T11:30:22.000Z</time>
      </trkpt>
      <trkpt lat="44.18925" lon="7.02488">
        <ele>885.48</ele>
        <time>2019-09-27T11:30:27.000Z</time>
      </trkpt>
      <trkpt lat="44.18922" lon="7.02466">
        <ele>880.12</ele>
        <time>2019-09-27T11:30:32.000Z</time>
      </trkpt>
      <trkpt lat="44.18926" lon="7.0245">
        <ele>881.32</ele>
        <time>2019-09-27T11:30:37.000Z</time>
      </trkpt>
      <trkpt lat="44.18928" lon="7.02433">
        <ele>881.56</ele>
        <time>2019-09-27T11:30:42.000Z</time>
      </trkpt>
      <trkpt lat="44.18932" lon="7.02412">
        <ele>881.15</ele>
        <time>2019-09-27T11:30:47.000Z</time>
      </trkpt>
      <trkpt lat="44.18938" lon="7.02391">
        <ele>882.41</ele>
        <time>2019-09-27T11:30:52.000Z</time>
      </trkpt>
      <trkpt lat="44.18944" lon="7.02364">
        <ele>886.33</ele>
        <time>2019-09-27T11:30:57.000Z</time>
      </trkpt>
      <trkpt lat="44.18947" lon="7.0234">
        <ele>887.03</ele>
        <time>2019-09-27T11:31:02.000Z</time>
      </trkpt>
      <trkpt lat="44.18952" lon="7.02315">
        <ele>890.72</ele>
        <time>2019-09-27T11:31:07.000Z</time>
      </trkpt>
      <trkpt lat="44.18957" lon="7.0229">
        <ele>888.54</ele>
        <time>2019-09-27T11:31:12.000Z</time>
      </trkpt>
      <trkpt lat="44.18959" lon="7.02262">
        <ele>887.79</ele>
        <time>2019-09-27T11:31:17.000Z</time>
      </trkpt>
      <trkpt lat="44.18963" lon="7.02237">
        <ele>888.9</ele>
        <time>2019-09-27T11:31:22.000Z</time>
      </trkpt>
      <trkpt lat="44.18964" lon="7.02206">
        <ele>887.89</ele>
        <time>2019-09-27T11:31:27.000Z</time>
      </trkpt>
      <trkpt lat="44.18965" lon="7.02169">
        <ele>888.73</ele>
        <time>2019-09-27T11:31:32.000Z</time>
      </trkpt>
      <trkpt lat="44.18965" lon="7.02136">
        <ele>892.35</ele>
        <time>2019-09-27T11:31:37.000Z</time>
      </trkpt>
      <trkpt lat="44.18961" lon="7.02104">
        <ele>893.35</ele>
        <time>2019-09-27T11:31:42.000Z</time>
      </trkpt>
      <trkpt lat="44.18952" lon="7.02074">
        <ele>896.14</ele>
        <time>2019-09-27T11:31:47.000Z</time>
      </trkpt>
      <trkpt lat="44.18947" lon="7.02044">
        <ele>902.44</ele>
        <time>2019-09-27T11:31:52.000Z</time>
      </trkpt>
      <trkpt lat="44.1895" lon="7.0201">
        <ele>902.99</ele>
        <time>2019-09-27T11:31:57.000Z</time>
      </trkpt>
      <trkpt lat="44.18943" lon="7.01978">
        <ele>904.05</ele>
        <time>2019-09-27T11:32:02.000Z</time>
      </trkpt>
      <trkpt lat="44.18937" lon="7.01939">
        <ele>903.01</ele>
        <time>2019-09-27T11:32:07.000Z</time>
      </trkpt>
      <trkpt lat="44.18945" lon="7.01898">
        <ele>903.46</ele>
        <time>2019-09-27T11:32:12.000Z</time>
      </trkpt>
      <trkpt lat="44.18954" lon="7.01859">
        <ele>904.88</ele>
        <time>2019-09-27T11:32:17.000Z</time>
      </trkpt>
      <trkpt lat="44.18971" lon="7.01831">
        <ele>904.44</ele>
        <time>2019-09-27T11:32:22.000Z</time>
      </trkpt>
      <trkpt lat="44.18989" lon="7.01808">
        <ele>909.97</ele>
        <time>2019-09-27T11:32:27.000Z</time>
      </trkpt>
      <trkpt lat="44.19006" lon="7.0178">
        <ele>914.28</ele>
        <time>2019-09-27T11:32:32.000Z</time>
      </trkpt>
      <trkpt lat="44.19017" lon="7.01748">
        <ele>916.83</ele>
        <time>2019-09-27T11:32:37.000Z</time>
      </trkpt>
      <trkpt lat="44.19034" lon="7.01719">
        <ele>915.77</ele>
        <time>2019-09-27T11:32:42.000Z</time>
      </trkpt>
      <trkpt lat="44.19053" lon="7.01698">
        <ele>916.4</ele>
        <time>2019-09-27T11:32:47.000Z</time>
      </trkpt>
      <trkpt lat="44.19066" lon="7.01668">
        <ele>919.3</ele>
        <time>2019-09-27T11:32:52.000Z</time>
      </trkpt>
      <trkpt lat="44.19077" lon="7.01634">
        <ele>919.27</ele>
        <time>2019-09-27T11:32:57.000Z</time>
      </trkpt>
      <trkpt lat="44.19096" lon="7.01607">
        <ele>917.81</ele>
        <time>2019-09-27T11:33:02.000Z</time>
      </trkpt>
      <trkpt lat="44.19112" lon="7.0158">
        <ele>919.32</ele>
        <time>2019-09-27T11:33:07.000Z</time>
      </trkpt>
      <trkpt lat="44.19126" lon="7.0155">
        <ele>920.31</ele>
        <time>2019-09-27T11:33:12.000Z</time>
      </trkpt>
      <trkpt lat="44.19138" lon="7.01516">
        <ele>919.59</ele>
        <time>2019-09-27T11:33:17.000Z</time>
      </trkpt>
      <trkpt lat="44.19156" lon="7.01495">
        <ele>917.36</ele>
        <time>2019-09-27T11:33:22.000Z</time>
      </trkpt>
      <trkpt lat="44.19175" lon="7.01464">
        <ele>918.53</ele>
        <time>2019-09-27T11:33:27.000Z</time>
      </trkpt>
      <trkpt lat="44.19189" lon="7.01431">
        <ele>921.78</ele>
        <time>2019-09-27T11:33:32.000Z</time>
      </trkpt>
      <trkpt lat="44.19201" lon="7.01401">
        <ele>924.59</ele>
        <time>2019-09-27T11:33:37.000Z</time>
      </trkpt>
      <trkpt lat="44.19214" lon="7.01366">
        <ele>924.32</ele>
        <time>2019-09-27T11:33:42.000Z</time>
      </trkpt>
      <trkpt lat="44.19226" lon="7.01333">
        <ele>925.73</ele>
        <time>2019-09-27T11:33:47.000Z</time>
      </trkpt>
      <trkpt lat="44.19239" lon="7.013">
        <ele>928.66</ele>
        <time>2019-09-27T11:33:52.000Z</time>
      </trkpt>
      <trkpt lat="44.19255" lon="7.0127">
        <ele>929.35</ele>
        <time>2019-09-27T11:33:57.000Z</time>
      </trkpt>
      <trkpt lat="44.19271" lon="7.01242">
        <ele>930.98</ele>
        <time>2019-09-27T11:34:02.000Z</time>
      </trkpt>
      <trkpt lat="44.19287" lon="7.01217">
        <ele>930.51</ele>
        <time>2019-09-27T11:34:07.000Z</time>
      </trkpt>
      <trkpt lat="44.19302" lon="7.01192">
        <ele>934.58</ele>
        <time>2019-09-27T11:34:12.000Z</time>
      </trkpt>
      <trkpt lat="44.19319" lon="7.0117">
        <ele>932.39</ele>
        <time>2019-09-27T11:34:17.000Z</time>
      </trkpt>
      <trkpt lat="44.19334" lon="7.01149">
        <ele>930.32</ele>
        <time>2019-09-27T11:34:22.000Z</time>
      </trkpt>
      <trkpt lat="44.19351" lon="7.0114">
        <ele>930.77</ele>
        <time>2019-09-27T11:34:27.000Z</time>
      </trkpt>
      <trkpt lat="44.19368" lon="7.01125">
        <ele>935.47</ele>
        <time>2019-09-27T11:34:32.000Z</time>
      </trkpt>
      <trkpt lat="44.19384" lon="7.01104">
        <ele>933.58</ele>
        <time>2019-09-27T11:34:37.000Z</time>
      </trkpt>
      <trkpt lat="44.19396" lon="7.01082">
        <ele>931.09</ele>
        <time>2019-09-27T11:34:42.000Z</time>
      </trkpt>
      <trkpt lat="44.19412" lon="7.01057">
        <ele>930.03</ele>
        <time>2019-09-27T11:34:47.000Z</time>
      </trkpt>
      <trkpt lat="44.19423" lon="7.01027">
        <ele>929.52</ele>
        <time>2019-09-27T11:34:52.000Z</time>
      </trkpt>
      <trkpt lat="44.19431" lon="7.00992">
        <ele>932.22</ele>
        <time>2019-09-27T11:34:57.000Z</time>
      </trkpt>
      <trkpt lat="44.19439" lon="7.00969">
        <ele>932.17</ele>
        <time>2019-09-27T11:35:02.000Z</time>
      </trkpt>
      <trkpt lat="44.19438" lon="7.00924">
        <ele>933.32</ele>
        <time>2019-09-27T11:35:07.000Z</time>
      </trkpt>
      <trkpt lat="44.19452" lon="7.00881">
        <ele>932.97</ele>
        <time>2019-09-27T11:35:12.000Z</time>
      </trkpt>
      <trkpt lat="44.1946" lon="7.00849">
        <ele>933.41</ele>
        <time>2019-09-27T11:35:17.000Z</time>
      </trkpt>
      <trkpt lat="44.19477" lon="7.00797">
        <ele>934.34</ele>
        <time>2019-09-27T11:35:22.000Z</time>
      </trkpt>
      <trkpt lat="44.19499" lon="7.00768">
        <ele>937.59</ele>
        <time>2019-09-27T11:35:27.000Z</time>
      </trkpt>
      <trkpt lat="44.19527" lon="7.00762">
        <ele>934.11</ele>
        <time>2019-09-27T11:35:32.000Z</time>
      </trkpt>
      <trkpt lat="44.19555" lon="7.00735">
        <ele>934.97</ele>
        <time>2019-09-27T11:35:37.000Z</time>
      </trkpt>
      <trkpt lat="44.19568" lon="7.00706">
        <ele>938.75</ele>
        <time>2019-09-27T11:35:42.000Z</time>
      </trkpt>
      <trkpt lat="44.19591" lon="7.00685">
        <ele>943.26</ele>
        <time>2019-09-27T11:35:47.000Z</time>
      </trkpt>
      <trkpt lat="44.19614" lon="7.00654">
        <ele>945.44</ele>
        <time>2019-09-27T11:35:52.000Z</time>
      </trkpt>
      <trkpt lat="44.19636" lon="7.00627">
        <ele>950.43</ele>
        <time>2019-09-27T11:35:57.000Z</time>
      </trkpt>
      <trkpt lat="44.19658" lon="7.00597">
        <ele>949.54</ele>
        <time>2019-09-27T11:36:02.000Z</time>
      </trkpt>
      <trkpt lat="44.19679" lon="7.00572">
        <ele>949.24</ele>
        <time>2019-09-27T11:36:07.000Z</time>
      </trkpt>
      <trkpt lat="44.197" lon="7.00543">
        <ele>951.98</ele>
        <time>2019-09-27T11:36:12.000Z</time>
      </trkpt>
      <trkpt lat="44.19721" lon="7.00515">
        <ele>952.19</ele>
        <time>2019-09-27T11:36:17.000Z</time>
      </trkpt>
      <trkpt lat="44.19743" lon="7.00487">
        <ele>952.43</ele>
        <time>2019-09-27T11:36:22.000Z</time>
      </trkpt>
      <trkpt lat="44.19762" lon="7.0045">
        <ele>952.05</ele>
        <time>2019-09-27T11:36:27.000Z</time>
      </trkpt>
      <trkpt lat="44.19777" lon="7.00413">
        <ele>954.67</ele>
        <time>2019-09-27T11:36:32.000Z</time>
      </trkpt>
      <trkpt lat="44.19784" lon="7.00369">
        <ele>957.15</ele>
        <time>2019-09-27T11:36:37.000Z</time>
      </trkpt>
      <trkpt lat="44.1979" lon="7.00332">
        <ele>959.57</ele>
        <time>2019-09-27T11:36:42.000Z</time>
      </trkpt>
      <trkpt lat="44.19797" lon="7.00293">
        <ele>960.8</ele>
        <time>2019-09-27T11:36:47.000Z</time>
      </trkpt>
      <trkpt lat="44.19802" lon="7.00252">
        <ele>961.72</ele>
        <time>2019-09-27T11:36:52.000Z</time>
      </trkpt>
      <trkpt lat="44.19809" lon="7.00212">
        <ele>964.18</ele>
        <time>2019-09-27T11:36:57.000Z</time>
      </trkpt>
      <trkpt lat="44.19815" lon="7.00172">
        <ele>963.79</ele>
        <time>2019-09-27T11:37:02.000Z</time>
      </trkpt>
      <trkpt lat="44.19828" lon="7.00135">
        <ele>962.26</ele>
        <time>2019-09-27T11:37:07.000Z</time>
      </trkpt>
      <trkpt lat="44.19844" lon="7.00102">
        <ele>960.95</ele>
        <time>2019-09-27T11:37:12.000Z</time>
      </trkpt>
      <trkpt lat="44.1986" lon="7.00066">
        <ele>962.76</ele>
        <time>2019-09-27T11:37:17.000Z</time>
      </trkpt>
      <trkpt lat="44.19883" lon="7.00035">
        <ele>959.65</ele>
        <time>2019-09-27T11:37:22.000Z</time>
      </trkpt>
      <trkpt lat="44.19903" lon="7.00006">
        <ele>956.75</ele>
        <time>2019-09-27T11:37:27.000Z</time>
      </trkpt>
      <trkpt lat="44.19922" lon="6.99975">
        <ele>956.23</ele>
        <time>2019-09-27T11:37:32.000Z</time>
      </trkpt>
      <trkpt lat="44.19941" lon="6.99943">
        <ele>958.65</ele>
        <time>2019-09-27T11:37:37.000Z</time>
      </trkpt>
      <trkpt lat="44.19957" lon="6.99909">
        <ele>958</ele>
        <time>2019-09-27T11:37:42.000Z</time>
      </trkpt>
      <trkpt lat="44.19977" lon="6.9987">
        <ele>956.65</ele>
        <time>2019-09-27T11:37:47.000Z</time>
      </trkpt>
      <trkpt lat="44.19992" lon="6.99834">
        <ele>958.83</ele>
        <time>2019-09-27T11:37:52.000Z</time>
      </trkpt>
      <trkpt lat="44.19994" lon="6.99793">
        <ele>960.07</ele>
        <time>2019-09-27T11:37:57.000Z</time>
      </trkpt>
      <trkpt lat="44.19999" lon="6.99753">
        <ele>962.99</ele>
        <time>2019-09-27T11:38:02.000Z</time>
      </trkpt>
      <trkpt lat="44.20004" lon="6.99713">
        <ele>964.92</ele>
        <time>2019-09-27T11:38:07.000Z</time>
      </trkpt>
      <trkpt lat="44.20011" lon="6.99674">
        <ele>964.83</ele>
        <time>2019-09-27T11:38:12.000Z</time>
      </trkpt>
      <trkpt lat="44.20023" lon="6.99639">
        <ele>966.24</ele>
        <time>2019-09-27T11:38:17.000Z</time>
      </trkpt>
      <trkpt lat="44.20036" lon="6.99596">
        <ele>966.91</ele>
        <time>2019-09-27T11:38:22.000Z</time>
      </trkpt>
      <trkpt lat="44.20053" lon="6.99564">
        <ele>967.11</ele>
        <time>2019-09-27T11:38:27.000Z</time>
      </trkpt>
      <trkpt lat="44.20072" lon="6.99526">
        <ele>969.27</ele>
        <time>2019-09-27T11:38:32.000Z</time>
      </trkpt>
      <trkpt lat="44.2009" lon="6.9949">
        <ele>970.53</ele>
        <time>2019-09-27T11:38:37.000Z</time>
      </trkpt>
      <trkpt lat="44.20104" lon="6.99453">
        <ele>971.13</ele>
        <time>2019-09-27T11:38:42.000Z</time>
      </trkpt>
      <trkpt lat="44.20113" lon="6.99415">
        <ele>977.35</ele>
        <time>2019-09-27T11:38:47.000Z</time>
      </trkpt>
      <trkpt lat="44.20118" lon="6.99376">
        <ele>978.47</ele>
        <time>2019-09-27T11:38:52.000Z</time>
      </trkpt>
      <trkpt lat="44.20121" lon="6.99335">
        <ele>978.56</ele>
        <time>2019-09-27T11:38:57.000Z</time>
      </trkpt>
      <trkpt lat="44.20124" lon="6.99302">
        <ele>978.57</ele>
        <time>2019-09-27T11:39:02.000Z</time>
      </trkpt>
      <trkpt lat="44.20122" lon="6.99268">
        <ele>978.75</ele>
        <time>2019-09-27T11:39:07.000Z</time>
      </trkpt>
      <trkpt lat="44.20126" lon="6.99226">
        <ele>978.79</ele>
        <time>2019-09-27T11:39:12.000Z</time>
      </trkpt>
      <trkpt lat="44.20127" lon="6.99193">
        <ele>979.09</ele>
        <time>2019-09-27T11:39:17.000Z</time>
      </trkpt>
      <trkpt lat="44.20129" lon="6.99161">
        <ele>982.49</ele>
        <time>2019-09-27T11:39:22.000Z</time>
      </trkpt>
      <trkpt lat="44.2014" lon="6.99127">
        <ele>982.36</ele>
        <time>2019-09-27T11:39:27.000Z</time>
      </trkpt>
      <trkpt lat="44.20155" lon="6.9909">
        <ele>981.61</ele>
        <time>2019-09-27T11:39:32.000Z</time>
      </trkpt>
      <trkpt lat="44.20166" lon="6.99051">
        <ele>978.39</ele>
        <time>2019-09-27T11:39:37.000Z</time>
      </trkpt>
      <trkpt lat="44.20186" lon="6.99017">
        <ele>978.42</ele>
        <time>2019-09-27T11:39:42.000Z</time>
      </trkpt>
      <trkpt lat="44.20213" lon="6.98991">
        <ele>977.07</ele>
        <time>2019-09-27T11:39:47.000Z</time>
      </trkpt>
      <trkpt lat="44.20233" lon="6.98973">
        <ele>975.23</ele>
        <time>2019-09-27T11:39:52.000Z</time>
      </trkpt>
      <trkpt lat="44.20242" lon="6.98969">
        <ele>972.54</ele>
        <time>2019-09-27T11:39:57.000Z</time>
      </trkpt>
      <trkpt lat="44.2026" lon="6.98966">
        <ele>972.8</ele>
        <time>2019-09-27T11:40:02.000Z</time>
      </trkpt>
      <trkpt lat="44.20272" lon="6.98946">
        <ele>972.67</ele>
        <time>2019-09-27T11:40:07.000Z</time>
      </trkpt>
      <trkpt lat="44.20287" lon="6.98921">
        <ele>975.96</ele>
        <time>2019-09-27T11:40:12.000Z</time>
      </trkpt>
      <trkpt lat="44.20301" lon="6.98894">
        <ele>974.61</ele>
        <time>2019-09-27T11:40:17.000Z</time>
      </trkpt>
      <trkpt lat="44.2032" lon="6.98867">
        <ele>974.58</ele>
        <time>2019-09-27T11:40:22.000Z</time>
      </trkpt>
      <trkpt lat="44.20344" lon="6.98838">
        <ele>971.59</ele>
        <time>2019-09-27T11:40:27.000Z</time>
      </trkpt>
      <trkpt lat="44.20364" lon="6.98806">
        <ele>972.49</ele>
        <time>2019-09-27T11:40:32.000Z</time>
      </trkpt>
      <trkpt lat="44.20382" lon="6.9877">
        <ele>973.28</ele>
        <time>2019-09-27T11:40:37.000Z</time>
      </trkpt>
      <trkpt lat="44.20396" lon="6.98736">
        <ele>973.85</ele>
        <time>2019-09-27T11:40:42.000Z</time>
      </trkpt>
      <trkpt lat="44.20407" lon="6.98691">
        <ele>973.72</ele>
        <time>2019-09-27T11:40:47.000Z</time>
      </trkpt>
      <trkpt lat="44.20425" lon="6.98647">
        <ele>974.76</ele>
        <time>2019-09-27T11:40:52.000Z</time>
      </trkpt>
      <trkpt lat="44.20442" lon="6.9861">
        <ele>974.1</ele>
        <time>2019-09-27T11:40:57.000Z</time>
      </trkpt>
      <trkpt lat="44.20458" lon="6.98574">
        <ele>977.1</ele>
        <time>2019-09-27T11:41:02.000Z</time>
      </trkpt>
      <trkpt lat="44.2048" lon="6.98543">
        <ele>977.61</ele>
        <time>2019-09-27T11:41:07.000Z</time>
      </trkpt>
      <trkpt lat="44.20507" lon="6.98519">
        <ele>980.72</ele>
        <time>2019-09-27T11:41:12.000Z</time>
      </trkpt>
      <trkpt lat="44.20532" lon="6.98499">
        <ele>979.65</ele>
        <time>2019-09-27T11:41:17.000Z</time>
      </trkpt>
      <trkpt lat="44.20557" lon="6.98468">
        <ele>979.23</ele>
        <time>2019-09-27T11:41:22.000Z</time>
      </trkpt>
      <trkpt lat="44.20579" lon="6.98441">
        <ele>979.34</ele>
        <time>2019-09-27T11:41:27.000Z</time>
      </trkpt>
      <trkpt lat="44.20606" lon="6.98417">
        <ele>980.38</ele>
        <time>2019-09-27T11:41:32.000Z</time>
      </trkpt>
      <trkpt lat="44.20629" lon="6.98392">
        <ele>985.52</ele>
        <time>2019-09-27T11:41:37.000Z</time>
      </trkpt>
      <trkpt lat="44.20651" lon="6.98367">
        <ele>986.23</ele>
        <time>2019-09-27T11:41:42.000Z</time>
      </trkpt>
      <trkpt lat="44.20666" lon="6.98326">
        <ele>987.44</ele>
        <time>2019-09-27T11:41:47.000Z</time>
      </trkpt>
      <trkpt lat="44.20677" lon="6.98294">
        <ele>987.19</ele>
        <time>2019-09-27T11:41:52.000Z</time>
      </trkpt>
      <trkpt lat="44.2068" lon="6.98257">
        <ele>988.7</ele>
        <time>2019-09-27T11:41:57.000Z</time>
      </trkpt>
      <trkpt lat="44.2068" lon="6.98216">
        <ele>989.06</ele>
        <time>2019-09-27T11:42:02.000Z</time>
      </trkpt>
      <trkpt lat="44.20682" lon="6.98175">
        <ele>985.9</ele>
        <time>2019-09-27T11:42:07.000Z</time>
      </trkpt>
      <trkpt lat="44.20681" lon="6.98137">
        <ele>982.59</ele>
        <time>2019-09-27T11:42:12.000Z</time>
      </trkpt>
      <trkpt lat="44.20682" lon="6.98096">
        <ele>983.44</ele>
        <time>2019-09-27T11:42:17.000Z</time>
      </trkpt>
      <trkpt lat="44.20691" lon="6.98054">
        <ele>987.36</ele>
        <time>2019-09-27T11:42:22.000Z</time>
      </trkpt>
      <trkpt lat="44.2071" lon="6.98017">
        <ele>984.99</ele>
        <time>2019-09-27T11:42:27.000Z</time>
      </trkpt>
      <trkpt lat="44.20723" lon="6.97985">
        <ele>984.25</ele>
        <time>2019-09-27T11:42:32.000Z</time>
      </trkpt>
      <trkpt lat="44.20752" lon="6.97953">
        <ele>986.88</ele>
        <time>2019-09-27T11:42:37.000Z</time>
      </trkpt>
      <trkpt lat="44.2078" lon="6.97919">
        <ele>995</ele>
        <time>2019-09-27T11:42:42.000Z</time>
      </trkpt>
      <trkpt lat="44.20811" lon="6.97888">
        <ele>993.78</ele>
        <time>2019-09-27T11:42:47.000Z</time>
      </trkpt>
      <trkpt lat="44.20838" lon="6.97843">
        <ele>993.68</ele>
        <time>2019-09-27T11:42:52.000Z</time>
      </trkpt>
      <trkpt lat="44.20861" lon="6.97798">
        <ele>992.31</ele>
        <time>2019-09-27T11:42:57.000Z</time>
      </trkpt>
      <trkpt lat="44.20883" lon="6.97752">
        <ele>989.71</ele>
        <time>2019-09-27T11:43:02.000Z</time>
      </trkpt>
      <trkpt lat="44.20916" lon="6.97714">
        <ele>992.66</ele>
        <time>2019-09-27T11:43:07.000Z</time>
      </trkpt>
      <trkpt lat="44.20943" lon="6.97685">
        <ele>993.45</ele>
        <time>2019-09-27T11:43:12.000Z</time>
      </trkpt>
      <trkpt lat="44.2097" lon="6.97666">
        <ele>991.98</ele>
        <time>2019-09-27T11:43:17.000Z</time>
      </trkpt>
      <trkpt lat="44.20993" lon="6.9764">
        <ele>990.05</ele>
        <time>2019-09-27T11:43:22.000Z</time>
      </trkpt>
      <trkpt lat="44.21015" lon="6.9761">
        <ele>990.59</ele>
        <time>2019-09-27T11:43:27.000Z</time>
      </trkpt>
      <trkpt lat="44.21038" lon="6.97577">
        <ele>991.13</ele>
        <time>2019-09-27T11:43:32.000Z</time>
      </trkpt>
      <trkpt lat="44.21063" lon="6.97552">
        <ele>994.51</ele>
        <time>2019-09-27T11:43:37.000Z</time>
      </trkpt>
      <trkpt lat="44.21088" lon="6.97524">
        <ele>997.71</ele>
        <time>2019-09-27T11:43:42.000Z</time>
      </trkpt>
      <trkpt lat="44.21114" lon="6.97502">
        <ele>997.26</ele>
        <time>2019-09-27T11:43:47.000Z</time>
      </trkpt>
      <trkpt lat="44.21145" lon="6.97487">
        <ele>997.35</ele>
        <time>2019-09-27T11:43:52.000Z</time>
      </trkpt>
      <trkpt lat="44.21178" lon="6.97472">
        <ele>998.89</ele>
        <time>2019-09-27T11:43:57.000Z</time>
      </trkpt>
      <trkpt lat="44.21208" lon="6.97456">
        <ele>999.21</ele>
        <time>2019-09-27T11:44:02.000Z</time>
      </trkpt>
      <trkpt lat="44.21238" lon="6.97441">
        <ele>1001.89</ele>
        <time>2019-09-27T11:44:07.000Z</time>
      </trkpt>
      <trkpt lat="44.21266" lon="6.97424">
        <ele>1004.17</ele>
        <time>2019-09-27T11:44:12.000Z</time>
      </trkpt>
      <trkpt lat="44.21296" lon="6.974">
        <ele>1007.49</ele>
        <time>2019-09-27T11:44:17.000Z</time>
      </trkpt>
      <trkpt lat="44.21322" lon="6.97377">
        <ele>1009.82</ele>
        <time>2019-09-27T11:44:22.000Z</time>
      </trkpt>
      <trkpt lat="44.21344" lon="6.97349">
        <ele>1011.79</ele>
        <time>2019-09-27T11:44:27.000Z</time>
      </trkpt>
      <trkpt lat="44.21367" lon="6.97319">
        <ele>1011.54</ele>
        <time>2019-09-27T11:44:32.000Z</time>
      </trkpt>
      <trkpt lat="44.21389" lon="6.97289">
        <ele>1013.03</ele>
        <time>2019-09-27T11:44:37.000Z</time>
      </trkpt>
      <trkpt lat="44.21411" lon="6.97257">
        <ele>1011.83</ele>
        <time>2019-09-27T11:44:42.000Z</time>
      </trkpt>
      <trkpt lat="44.21433" lon="6.97229">
        <ele>1012.74</ele>
        <time>2019-09-27T11:44:47.000Z</time>
      </trkpt>
      <trkpt lat="44.21456" lon="6.97206">
        <ele>1012.16</ele>
        <time>2019-09-27T11:44:52.000Z</time>
      </trkpt>
      <trkpt lat="44.21478" lon="6.97164">
        <ele>1012.01</ele>
        <time>2019-09-27T11:44:57.000Z</time>
      </trkpt>
      <trkpt lat="44.21506" lon="6.97146">
        <ele>1013.92</ele>
        <time>2019-09-27T11:45:02.000Z</time>
      </trkpt>
      <trkpt lat="44.21535" lon="6.97131">
        <ele>1014.6</ele>
        <time>2019-09-27T11:45:07.000Z</time>
      </trkpt>
      <trkpt lat="44.21564" lon="6.97119">
        <ele>1016.61</ele>
        <time>2019-09-27T11:45:12.000Z</time>
      </trkpt>
      <trkpt lat="44.21593" lon="6.97105">
        <ele>1017.27</ele>
        <time>2019-09-27T11:45:17.000Z</time>
      </trkpt>
      <trkpt lat="44.21625" lon="6.97095">
        <ele>1019.8</ele>
        <time>2019-09-27T11:45:22.000Z</time>
      </trkpt>
      <trkpt lat="44.21653" lon="6.97081">
        <ele>1019.94</ele>
        <time>2019-09-27T11:45:27.000Z</time>
      </trkpt>
      <trkpt lat="44.21678" lon="6.97051">
        <ele>1021.83</ele>
        <time>2019-09-27T11:45:32.000Z</time>
      </trkpt>
      <trkpt lat="44.21702" lon="6.97025">
        <ele>1023.54</ele>
        <time>2019-09-27T11:45:37.000Z</time>
      </trkpt>
      <trkpt lat="44.21726" lon="6.96998">
        <ele>1023.77</ele>
        <time>2019-09-27T11:45:42.000Z</time>
      </trkpt>
      <trkpt lat="44.21746" lon="6.96957">
        <ele>1026.99</ele>
        <time>2019-09-27T11:45:47.000Z</time>
      </trkpt>
      <trkpt lat="44.21768" lon="6.96927">
        <ele>1029.87</ele>
        <time>2019-09-27T11:45:52.000Z</time>
      </trkpt>
      <trkpt lat="44.21794" lon="6.96898">
        <ele>1032.23</ele>
        <time>2019-09-27T11:45:57.000Z</time>
      </trkpt>
      <trkpt lat="44.21821" lon="6.96872">
        <ele>1033.42</ele>
        <time>2019-09-27T11:46:02.000Z</time>
      </trkpt>
      <trkpt lat="44.21851" lon="6.96858">
        <ele>1030.33</ele>
        <time>2019-09-27T11:46:07.000Z</time>
      </trkpt>
      <trkpt lat="44.21874" lon="6.96825">
        <ele>1030.76</ele>
        <time>2019-09-27T11:46:12.000Z</time>
      </trkpt>
      <trkpt lat="44.21904" lon="6.96813">
        <ele>1035.06</ele>
        <time>2019-09-27T11:46:17.000Z</time>
      </trkpt>
      <trkpt lat="44.21931" lon="6.96792">
        <ele>1036.04</ele>
        <time>2019-09-27T11:46:22.000Z</time>
      </trkpt>
      <trkpt lat="44.21955" lon="6.96764">
        <ele>1035.51</ele>
        <time>2019-09-27T11:46:27.000Z</time>
      </trkpt>
      <trkpt lat="44.21976" lon="6.96729">
        <ele>1034.89</ele>
        <time>2019-09-27T11:46:32.000Z</time>
      </trkpt>
      <trkpt lat="44.21997" lon="6.96692">
        <ele>1035.2</ele>
        <time>2019-09-27T11:46:37.000Z</time>
      </trkpt>
      <trkpt lat="44.2202" lon="6.96661">
        <ele>1035.6</ele>
        <time>2019-09-27T11:46:42.000Z</time>
      </trkpt>
      <trkpt lat="44.22048" lon="6.96643">
        <ele>1038.48</ele>
        <time>2019-09-27T11:46:47.000Z</time>
      </trkpt>
      <trkpt lat="44.22078" lon="6.96621">
        <ele>1040.43</ele>
        <time>2019-09-27T11:46:52.000Z</time>
      </trkpt>
      <trkpt lat="44.22105" lon="6.96591">
        <ele>1038.43</ele>
        <time>2019-09-27T11:46:57.000Z</time>
      </trkpt>
      <trkpt lat="44.22135" lon="6.9657">
        <ele>1039.36</ele>
        <time>2019-09-27T11:47:02.000Z</time>
      </trkpt>
      <trkpt lat="44.22166" lon="6.96545">
        <ele>1040.42</ele>
        <time>2019-09-27T11:47:07.000Z</time>
      </trkpt>
      <trkpt lat="44.22197" lon="6.96524">
        <ele>1039.98</ele>
        <time>2019-09-27T11:47:12.000Z</time>
      </trkpt>
      <trkpt lat="44.22231" lon="6.965">
        <ele>1038.34</ele>
        <time>2019-09-27T11:47:17.000Z</time>
      </trkpt>
      <trkpt lat="44.22264" lon="6.96476">
        <ele>1038.05</ele>
        <time>2019-09-27T11:47:22.000Z</time>
      </trkpt>
      <trkpt lat="44.22297" lon="6.9645">
        <ele>1037.16</ele>
        <time>2019-09-27T11:47:27.000Z</time>
      </trkpt>
      <trkpt lat="44.22329" lon="6.96427">
        <ele>1036.49</ele>
        <time>2019-09-27T11:47:32.000Z</time>
      </trkpt>
      <trkpt lat="44.22358" lon="6.96409">
        <ele>1033.79</ele>
        <time>2019-09-27T11:47:37.000Z</time>
      </trkpt>
      <trkpt lat="44.22387" lon="6.96385">
        <ele>1033.26</ele>
        <time>2019-09-27T11:47:42.000Z</time>
      </trkpt>
      <trkpt lat="44.22413" lon="6.96365">
        <ele>1038.74</ele>
        <time>2019-09-27T11:47:47.000Z</time>
      </trkpt>
      <trkpt lat="44.22441" lon="6.9635">
        <ele>1040.36</ele>
        <time>2019-09-27T11:47:52.000Z</time>
      </trkpt>
      <trkpt lat="44.2247" lon="6.9632">
        <ele>1038.76</ele>
        <time>2019-09-27T11:47:57.000Z</time>
      </trkpt>
      <trkpt lat="44.2249" lon="6.96287">
        <ele>1041.37</ele>
        <time>2019-09-27T11:48:02.000Z</time>
      </trkpt>
      <trkpt lat="44.22498" lon="6.96254">
        <ele>1042.79</ele>
        <time>2019-09-27T11:48:07.000Z</time>
      </trkpt>
      <trkpt lat="44.22505" lon="6.96217">
        <ele>1047.75</ele>
        <time>2019-09-27T11:48:12.000Z</time>
      </trkpt>
      <trkpt lat="44.22513" lon="6.96183">
        <ele>1045.52</ele>
        <time>2019-09-27T11:48:17.000Z</time>
      </trkpt>
      <trkpt lat="44.22513" lon="6.9615">
        <ele>1042.33</ele>
        <time>2019-09-27T11:48:22.000Z</time>
      </trkpt>
      <trkpt lat="44.22512" lon="6.96133">
        <ele>1042.37</ele>
        <time>2019-09-27T11:48:27.000Z</time>
      </trkpt>
      <trkpt lat="44.22521" lon="6.96115">
        <ele>1043.68</ele>
        <time>2019-09-27T11:48:32.000Z</time>
      </trkpt>
      <trkpt lat="44.22524" lon="6.96086">
        <ele>1042.05</ele>
        <time>2019-09-27T11:48:37.000Z</time>
      </trkpt>
      <trkpt lat="44.22528" lon="6.96053">
        <ele>1045.93</ele>
        <time>2019-09-27T11:48:42.000Z</time>
      </trkpt>
      <trkpt lat="44.22535" lon="6.96023">
        <ele>1047.81</ele>
        <time>2019-09-27T11:48:47.000Z</time>
      </trkpt>
      <trkpt lat="44.22547" lon="6.95995">
        <ele>1049.2</ele>
        <time>2019-09-27T11:48:52.000Z</time>
      </trkpt>
      <trkpt lat="44.22566" lon="6.95977">
        <ele>1044.77</ele>
        <time>2019-09-27T11:48:57.000Z</time>
      </trkpt>
      <trkpt lat="44.22592" lon="6.95962">
        <ele>1041.97</ele>
        <time>2019-09-27T11:49:02.000Z</time>
      </trkpt>
      <trkpt lat="44.22618" lon="6.95951">
        <ele>1040.13</ele>
        <time>2019-09-27T11:49:07.000Z</time>
      </trkpt>
      <trkpt lat="44.22646" lon="6.95934">
        <ele>1041.9</ele>
        <time>2019-09-27T11:49:12.000Z</time>
      </trkpt>
      <trkpt lat="44.22671" lon="6.95921">
        <ele>1045</ele>
        <time>2019-09-27T11:49:17.000Z</time>
      </trkpt>
      <trkpt lat="44.22698" lon="6.95902">
        <ele>1047.39</ele>
        <time>2019-09-27T11:49:22.000Z</time>
      </trkpt>
      <trkpt lat="44.22728" lon="6.9588">
        <ele>1047.2</ele>
        <time>2019-09-27T11:49:27.000Z</time>
      </trkpt>
      <trkpt lat="44.22755" lon="6.95856">
        <ele>1045.86</ele>
        <time>2019-09-27T11:49:32.000Z</time>
      </trkpt>
      <trkpt lat="44.22784" lon="6.95834">
        <ele>1044.4</ele>
        <time>2019-09-27T11:49:37.000Z</time>
      </trkpt>
      <trkpt lat="44.22811" lon="6.95819">
        <ele>1044.18</ele>
        <time>2019-09-27T11:49:42.000Z</time>
      </trkpt>
      <trkpt lat="44.22842" lon="6.95808">
        <ele>1045.69</ele>
        <time>2019-09-27T11:49:47.000Z</time>
      </trkpt>
      <trkpt lat="44.22873" lon="6.95798">
        <ele>1045.82</ele>
        <time>2019-09-27T11:49:52.000Z</time>
      </trkpt>
      <trkpt lat="44.22905" lon="6.95783">
        <ele>1045.58</ele>
        <time>2019-09-27T11:49:57.000Z</time>
      </trkpt>
      <trkpt lat="44.22928" lon="6.9576">
        <ele>1044.75</ele>
        <time>2019-09-27T11:50:02.000Z</time>
      </trkpt>
      <trkpt lat="44.22952" lon="6.95733">
        <ele>1046.89</ele>
        <time>2019-09-27T11:50:07.000Z</time>
      </trkpt>
      <trkpt lat="44.22975" lon="6.95702">
        <ele>1048.08</ele>
        <time>2019-09-27T11:50:12.000Z</time>
      </trkpt>
      <trkpt lat="44.22996" lon="6.95667">
        <ele>1047.43</ele>
        <time>2019-09-27T11:50:17.000Z</time>
      </trkpt>
      <trkpt lat="44.23014" lon="6.9563">
        <ele>1048.38</ele>
        <time>2019-09-27T11:50:22.000Z</time>
      </trkpt>
      <trkpt lat="44.2303" lon="6.95595">
        <ele>1048.33</ele>
        <time>2019-09-27T11:50:27.000Z</time>
      </trkpt>
      <trkpt lat="44.23052" lon="6.95561">
        <ele>1049.89</ele>
        <time>2019-09-27T11:50:32.000Z</time>
      </trkpt>
      <trkpt lat="44.23074" lon="6.9553">
        <ele>1052.09</ele>
        <time>2019-09-27T11:50:37.000Z</time>
      </trkpt>
      <trkpt lat="44.23095" lon="6.95496">
        <ele>1050.53</ele>
        <time>2019-09-27T11:50:42.000Z</time>
      </trkpt>
      <trkpt lat="44.23116" lon="6.95459">
        <ele>1052.23</ele>
        <time>2019-09-27T11:50:47.000Z</time>
      </trkpt>
      <trkpt lat="44.23138" lon="6.95432">
        <ele>1054.13</ele>
        <time>2019-09-27T11:50:52.000Z</time>
      </trkpt>
      <trkpt lat="44.23158" lon="6.95398">
        <ele>1056.11</ele>
        <time>2019-09-27T11:50:57.000Z</time>
      </trkpt>
      <trkpt lat="44.23175" lon="6.95365">
        <ele>1058.3</ele>
        <time>2019-09-27T11:51:02.000Z</time>
      </trkpt>
      <trkpt lat="44.23191" lon="6.95334">
        <ele>1058.79</ele>
        <time>2019-09-27T11:51:07.000Z</time>
      </trkpt>
      <trkpt lat="44.23204" lon="6.95297">
        <ele>1058.97</ele>
        <time>2019-09-27T11:51:12.000Z</time>
      </trkpt>
      <trkpt lat="44.23218" lon="6.95258">
        <ele>1060.24</ele>
        <time>2019-09-27T11:51:17.000Z</time>
      </trkpt>
      <trkpt lat="44.2323" lon="6.9522">
        <ele>1059.16</ele>
        <time>2019-09-27T11:51:22.000Z</time>
      </trkpt>
      <trkpt lat="44.23245" lon="6.95186">
        <ele>1062.06</ele>
        <time>2019-09-27T11:51:27.000Z</time>
      </trkpt>
      <trkpt lat="44.23258" lon="6.95156">
        <ele>1063.04</ele>
        <time>2019-09-27T11:51:32.000Z</time>
      </trkpt>
      <trkpt lat="44.23275" lon="6.95139">
        <ele>1061.3</ele>
        <time>2019-09-27T11:51:37.000Z</time>
      </trkpt>
      <trkpt lat="44.23285" lon="6.95113">
        <ele>1061.99</ele>
        <time>2019-09-27T11:51:42.000Z</time>
      </trkpt>
      <trkpt lat="44.23297" lon="6.95083">
        <ele>1062.65</ele>
        <time>2019-09-27T11:51:47.000Z</time>
      </trkpt>
      <trkpt lat="44.23313" lon="6.95052">
        <ele>1061.8</ele>
        <time>2019-09-27T11:51:52.000Z</time>
      </trkpt>
      <trkpt lat="44.23324" lon="6.95019">
        <ele>1060.19</ele>
        <time>2019-09-27T11:51:57.000Z</time>
      </trkpt>
      <trkpt lat="44.23339" lon="6.94991">
        <ele>1063.93</ele>
        <time>2019-09-27T11:52:02.000Z</time>
      </trkpt>
      <trkpt lat="44.2335" lon="6.94959">
        <ele>1064.27</ele>
        <time>2019-09-27T11:52:07.000Z</time>
      </trkpt>
      <trkpt lat="44.23364" lon="6.94933">
        <ele>1063.66</ele>
        <time>2019-09-27T11:52:12.000Z</time>
      </trkpt>
      <trkpt lat="44.2338" lon="6.94909">
        <ele>1063.47</ele>
        <time>2019-09-27T11:52:17.000Z</time>
      </trkpt>
      <trkpt lat="44.23399" lon="6.94883">
        <ele>1063.06</ele>
        <time>2019-09-27T11:52:22.000Z</time>
      </trkpt>
      <trkpt lat="44.23418" lon="6.94856">
        <ele>1064.82</ele>
        <time>2019-09-27T11:52:27.000Z</time>
      </trkpt>
      <trkpt lat="44.23437" lon="6.94843">
        <ele>1064.47</ele>
        <time>2019-09-27T11:52:32.000Z</time>
      </trkpt>
      <trkpt lat="44.23446" lon="6.94839">
        <ele>1062.6</ele>
        <time>2019-09-27T11:52:38.000Z</time>
      </trkpt>
      <trkpt lat="44.23457" lon="6.94831">
        <ele>1064.39</ele>
        <time>2019-09-27T11:54:58.000Z</time>
      </trkpt>
      <trkpt lat="44.23476" lon="6.94801">
        <ele>1069.24</ele>
        <time>2019-09-27T11:55:03.000Z</time>
      </trkpt>
      <trkpt lat="44.23503" lon="6.94774">
        <ele>1067.08</ele>
        <time>2019-09-27T11:55:08.000Z</time>
      </trkpt>
      <trkpt lat="44.23531" lon="6.94739">
        <ele>1065.69</ele>
        <time>2019-09-27T11:55:13.000Z</time>
      </trkpt>
      <trkpt lat="44.23561" lon="6.94703">
        <ele>1068.61</ele>
        <time>2019-09-27T11:55:18.000Z</time>
      </trkpt>
      <trkpt lat="44.23584" lon="6.94682">
        <ele>1067.67</ele>
        <time>2019-09-27T11:55:23.000Z</time>
      </trkpt>
      <trkpt lat="44.23606" lon="6.94648">
        <ele>1068.37</ele>
        <time>2019-09-27T11:55:28.000Z</time>
      </trkpt>
      <trkpt lat="44.23628" lon="6.94625">
        <ele>1069.13</ele>
        <time>2019-09-27T11:55:33.000Z</time>
      </trkpt>
      <trkpt lat="44.23646" lon="6.94597">
        <ele>1069.94</ele>
        <time>2019-09-27T11:55:38.000Z</time>
      </trkpt>
      <trkpt lat="44.23661" lon="6.94573">
        <ele>1068.79</ele>
        <time>2019-09-27T11:55:43.000Z</time>
      </trkpt>
      <trkpt lat="44.23688" lon="6.94553">
        <ele>1070.69</ele>
        <time>2019-09-27T11:55:48.000Z</time>
      </trkpt>
      <trkpt lat="44.23711" lon="6.94533">
        <ele>1072.11</ele>
        <time>2019-09-27T11:55:53.000Z</time>
      </trkpt>
      <trkpt lat="44.23744" lon="6.94529">
        <ele>1073.64</ele>
        <time>2019-09-27T11:55:58.000Z</time>
      </trkpt>
      <trkpt lat="44.23774" lon="6.9453">
        <ele>1076.74</ele>
        <time>2019-09-27T11:56:03.000Z</time>
      </trkpt>
      <trkpt lat="44.23794" lon="6.94533">
        <ele>1074.58</ele>
        <time>2019-09-27T11:56:08.000Z</time>
      </trkpt>
      <trkpt lat="44.23819" lon="6.94535">
        <ele>1075.8</ele>
        <time>2019-09-27T11:56:13.000Z</time>
      </trkpt>
      <trkpt lat="44.23849" lon="6.9453">
        <ele>1076.93</ele>
        <time>2019-09-27T11:56:18.000Z</time>
      </trkpt>
      <trkpt lat="44.2388" lon="6.94522">
        <ele>1073.89</ele>
        <time>2019-09-27T11:56:23.000Z</time>
      </trkpt>
      <trkpt lat="44.23905" lon="6.94509">
        <ele>1072.93</ele>
        <time>2019-09-27T11:56:28.000Z</time>
      </trkpt>
      <trkpt lat="44.23927" lon="6.9449">
        <ele>1076.3</ele>
        <time>2019-09-27T11:56:33.000Z</time>
      </trkpt>
      <trkpt lat="44.23939" lon="6.94459">
        <ele>1076.86</ele>
        <time>2019-09-27T11:56:38.000Z</time>
      </trkpt>
      <trkpt lat="44.23949" lon="6.9446">
        <ele>1076.61</ele>
        <time>2019-09-27T11:57:05.000Z</time>
      </trkpt>
      <trkpt lat="44.23966" lon="6.9445">
        <ele>1075.95</ele>
        <time>2019-09-27T11:57:10.000Z</time>
      </trkpt>
      <trkpt lat="44.23986" lon="6.94427">
        <ele>1079.83</ele>
        <time>2019-09-27T11:57:15.000Z</time>
      </trkpt>
      <trkpt lat="44.23995" lon="6.94392">
        <ele>1083.11</ele>
        <time>2019-09-27T11:57:20.000Z</time>
      </trkpt>
      <trkpt lat="44.24004" lon="6.9436">
        <ele>1084.3</ele>
        <time>2019-09-27T11:57:25.000Z</time>
      </trkpt>
      <trkpt lat="44.24015" lon="6.94331">
        <ele>1085.65</ele>
        <time>2019-09-27T11:57:30.000Z</time>
      </trkpt>
      <trkpt lat="44.24025" lon="6.94305">
        <ele>1086.15</ele>
        <time>2019-09-27T11:57:35.000Z</time>
      </trkpt>
      <trkpt lat="44.24041" lon="6.94277">
        <ele>1079.16</ele>
        <time>2019-09-27T11:57:40.000Z</time>
      </trkpt>
      <trkpt lat="44.24051" lon="6.94248">
        <ele>1079.26</ele>
        <time>2019-09-27T11:57:45.000Z</time>
      </trkpt>
      <trkpt lat="44.24066" lon="6.94216">
        <ele>1083.16</ele>
        <time>2019-09-27T11:57:50.000Z</time>
      </trkpt>
      <trkpt lat="44.2408" lon="6.94194">
        <ele>1085.83</ele>
        <time>2019-09-27T11:57:55.000Z</time>
      </trkpt>
      <trkpt lat="44.24106" lon="6.94175">
        <ele>1082.81</ele>
        <time>2019-09-27T11:58:00.000Z</time>
      </trkpt>
      <trkpt lat="44.24128" lon="6.94152">
        <ele>1084.16</ele>
        <time>2019-09-27T11:58:05.000Z</time>
      </trkpt>
      <trkpt lat="44.2415" lon="6.94128">
        <ele>1085.93</ele>
        <time>2019-09-27T11:58:10.000Z</time>
      </trkpt>
      <trkpt lat="44.24172" lon="6.94113">
        <ele>1087.04</ele>
        <time>2019-09-27T11:58:15.000Z</time>
      </trkpt>
      <trkpt lat="44.24198" lon="6.94089">
        <ele>1083.49</ele>
        <time>2019-09-27T11:58:20.000Z</time>
      </trkpt>
      <trkpt lat="44.24218" lon="6.94059">
        <ele>1084.41</ele>
        <time>2019-09-27T11:58:25.000Z</time>
      </trkpt>
      <trkpt lat="44.24239" lon="6.94033">
        <ele>1085.85</ele>
        <time>2019-09-27T11:58:30.000Z</time>
      </trkpt>
      <trkpt lat="44.24261" lon="6.94011">
        <ele>1086.23</ele>
        <time>2019-09-27T11:58:35.000Z</time>
      </trkpt>
      <trkpt lat="44.24287" lon="6.93994">
        <ele>1084.63</ele>
        <time>2019-09-27T11:58:40.000Z</time>
      </trkpt>
      <trkpt lat="44.24313" lon="6.93969">
        <ele>1084.64</ele>
        <time>2019-09-27T11:58:45.000Z</time>
      </trkpt>
      <trkpt lat="44.24338" lon="6.93957">
        <ele>1086.55</ele>
        <time>2019-09-27T11:58:50.000Z</time>
      </trkpt>
      <trkpt lat="44.24357" lon="6.9394">
        <ele>1084.95</ele>
        <time>2019-09-27T11:58:55.000Z</time>
      </trkpt>
      <trkpt lat="44.24371" lon="6.93911">
        <ele>1083.22</ele>
        <time>2019-09-27T11:59:00.000Z</time>
      </trkpt>
      <trkpt lat="44.2439" lon="6.93892">
        <ele>1084.3</ele>
        <time>2019-09-27T11:59:05.000Z</time>
      </trkpt>
      <trkpt lat="44.24407" lon="6.93866">
        <ele>1082.85</ele>
        <time>2019-09-27T11:59:10.000Z</time>
      </trkpt>
      <trkpt lat="44.24419" lon="6.93848">
        <ele>1083.46</ele>
        <time>2019-09-27T11:59:15.000Z</time>
      </trkpt>
      <trkpt lat="44.2443" lon="6.9383">
        <ele>1084.99</ele>
        <time>2019-09-27T11:59:20.000Z</time>
      </trkpt>
      <trkpt lat="44.24442" lon="6.93814">
        <ele>1085.04</ele>
        <time>2019-09-27T11:59:25.000Z</time>
      </trkpt>
      <trkpt lat="44.24453" lon="6.93797">
        <ele>1083.77</ele>
        <time>2019-09-27T11:59:30.000Z</time>
      </trkpt>
      <trkpt lat="44.24463" lon="6.93776">
        <ele>1086.65</ele>
        <time>2019-09-27T11:59:35.000Z</time>
      </trkpt>
      <trkpt lat="44.24472" lon="6.93757">
        <ele>1086.59</ele>
        <time>2019-09-27T11:59:40.000Z</time>
      </trkpt>
      <trkpt lat="44.24479" lon="6.9374">
        <ele>1089.78</ele>
        <time>2019-09-27T11:59:45.000Z</time>
      </trkpt>
      <trkpt lat="44.24488" lon="6.93723">
        <ele>1086.81</ele>
        <time>2019-09-27T11:59:50.000Z</time>
      </trkpt>
      <trkpt lat="44.24499" lon="6.93709">
        <ele>1087.67</ele>
        <time>2019-09-27T11:59:55.000Z</time>
      </trkpt>
      <trkpt lat="44.24511" lon="6.93696">
        <ele>1090.01</ele>
        <time>2019-09-27T12:00:00.000Z</time>
      </trkpt>
      <trkpt lat="44.24524" lon="6.93683">
        <ele>1090.22</ele>
        <time>2019-09-27T12:00:05.000Z</time>
      </trkpt>
      <trkpt lat="44.24538" lon="6.93673">
        <ele>1093.43</ele>
        <time>2019-09-27T12:00:10.000Z</time>
      </trkpt>
      <trkpt lat="44.2455" lon="6.9366">
        <ele>1095.81</ele>
        <time>2019-09-27T12:00:15.000Z</time>
      </trkpt>
      <trkpt lat="44.24558" lon="6.93638">
        <ele>1096.84</ele>
        <time>2019-09-27T12:00:20.000Z</time>
      </trkpt>
      <trkpt lat="44.24566" lon="6.93618">
        <ele>1099.09</ele>
        <time>2019-09-27T12:00:25.000Z</time>
      </trkpt>
      <trkpt lat="44.24579" lon="6.9361">
        <ele>1108.41</ele>
        <time>2019-09-27T12:00:30.000Z</time>
      </trkpt>
      <trkpt lat="44.24592" lon="6.93599">
        <ele>1112.32</ele>
        <time>2019-09-27T12:00:35.000Z</time>
      </trkpt>
      <trkpt lat="44.24606" lon="6.93583">
        <ele>1118.34</ele>
        <time>2019-09-27T12:00:40.000Z</time>
      </trkpt>
      <trkpt lat="44.2462" lon="6.93564">
        <ele>1121</ele>
        <time>2019-09-27T12:00:45.000Z</time>
      </trkpt>
      <trkpt lat="44.24632" lon="6.93539">
        <ele>1125.19</ele>
        <time>2019-09-27T12:00:50.000Z</time>
      </trkpt>
      <trkpt lat="44.24647" lon="6.93511">
        <ele>1126.32</ele>
        <time>2019-09-27T12:00:55.000Z</time>
      </trkpt>
      <trkpt lat="44.24673" lon="6.93482">
        <ele>1124.06</ele>
        <time>2019-09-27T12:01:00.000Z</time>
      </trkpt>
      <trkpt lat="44.24703" lon="6.93442">
        <ele>1122.09</ele>
        <time>2019-09-27T12:01:05.000Z</time>
      </trkpt>
      <trkpt lat="44.24732" lon="6.93406">
        <ele>1119.87</ele>
        <time>2019-09-27T12:01:10.000Z</time>
      </trkpt>
      <trkpt lat="44.24754" lon="6.9336">
        <ele>1120.3</ele>
        <time>2019-09-27T12:01:15.000Z</time>
      </trkpt>
      <trkpt lat="44.24785" lon="6.93343">
        <ele>1116.91</ele>
        <time>2019-09-27T12:01:20.000Z</time>
      </trkpt>
      <trkpt lat="44.24813" lon="6.93357">
        <ele>1114.44</ele>
        <time>2019-09-27T12:01:25.000Z</time>
      </trkpt>
      <trkpt lat="44.24842" lon="6.93353">
        <ele>1112.05</ele>
        <time>2019-09-27T12:01:30.000Z</time>
      </trkpt>
      <trkpt lat="44.24864" lon="6.9332">
        <ele>1111.66</ele>
        <time>2019-09-27T12:01:35.000Z</time>
      </trkpt>
      <trkpt lat="44.24883" lon="6.93288">
        <ele>1111.55</ele>
        <time>2019-09-27T12:01:40.000Z</time>
      </trkpt>
      <trkpt lat="44.24899" lon="6.93259">
        <ele>1110.11</ele>
        <time>2019-09-27T12:01:45.000Z</time>
      </trkpt>
      <trkpt lat="44.24917" lon="6.93233">
        <ele>1110.07</ele>
        <time>2019-09-27T12:01:50.000Z</time>
      </trkpt>
      <trkpt lat="44.24937" lon="6.9321">
        <ele>1109.08</ele>
        <time>2019-09-27T12:01:55.000Z</time>
      </trkpt>
      <trkpt lat="44.24954" lon="6.93194">
        <ele>1107.29</ele>
        <time>2019-09-27T12:02:00.000Z</time>
      </trkpt>
      <trkpt lat="44.24975" lon="6.93175">
        <ele>1105.94</ele>
        <time>2019-09-27T12:02:05.000Z</time>
      </trkpt>
      <trkpt lat="44.24996" lon="6.93161">
        <ele>1099.72</ele>
        <time>2019-09-27T12:02:10.000Z</time>
      </trkpt>
      <trkpt lat="44.25014" lon="6.93149">
        <ele>1099.33</ele>
        <time>2019-09-27T12:02:15.000Z</time>
      </trkpt>
      <trkpt lat="44.25027" lon="6.93158">
        <ele>1094.89</ele>
        <time>2019-09-27T12:02:20.000Z</time>
      </trkpt>
      <trkpt lat="44.25041" lon="6.93175">
        <ele>1097.99</ele>
        <time>2019-09-27T12:02:25.000Z</time>
      </trkpt>
      <trkpt lat="44.25057" lon="6.93191">
        <ele>1099.72</ele>
        <time>2019-09-27T12:02:30.000Z</time>
      </trkpt>
      <trkpt lat="44.25073" lon="6.93205">
        <ele>1102.86</ele>
        <time>2019-09-27T12:02:35.000Z</time>
      </trkpt>
      <trkpt lat="44.25085" lon="6.9318">
        <ele>1102.39</ele>
        <time>2019-09-27T12:02:40.000Z</time>
      </trkpt>
      <trkpt lat="44.25099" lon="6.93153">
        <ele>1103.65</ele>
        <time>2019-09-27T12:02:45.000Z</time>
      </trkpt>
      <trkpt lat="44.25113" lon="6.93121">
        <ele>1105.84</ele>
        <time>2019-09-27T12:02:50.000Z</time>
      </trkpt>
      <trkpt lat="44.25129" lon="6.93093">
        <ele>1109.43</ele>
        <time>2019-09-27T12:02:55.000Z</time>
      </trkpt>
      <trkpt lat="44.25146" lon="6.93071">
        <ele>1109.92</ele>
        <time>2019-09-27T12:03:00.000Z</time>
      </trkpt>
      <trkpt lat="44.25163" lon="6.93039">
        <ele>1110.4</ele>
        <time>2019-09-27T12:03:05.000Z</time>
      </trkpt>
      <trkpt lat="44.25173" lon="6.93013">
        <ele>1111.6</ele>
        <time>2019-09-27T12:03:10.000Z</time>
      </trkpt>
      <trkpt lat="44.25192" lon="6.92988">
        <ele>1117.36</ele>
        <time>2019-09-27T12:03:15.000Z</time>
      </trkpt>
      <trkpt lat="44.25212" lon="6.92968">
        <ele>1119.61</ele>
        <time>2019-09-27T12:03:20.000Z</time>
      </trkpt>
      <trkpt lat="44.25223" lon="6.92936">
        <ele>1123.73</ele>
        <time>2019-09-27T12:03:25.000Z</time>
      </trkpt>
      <trkpt lat="44.2524" lon="6.92907">
        <ele>1127.42</ele>
        <time>2019-09-27T12:03:30.000Z</time>
      </trkpt>
      <trkpt lat="44.25261" lon="6.92889">
        <ele>1126.95</ele>
        <time>2019-09-27T12:03:35.000Z</time>
      </trkpt>
      <trkpt lat="44.25278" lon="6.92868">
        <ele>1128.06</ele>
        <time>2019-09-27T12:03:40.000Z</time>
      </trkpt>
      <trkpt lat="44.25295" lon="6.92839">
        <ele>1128.09</ele>
        <time>2019-09-27T12:03:45.000Z</time>
      </trkpt>
      <trkpt lat="44.25309" lon="6.92815">
        <ele>1128.17</ele>
        <time>2019-09-27T12:03:50.000Z</time>
      </trkpt>
      <trkpt lat="44.25327" lon="6.92813">
        <ele>1131.06</ele>
        <time>2019-09-27T12:03:55.000Z</time>
      </trkpt>
      <trkpt lat="44.25327" lon="6.92786">
        <ele>1131.33</ele>
        <time>2019-09-27T12:04:00.000Z</time>
      </trkpt>
      <trkpt lat="44.25341" lon="6.9277">
        <ele>1133.11</ele>
        <time>2019-09-27T12:04:05.000Z</time>
      </trkpt>
      <trkpt lat="44.25361" lon="6.92757">
        <ele>1130.84</ele>
        <time>2019-09-27T12:04:10.000Z</time>
      </trkpt>
      <trkpt lat="44.25382" lon="6.9275">
        <ele>1129.22</ele>
        <time>2019-09-27T12:04:15.000Z</time>
      </trkpt>
      <trkpt lat="44.25409" lon="6.92747">
        <ele>1132.03</ele>
        <time>2019-09-27T12:04:20.000Z</time>
      </trkpt>
      <trkpt lat="44.25434" lon="6.92735">
        <ele>1132.14</ele>
        <time>2019-09-27T12:04:25.000Z</time>
      </trkpt>
      <trkpt lat="44.25451" lon="6.92714">
        <ele>1131.01</ele>
        <time>2019-09-27T12:04:30.000Z</time>
      </trkpt>
      <trkpt lat="44.25474" lon="6.92697">
        <ele>1130.06</ele>
        <time>2019-09-27T12:04:35.000Z</time>
      </trkpt>
      <trkpt lat="44.25491" lon="6.9268">
        <ele>1133.64</ele>
        <time>2019-09-27T12:04:40.000Z</time>
      </trkpt>
      <trkpt lat="44.25511" lon="6.92664">
        <ele>1139.34</ele>
        <time>2019-09-27T12:04:45.000Z</time>
      </trkpt>
      <trkpt lat="44.25526" lon="6.92646">
        <ele>1136.36</ele>
        <time>2019-09-27T12:04:50.000Z</time>
      </trkpt>
      <trkpt lat="44.25542" lon="6.92618">
        <ele>1138.24</ele>
        <time>2019-09-27T12:04:55.000Z</time>
      </trkpt>
      <trkpt lat="44.25552" lon="6.926">
        <ele>1138.25</ele>
        <time>2019-09-27T12:05:00.000Z</time>
      </trkpt>
      <trkpt lat="44.2556" lon="6.92582">
        <ele>1139.46</ele>
        <time>2019-09-27T12:05:05.000Z</time>
      </trkpt>
      <trkpt lat="44.25567" lon="6.92569">
        <ele>1139.3</ele>
        <time>2019-09-27T12:05:10.000Z</time>
      </trkpt>
      <trkpt lat="44.25569" lon="6.92553">
        <ele>1140.49</ele>
        <time>2019-09-27T12:05:15.000Z</time>
      </trkpt>
      <trkpt lat="44.25567" lon="6.92555">
        <ele>1143.3</ele>
        <time>2019-09-27T12:05:51.000Z</time>
      </trkpt>
    </trkseg>
  </trk>
</gpx>